     2.11           OBSERVATION DATA    G (GPS)             RINEX VERSION / TYPE
teqc 2010Oct21 OPUS Account 20111025 19:57:27UTC            PGM / RUN BY / DATE
R 1521                                                      MARKER NAME
1143                                                        MARKER NUMBER
CSMIDDLETON NGS                                             OBSERVER / AGENCY
4624K01590 TRIMBLE NETR5 4.41                               REC # / TYPE / VERS
12236910 TRM41249.00 NONE                                   ANT # / TYPE
  -739367.9137 -5470935.1135  3183778.0959                  APPROX POSITION XYZ
        2.0010        0.0000        0.0000                  ANTENNA: DELTA H/E/N
     1     1                                                WAVELENGTH FACT L1/2
     5    L1    L2    C1    P1    P2                        # / TYPES OF OBSERV
    15                                                      LEAP SECONDS
  2011     7    28     0     0    0.0000000     GPS         TIME OF FIRST OBS
                                                            END OF HEADER
 11  7 28  0  0  0.0000000  0  8G10G28G17G09G04G20G27G02
 123932248.548 6  96570672.45943  23583513.820                    23583525.172
 114605908.539 8  89303391.01745  21808780.203                    21808787.539
 112283909.981 8  87494058.61346  21366904.891                    21366912.410
 116559043.643 7  90825288.56945  22180451.094                    22180459.512
 104675837.782 8  81565722.01546  19919131.547                    19919139.254
 127184187.902 6  99104507.02343  24202318.117                    24202325.855
 117802739.293 7  91794382.98445  22417113.164                    22417121.844
 117497089.298 8  91556284.68945  22358938.555                    22358945.660
 11  7 28  0  0 30.0000000  0  8G10G28G17G09G04G20G27G02
 123838268.225 7  96497441.19944  23565630.664                    23565641.766
 114656294.407 8  89342652.69545  21818368.234                    21818375.742
 112314861.473 8  87518176.63946  21372795.414                    21372802.098
 116530930.991 7  90803382.61945  22175101.531                    22175110.145
 104660387.175 8  81553682.59946  19916191.578                    19916199.395
 127218225.890 6  99131030.13943  24208795.094                    24208803.043
 117791953.235 7  91785978.23845  22415060.141                    22415068.988
 117416848.614 8  91493759.59245  22343669.289                    22343676.074
 11  7 28  0  1  0.0000000  0  8G10G28G17G09G04G20G27G02
 123744328.093 7  96424241.23144  23547754.430                    23547765.230
 114707052.050 8  89382204.07345  21828027.211                    21828034.234
 112345909.099 8  87542369.58046  21378703.352                    21378710.512
 116503452.698 7  90781970.95145  22169873.094                    22169881.109
 104645509.620 8  81542089.72046  19913360.055                    19913367.816
 127252759.372 6  99157939.29643  24215366.164                    24215375.398
 117781659.568 7  91777957.17645  22413101.758                    22413110.629
 117336896.043 8  91431458.98945  22328454.883                    22328461.930
 11  7 28  0  1 30.0000000  0  8G10G28G17G09G04G20G27G02
 123650431.437 7  96351075.12944  23529887.102                    23529897.285
 114758181.664 8  89422045.29845  21837756.656                    21837764.039
 112377052.370 7  87566637.03846  21384629.602                    21384637.066
 116476609.377 7  90761054.08645  22164764.852                    22164772.852
 104631205.174 8  81530943.40946  19910638.195                    19910646.082
 127287788.187 6  99185234.47543  24222032.680                    24222041.035
 117771858.526 8  91770319.97445  22411236.383                    22411245.148
 117257233.161 8  91369384.11245  22313295.305                    22313302.660
 11  7 28  0  2  0.0000000  0  8G10G28G17G09G04G20G27G02
 123556581.497 7  96277945.44444  23512027.531                    23512038.680
 114809683.218 8  89462176.34745  21847557.023                    21847564.113
 112408291.290 8  87590979.04446  21390574.336                    21390581.277
 116450401.974 7  90740632.74045  22159777.477                    22159785.605
 104617473.544 8  81520243.45346  19908025.313                    19908033.070
 127323311.365 6  99212914.84343  24228791.914                    24228800.742
 117762549.738 7  91763066.34445  22409465.133                    22409473.797
 117177861.375 8  91307536.06645  22298190.953                    22298198.172
 11  7 28  0  2 30.0000000  0  8G10G28G17G09G04G20G27G02
 123462780.998 7  96204854.26444  23494177.516                    23494188.422
 114861556.483 8  89502597.03945  21857428.281                    21857435.504
 112439624.858 8  87615394.79046  21396537.016                    21396543.703
 116424831.060 7  90720707.36545  22154911.680                    22154920.199
 104604314.267 8  81509989.49046  19905520.930                    19905528.641
 127359328.484 6  99240980.16043  24235645.508                    24235654.031
 117753733.029 7  91756196.15145  22407787.383                    22407796.082
 117098782.117 8  91245915.95945  22283142.398                    22283149.242
 11  7 28  0  3  0.0000000  0  8G10G28G17G09G04G20G27G02
 123369033.638 7  96131804.50644  23476338.102                    23476349.246
 114913801.799 8  89543307.63845  21867370.063                    21867377.359
 112471053.299 8  87639884.47746  21402517.602                    21402524.379
 116399897.120 7  90701278.33345  22150166.867                    22150175.559
 104591727.046 8  81500181.28946  19903125.617                    19903133.590
 127395838.705 6  99269429.64243  24242593.727                    24242602.281
 117745408.439 7  91749709.43145  22406202.852                    22406211.984
 117019996.544 8  91184524.69445  22268150.172                    22268157.059
 11  7 28  0  3 30.0000000  0  8G10G28G17G09G04G20G27G02
 123275342.244 6  96058798.34244  23458509.477                    23458519.789
 114966418.927 8  89584307.97545  21877383.164                    21877390.379
 112502575.839 8  87664447.48346  21408516.141                    21408523.387
 116375600.654 7  90682346.04745  22145543.305                    22145551.594
 104579711.336 8  81490818.41146  19900839.250                    19900846.582
 127432841.422 6  99298262.94643  24249635.219                    24249642.602
 117737575.839 7  91743606.06445  22404712.055                    22404721.465
 116941505.743 8  91123363.12645  22253214.320                    22253220.891
 11  7 28  0  4  0.0000000  0  8G10G28G17G09G04G20G27G02
 123181710.124 6  95985838.40944  23440691.258                    23440701.809
 115019408.246 8  89625598.31045  21887466.563                    21887473.832
 112534192.852 8  87689084.10546  21414532.430                    21414539.516
 116351942.449 7  90663911.09145  22141041.477                    22141049.520
 104568267.339 8  81481901.02746  19898661.609                    19898669.145
 127470336.106 6  99327479.53743  24256770.219                    24256778.750
 117730235.616 7  91737886.38545  22403316.156                    22403324.391
 116863311.658 8  91062432.75545  22238334.406                    22238340.590
 11  7 28  0  4 30.0000000  0  8G10G28G17G09G04G20G27G02
 123088140.360 6  95912927.06044  23422885.344                    23422896.102
 115072769.527 8  89667178.49245  21897621.156                    21897628.098
 112565903.557 8  87713793.74146  21420567.289                    21420574.406
 116328922.689 7  90645973.63245  22136660.750                    22136669.465
 104557394.428 8  81473428.64346  19896592.563                    19896600.355
 127508321.907 6  99357078.83843  24263998.906                    24264006.867
 117723387.245 7  91732549.96445  22402012.836                    22402021.309
 116785415.248 8  91001734.34545  22223510.727                    22223517.398
 11  7 28  0  5  0.0000000  0  8G10G28G17G09G04G20G27G02
 122994636.582 6  95840067.13643  23405091.570                    23405102.844
 115126502.812 8  89709048.55645  21907845.992                    21907852.457
 112597707.932 8  87738576.35846  21426619.227                    21426626.281
 116306541.779 7  90628533.97345  22132401.625                    22132410.434
 104547092.340 8  81465401.06046  19894632.055                    19894639.652
 127546798.226 6  99387060.35943  24271320.188                    24271328.355
 117717030.709 7  91727596.79545  22400803.141                    22400811.836
 116707818.015 8  90941269.04645  22208744.617                    22208751.172
 11  7 28  0  5 30.0000000  0  8G10G28G17G09G04G20G27G02
 122901201.605 6  95767260.80143  23387311.133                    23387321.844
 115180607.688 7  89751208.16745  21918142.297                    21918149.148
 112629605.100 8  87763431.27846  21432689.195                    21432696.203
 116284800.208 7  90611592.49245  22128264.367                    22128272.887
 104537360.094 8  81457817.50546  19892780.117                    19892787.938
 127585764.040 6  99417423.32543  24278735.586                    24278743.656
 117711165.417 7  91723026.42145  22399686.492                    22399695.188
 116630520.819 8  90881037.55045  22194035.359                    22194041.820
 11  7 28  0  6  0.0000000  0  8G10G28G17G09G04G20G27G02
 122807838.482 6  95694510.46843  23369544.953                    23369555.352
 115235083.940 8  89793657.15845  21928508.352                    21928516.008
 112661595.129 8  87788358.56146  21438776.492                    21438783.652
 116263698.637 7  90595149.71745  22124249.094                    22124257.797
 104528197.363 8  81450677.72846  19891036.367                    19891043.934
 127625218.458 6  99448167.00543  24286243.352                    24286251.563
 117705791.106 7  91718838.63045  22398664.445                    22398673.004
 116553525.011 8  90821040.90145  22179383.117                    22179389.844
 11  7 28  0  6 30.0000000  0  8G10G28G17G09G04G20G27G02
 122714550.788 6  95621818.90643  23351792.477                    23351803.043
 115289931.498 7  89836395.46845  21938945.875                    21938952.750
 112693677.653 8  87813357.92546  21444881.539                    21444888.750
 116243237.228 7  90579205.75145  22120355.352                    22120364.340
 104519603.803 8  81443981.45646  19889400.969                    19889408.477
 127665160.763 6  99479290.86443  24293843.977                    24293852.902
 117700907.929 7  91715033.54545  22397735.047                    22397743.789
 116476832.038 8  90761280.23045  22164789.070                    22164795.422
 11  7 28  0  7  0.0000000  0  8G10G28G17G09G04G20G27G02
 122621341.465 6  95549188.37743  23334055.484                    23334065.723
 115345150.789 7  89879423.44745  21949453.383                    21949461.180
 112725852.744 8  87838429.41446  21451004.586                    21451011.281
 116223416.314 7  90563760.88645  22116583.320                    22116592.063
 104511579.152 8  81437728.48846  19887873.680                    19887881.602
 127705590.273 6  99510794.34343  24301537.328                    24301545.715
 117696515.453 7  91711610.82445  22396898.945                    22396907.602
 116400443.301 8  90701756.63345  22150252.930                    22150259.332
 11  7 28  0  7 30.0000000  0  8G10G28G17G09G04G20G27G02
 122528213.452 7  95476621.22444  23316333.781                    23316343.465
 115400741.333 7  89922740.68945  21960032.180                    21960039.773
 112758119.623 8  87863572.42946  21457144.539                    21457151.637
 116204235.974 7  90548815.15345  22112933.539                    22112942.242
 104504122.286 8  81431917.95946  19886454.898                    19886462.695
 127746505.857 6  99542676.61643  24309323.945                    24309331.867
 117692613.078 7  91708570.01145  22396156.602                    22396165.035
 116324359.799 8  90642470.87445  22135774.602                    22135781.227
 11  7 28  0  8  0.0000000  0  8G10G28G17G09G04G20G27G02
 122435170.252 7  95404120.13944  23298628.719                    23298638.191
 115456702.994 7  89966347.13945  21970681.266                    21970688.539
 112790478.120 8  87888786.82246  21463302.586                    21463309.637
 116185696.710 7  90534368.95145  22109405.750                    22109414.293
 104497232.981 8  81426549.67946  19885144.297                    19885151.914
 127787906.723 6  99574937.00143  24317202.328                    24317210.645
 117689200.840 7  91705911.12245  22395507.461                    22395515.875
 116248583.018 8  90583424.11745  22121354.531                    22121361.344
 11  7 28  0  8 30.0000000  0  8G10G28G17G09G04G20G27G02
 122342214.963 7  95331687.57044  23280940.055                    23280949.875
 115513035.707 7  90010242.71645  21981400.906                    21981408.301
 112822927.927 8  87914072.38246  21469477.227                    21469484.246
 116167798.810 7  90520422.52145  22105999.672                    22106008.117
 104490910.787 8  81421623.30546  19883940.719                    19883948.219
 127829792.047 6  99607574.92943  24325172.828                    24325181.074
 117686278.425 7  91703633.92245  22394951.133                    22394959.840
 116173114.087 8  90524617.25245  22106993.359                    22107000.066
 11  7 28  0  9  0.0000000  0  8G10G28G17G09G04G20G27G02
 122249350.811 6  95259326.02744  23263267.844                    23263278.641
 115569739.256 7  90054427.25145  21992191.367                    21992198.910
 112855469.310 8  87939429.29846  21475669.656                    21475676.648
 116150542.610 7  90506976.10245  22102715.867                    22102724.715
 104485154.834 8  81417138.16546  19882845.594                    19882853.254
 127872160.850 6  99640589.51043  24333235.141                    24333242.871
 117683845.429 7  91701738.07845  22394487.953                    22394496.871
 116097954.036 8  90466051.06745  22092691.094                    22092697.852
 11  7 28  0  9 30.0000000  0  8G10G28G17G09G04G20G27G02
 122156581.377 6  95187038.29044  23245614.430                    23245624.699
 115626813.572 7  90098900.70045  22003052.328                    22003059.602
 112888101.823 8  87964857.21346  21481879.227                    21481886.023
 116133928.282 7  90494029.84245  22099554.375                    22099562.996
 104479964.992 8  81413094.13246  19881858.102                    19881865.586
 127915012.422 6  99673980.33043  24341389.133                    24341397.809
 117681901.755 7  91700223.53645  22394118.055                    22394126.684
 116023104.295 8  90407726.67845  22078446.891                    22078454.340
 11  7 28  0 10  0.0000000  0  8G10G28G17G09G04G20G27G02
 122063909.514 6  95114826.59244  23227979.563                    23227990.207
 115684258.158 7  90143662.66445  22013983.859                    22013990.996
 112920824.863 8  87990355.67946  21488106.414                    21488113.516
 116117955.617 7  90481583.59345  22096515.219                    22096523.418
 104475339.735 8  81409490.04746  19880977.953                    19880985.918
 127958345.486 6  99707746.35843  24349635.188                    24349643.773
 117680446.432 7  91699089.51445  22393841.203                    22393849.949
 115948565.618 8  90349644.67946  22064262.664                    22064269.844
 11  7 28  0 10 30.0000000  0  8G10G28G17G09G04G20G27G02
 121971338.769 6  95042693.68944  23210364.203                    23210374.113
 115742072.841 7  90188713.01945  22024985.188                    22024992.734
 112953638.793 8  88015924.96246  21494350.789                    21494357.984
 116102624.982 7  90469637.60445  22093597.688                    22093606.789
 104471278.880 8  81406325.75746  19880205.008                    19880212.637
 128002159.108 6  99741886.80243  24357973.031                    24357980.953
 117679479.174 7  91698335.80645  22393657.008                    22393666.137
 115874339.674 8  90291806.36846  22050138.203                    22050144.781
 11  7 28  0 11  0.0000000  0  8G10G28G17G09G04G20G27G02
 121878872.301 6  94970642.04844  23192767.594                    23192778.109
 115800257.704 7  90234051.82545  22036057.992                    22036065.016
 112986542.755 7  88041564.40246  21500611.938                    21500619.383
 116087936.350 7  90458191.88745  22090802.430                    22090811.273
 104467781.783 8  81403600.76146  19879539.539                    19879547.109
 128046452.402 6  99776401.03643  24366401.609                    24366410.055
 117678999.720 7  91697962.19945  22393565.945                    22393574.742
 115800427.452 8  90234212.51245  22036073.016                    22036079.703
 11  7 28  0 11 30.0000000  0  8G10G28G17G09G04G20G27G02
 121786513.226 6  94898674.09744  23175191.828                    23175202.535
 115858812.506 7  90279678.91045  22047200.453                    22047207.625
 113019536.918 7  88067274.12646  21506890.688                    21506897.594
 116073889.931 7  90447246.59945  22088129.836                    22088138.449
 104464847.775 8  81401314.52846  19878981.188                    19878988.910
 128091224.382 6  99811288.23043  24374921.359                    24374929.199
 117679007.711 7  91697968.41945  22393567.945                    22393576.480
 115726830.211 8  90176864.08845  22022067.930                    22022074.145
 11  7 28  0 12  0.0000000  0  8G10G28G17G09G04G20G27G02
 121694264.715 6  94826792.26644  23157638.344                    23157648.324
 115917736.489 7  90325593.65145  22058413.461                    22058421.152
 113052621.004 8  88093053.91546  21513186.461                    21513193.605
 116060485.557 7  90436801.59945  22085579.039                    22085587.785
 104462475.641 8  81399466.12746  19878529.711                    19878537.559
 128136473.715 6  99846547.41843  24383531.531                    24383539.797
 117679502.490 7  91698353.95645  22393662.063                    22393670.324
 115653549.055 8  90119761.96745  22008123.078                    22008129.109
 11  7 28  0 12 30.0000000  0  8G10G28G17G09G04G20G27G02
 121602130.270 7  94754999.31844  23140105.344                    23140115.223
 115977029.760 7  90371796.15945  22069697.078                    22069703.848
 113085794.680 8  88118903.51646  21519499.375                    21519506.277
 116047723.338 7  90426856.97945  22083150.359                    22083159.148
 104460665.156 8  81398055.37146  19878185.148                    19878193.051
 128182199.601 6  99882177.97243  24392232.922                    24392241.004
 117680483.633 7  91699118.48445  22393848.461                    22393857.559
 115580585.005 8  90062906.93546  21994238.586                    21994244.715
 11  7 28  0 13  0.0000000  0  9G10G28G12G17G09G04G20G27G02
 121510113.628 7  94683298.10644  23122595.469                    23122605.027
 116036692.234 7  90418286.35245  22081049.977                    22081057.309
 129482227.03316 100895301.68753  24639656.953                    24639665.141
 113119058.480 7  88144823.35646  21525828.813                    21525836.387
 116035603.672 7  90417413.06945  22080844.422                    22080852.473
 104459415.847 8  81397081.89346  19877947.609                    19877955.285
 128228401.473 6  99918179.38043  24401025.352                    24401033.727
 117681951.051 7  91700261.91145  22394128.078                    22394136.648
 115507939.714 8  90006300.29046  21980414.219                    21980420.961
 11  7 28  0 13 30.0000000  0  9G10G28G12G17G09G04G20G27G02
 121418217.614 7  94611690.92344  23105107.914                    23105117.789
 116096724.115 7  90465064.39045  22092473.375                    22092481.543
 129385336.676 6 100819802.75643  24621218.125                    24621227.086
 113152412.090 7  88170813.15846  21532175.922                    21532183.332
 116024126.546 7  90408469.84445  22078660.211                    22078668.805
 104458726.589 8  81396544.81946  19877816.422                    19877824.043
 128275077.926 6  99954550.66443  24409907.555                    24409915.629
 117683903.982 7  91701783.67045  22394499.633                    22394508.074
 115435614.117 8  89949942.75246  21966651.219                    21966657.340
 11  7 28  0 14  0.0000000  0  9G10G28G12G17G09G04G20G27G02
 121326444.954 7  94540179.84744  23087644.195                    23087653.066
 116157123.800 7  90512129.01445  22103967.336                    22103975.031
 129288425.560 6 100744287.64343  24602776.711                    24602785.535
 113185854.539 7  88196872.18846  21538539.578                    21538547.133
 116013291.094 7  90400026.62245  22076598.063                    22076606.980
 104458595.869 8  81396442.96146  19877791.836                    19877799.480
 128322227.388 6  99991290.47342  24418880.031                    24418887.973
 117686341.430 7  91703682.97245  22394963.398                    22394972.086
 115363608.891 8  89893834.84646  21952949.016                    21952955.223
 11  7 28  0 14 30.0000000  0  9G10G28G12G17G09G04G20G27G02
 121234799.437 7  94468767.86444  23070204.555                    23070214.395
 116217891.253 7  90559480.22545  22115531.063                    22115538.656
 129191495.587 6 100668757.80844  24584331.734                    24584340.273
 113219386.158 7  88223000.71146  21544920.547                    21544927.934
 116003097.526 7  90392083.57545  22074658.391                    22074667.285
 104459023.476 8  81396776.17546  19877872.898                    19877880.441
 128369848.789 6 100028397.97642  24427942.086                    24427950.164
 117689262.978 7  91705959.47945  22395519.055                    22395528.047
 115291925.348 8  89837977.60146  21939308.078                    21939314.031
 11  7 28  0 15  0.0000000  0  9G10G28G12G17G09G04G20G27G02
 121143284.190 6  94397457.41444  23052789.047                    23052799.230
 116279026.126 7  90607117.74245  22127164.703                    22127172.434
 129094548.160 6 100593214.38144  24565883.164                    24565892.328
 113253006.511 7  88249198.37946  21551318.586                    21551326.133
 115993545.423 7  90384640.37945  22072840.430                    22072849.223
 104460008.245 8  81397543.53546  19878060.445                    19878067.887
 128417941.136 6 100065872.53442  24437093.078                    24437102.047
 117692668.006 7  91708612.73445  22396167.313                    22396175.520
 115220564.289 8  89782371.64646  21925728.375                    21925734.738
 11  7 28  0 15 30.0000000  0  9G10G28G12G17G09G04G20G27G02
 121051902.612 6  94326251.09944  23035400.430                    23035410.016
 116340528.194 7  90655041.36345  22138868.055                    22138875.785
 128997584.746 7 100517658.48544  24547431.898                    24547441.160
 113286715.328 7  88275464.97346  21557732.883                    21557740.566
 115984634.681 7  90377696.93445  22071145.016                    22071153.934
 104461549.267 8  81398744.35246  19878353.898                    19878361.090
 128466503.107 6 100103713.02542  24446334.680                    24446342.785
 117696555.855 7  91711642.21345  22396906.508                    22396915.848
 115149526.861 8  89727017.87046  21912210.086                    21912216.695
 11  7 28  0 16  0.0000000  0  9G10G28G12G17G09G04G20G27G02
 120960658.000 6  94255151.51944  23018036.609                    23018046.711
 116402396.929 7  90703250.70445  22150641.375                    22150649.309
 128900607.295 7 100442091.67144  24528977.977                    24528986.727
 113320512.672 7  88301800.54446  21564164.523                    21564171.965
 115976365.346 7  90371253.30545  22069571.773                    22069580.191
 104463645.590 8  81400377.85846  19878752.523                    19878759.902
 128515533.470 6 100141918.46642  24455665.195                    24455673.379
 117700925.911 7  91715047.43345  22397738.508                    22397747.523
 115078814.040 8  89671917.03746  21898753.922                    21898760.648
 11  7 28  0 16 30.0000000  0  9G10G28G12G17G09G04G20G27G02
 120869553.296 7  94184160.95144  23000699.336                    23000709.496
 116464631.777 7  90751745.34745  22162484.703                    22162492.141
 128803617.454 7 100366515.18744  24510520.625                    24510529.805
 113354398.559 7  88328205.10846  21570612.977                    21570620.441
 115968736.873 7  90365309.05445  22068120.023                    22068128.488
 104466296.168 8  81402443.25046  19879257.055                    19879264.613
 128565031.007 6 100180487.93542  24465084.195                    24465092.184
 117705777.551 7  91718827.90345  22398661.789                    22398670.434
 115008427.182 8  89617070.19446  21885359.969                    21885366.512
 11  7 28  0 17  0.0000000  0  9G10G28G12G17G09G04G20G27G02
 120778592.282 7  94113282.37044  22983390.461                    22983400.793
 116527233.036 7  90800525.49545  22174397.359                    22174404.594
 128706617.004 6 100290930.44844  24492062.258                    24492071.703
 113388372.880 7  88354678.59246  21577077.750                    21577085.398
 115961749.134 7  90359864.05945  22066789.969                    22066798.230
 104469500.677 8  81404940.28246  19879866.852                    19879874.238
 128614994.737 6 100219420.72443  24474591.898                    24474600.324
 117711110.046 7  91722983.08245  22399676.688                    22399685.535
 114938367.232 8  89562478.08146  21872027.797                    21872034.438
 11  7 28  0 17 30.0000000  0  9G10G28G12G17G09G04G20G27G02
 120687777.778 7  94042517.94344  22966108.977                    22966119.113
 116590199.583 7  90849590.28545  22186379.555                    22186386.535
 128609607.712 6 100215338.84144  24473602.508                    24473611.313
 113422435.266 7  88381220.68746  21583559.563                    21583567.332
 115955401.542 7  90354917.89945  22065582.203                    22065590.699
 104473257.353 8  81407867.57046  19880581.859                    19880588.926
 128665422.904 6 100258715.41843  24484187.297                    24484195.805
 117716922.564 7  91727512.29545  22400782.727                    22400791.633
 114868635.400 8  89508141.65846  21858758.234                    21858764.996
 11  7 28  0 18  0.0000000  0  9G10G28G12G17G09G04G20G27G02
 120597113.311 7  93971870.42444  22948856.086                    22948865.832
 116653531.291 7  90898939.60345  22198431.102                    22198438.605
 128512591.016 6 100139741.44243  24455140.852                    24455149.117
 113456585.766 8  88407831.45646  21590058.516                    21590066.047
 115949693.941 7  90350470.43445  22064495.477                    22064504.215
 104477565.572 7  81411224.62946  19881401.227                    19881408.363
 128716314.775 6 100298371.38743  24493872.438                    24493880.535
 117723214.552 7  91732415.12445  22401979.984                    22401988.996
 114799232.258 8  89454061.35446  21845550.859                    21845558.047
 11  7 28  0 18 30.0000000  0  9G10G28G12G17G09G04G20G27G02
 120506602.035 7  93901342.27744  22931632.305                    22931642.016
 116717227.927 7  90948573.30745  22210552.102                    22210559.547
 128415568.783 6 100064139.77643  24436677.391                    24436686.832
 113490824.504 8  88434510.97146  21596573.578                    21596580.840
 115944626.046 7  90346521.42745  22063531.523                    22063540.316
 104482424.249 8  81415010.61646  19882326.000                    19882333.492
 128767668.892 6 100338387.50843  24503646.000                    24503652.801
 117729985.284 7  91737691.00445  22403268.039                    22403276.996
 114730159.050 8  89400238.13546  21832407.063                    21832413.383
 11  7 28  0 19  0.0000000  0  9G10G28G12G17G09G04G20G27G02
 120416247.567 7  93830936.31244  22914438.578                    22914447.477
 116781288.463 7  90998490.55245  22222742.555                    22222750.559
 128318542.852 6  99988535.23543  24418214.078                    24418222.727
 113525151.085 7  88461258.95446  21603105.719                    21603113.250
 115940197.487 7  90343070.60345  22062688.773                    22062697.320
 104487832.494 8  81419224.83546  19883355.039                    19883362.188
 128819484.011 6 100378762.90243  24513505.297                    24513513.555
 117737234.022 7  91743339.34845  22404647.820                    22404656.289
 114661416.761 8  89346672.78046  21819325.734                    21819332.113
 11  7 28  0 19 30.0000000  0  9G10G28G12G17G09G04G20G27G02
 120326053.120 7  93760655.02644  22897274.344                    22897284.066
 116845712.764 7  91048691.24845  22235001.453                    22235009.555
 128221514.787 6  99912929.03943  24399749.813                    24399759.246
 113559565.491 7  88488075.34646  21609654.859                    21609662.289
 115936407.947 7  90340117.71245  22061967.711                    22061976.359
 104493789.122 8  81423866.37246  19884488.516                    19884495.938
 128871758.715 6 100419496.46643  24523452.758                    24523460.617
 117744959.971 7  91749359.55345  22406117.664                    22406127.156
 114593006.311 8  89293365.99446  21806307.406                    21806313.926
 11  7 28  0 20  0.0000000  0  9G10G28G12G17G09G04G20G27G02
 120236021.961 7  93690500.95844  22880142.453                    22880151.414
 116910500.160 7  91099174.87645  22247330.656                    22247338.250
 128124486.331 6  99837322.49743  24381285.953                    24381295.539
 113594067.367 8  88514959.91146  21616220.320                    21616227.707
 115933256.790 7  90337662.27345  22061367.594                    22061376.270
 104500292.724 8  81428934.12646  19885726.180                    19885733.797
 128924491.582 6 100460586.98743  24533487.531                    24533495.441
 117753162.187 7  91755750.87445  22407679.117                    22407687.992
 114524928.628 8  89240318.50946  21793352.609                    21793359.043
 11  7 28  0 20 30.0000000  0  9G10G28G12G17G09G04G20G27G02
 120146157.446 7  93620476.73044  22863041.492                    22863050.219
 116975650.372 7  91149941.22845  22259728.289                    22259736.129
 128027459.438 6  99761717.23143  24362821.992                    24362830.836
 113628657.294 8  88541913.09746  21622802.422                    21622809.824
 115930743.602 7  90335703.93945  22060890.078                    22060898.512
 104507342.672 8  81434427.60046  19887067.953                    19887074.953
 128977681.264 6 100502033.46043  24543609.063                    24543617.367
 117761839.954 7  91762512.75045  22409330.586                    22409339.066
 114457184.976 8  89187531.30446  21780461.398                    21780467.941
 11  7 28  0 21  0.0000000  0  9G10G28G12G17G09G04G20G27G02
 120056462.842 7  93550584.94544  22845973.297                    22845982.813
 117041162.690 7  91200989.72745  22272195.180                    22272203.371
 127930435.709 6  99686114.37643  24344359.258                    24344367.645
 113663335.029 7  88568934.69546  21629401.438                    21629408.965
 115928867.571 7  90334242.08545  22060532.922                    22060541.289
 104514937.726 8  81440345.83646  19888513.188                    19888520.320
 129031326.782 6 100543835.13343  24553817.422                    24553825.801
 117770992.356 7  91769644.48845  22411071.555                    22411080.863
 114389776.091 8  89135004.96546  21767633.883                    21767640.414
 11  7 28  0 21 30.0000000  0  9G10G28G12G17G09G04G20G27G02
 119966941.199 7  93480827.92044  22828937.148                    22828946.754
 117107036.431 7  91252319.85445  22284730.172                    22284737.945
 127833416.972 7  99610515.42343  24325897.953                    24325905.660
 113698099.831 7  88596024.13746  21636017.172                    21636023.867
 115927628.270 7  90333276.40045  22060297.094                    22060305.789
 104523076.476 8  81446687.73746  19890061.813                    19890069.309
 129085426.463 6 100585990.65843  24564111.867                    24564120.180
 117780618.393 7  91777145.28145  22412904.008                    22412912.332
 114322703.106 8  89082740.35346  21754870.430                    21754876.961
 11  7 28  0 22  0.0000000  0  9G10G28G12G17G09G04G20G27G02
 119877596.111 7  93411208.46844  22811935.609                    22811945.230
 117173271.010 7  91303931.14345  22297333.938                    22297341.711
 127736404.894 7  99534921.64143  24307436.086                    24307444.973
 113732952.076 8  88623181.72946  21642649.391                    21642656.594
 115927025.106 7  90332806.39645  22060181.719                    22060191.070
 104531757.677 8  81453452.31846  19891713.828                    19891721.012
 129139978.960 6 100628499.09243  24574493.148                    24574500.953
 117790717.236 7  91785014.50745  22414825.203                    22414834.605
 114255966.342 8  89030737.74746  21742170.938                    21742176.922
 11  7 28  0 22 30.0000000  0  8G10G28G12G17G09G04G27G02
 119788432.196 7  93341730.21944  22794967.914                    22794977.863
 117239867.533 7  91355824.48545  22310007.664                    22310015.102
 127639402.672 7  99459335.56544  24288977.484                    24288986.398
 113767892.922 8  88650408.34946  21649298.703                    21649305.742
 115927058.795 7  90332832.65045  22060188.703                    22060196.977
 104540981.451 8  81460639.68246  19893469.172                    19893476.391
 117801289.045 8  91793252.27945  22416837.398                    22416845.914
 114189568.174 8  88978998.96846  21729535.516                    21729541.406
 11  7 28  0 23  0.0000000  0  8G10G28G12G17G09G04G27G02
 119699451.681 7  93272394.85544  22778035.609                    22778045.242
 117306823.740 7  91407998.09745  22322749.023                    22322756.180
 127542411.076 7  99383757.73444  24270520.609                    24270529.406
 113802921.393 8  88677703.25346  21655964.086                    21655971.047
 115927727.487 7  90333353.69845  22060315.719                    22060324.063
 104550745.729 8  81468248.21446  19895326.852                    19895334.258
 117812332.001 7  91801857.17645  22418938.688                    22418947.336
 114123508.561 8  88927524.00546  21716964.984                    21716971.063
 11  7 28  0 23 30.0000000  0  8G10G28G12G17G09G04G27G02
 119610657.421 7  93203204.60845  22761138.906                    22761148.594
 117374138.900 7  91460451.40145  22335557.695                    22335566.559
 127445431.227 7  99308189.08344  24252065.617                    24252074.875
 113838037.130 8  88705066.15246  21662646.516                    21662653.672
 115929030.362 7  90334368.92445  22060563.953                    22060572.605
 104561048.614 8  81476276.44246  19897287.453                    19897294.938
 117823844.701 7  91810828.09645  22421129.461                    22421138.184
 114057788.119 8  88876313.33546  21704458.570                    21704464.723
 11  7 28  0 24  0.0000000  0  8G10G28G12G17G09G04G27G02
 119522053.099 7  93134162.36845  22744278.055                    22744287.734
 117441812.700 7  91513184.16844  22348436.352                    22348444.367
 127348465.292 6  99232631.26544  24233614.516                    24233622.266
 113873240.077 8  88732497.00246  21669345.258                    21669352.516
 115930966.612 7  90335877.69245  22060932.008                    22060940.848
 104571889.324 8  81484723.76046  19899350.422                    19899357.813
 117835826.370 7  91820164.45345  22423409.273                    22423418.242
 113992407.900 8  88825367.77146  21692017.047                    21692023.012
 11  7 28  0 24 30.0000000  0  8G10G28G12G17G09G04G27G02
 119433641.942 7  93065270.65945  22727454.336                    22727463.891
 117509844.209 7  91566195.66545  22361382.297                    22361390.832
 127251515.217 6  99157085.82144  24215164.688                    24215172.953
 113908530.383 7  88759995.92146  21676060.555                    21676067.805
 115933535.541 7  90337879.46745  22061421.188                    22061429.727
 104583266.531 8  81493589.11846  19901515.445                    19901523.141
 117848276.109 8  91829865.55045  22425778.461                    22425787.066
 113927368.527 8  88774687.79946  21679640.367                    21679646.820
 11  7 28  0 25  0.0000000  0  8G10G28G12G17G09G04G27G02
 119345426.960 7  92996531.82745  22710666.453                    22710676.258
 117578232.655 7  91619485.29945  22374396.305                    22374404.086
 127154582.782 7  99081554.13944  24196718.953                    24196727.566
 113943907.710 7  88787562.64546  21682792.992                    21682800.203
 115936736.238 7  90340373.51945  22062030.211                    22062038.789
 104595178.570 8  81502871.22946  19903782.008                    19903789.594
 117861192.531 7  91839930.28845  22428236.594                    22428245.203
 113862670.634 8  88724273.92046  21667328.586                    21667335.262
 11  7 28  0 25 30.0000000  0  8G10G28G12G17G09G04G27G02
 119257411.828 7  92927948.70145  22693918.617                    22693927.797
 117646977.798 7  91673052.86644  22387478.523                    22387486.098
 127057669.841 6  99006037.65644  24178277.156                    24178285.949
 113979372.329 7  88815197.39746  21689541.227                    21689548.547
 115940568.231 7  90343359.49045  22062759.453                    22062767.688
 104607624.450 8  81512569.32246  19906150.680                    19906158.008
 117874574.889 8  91850358.10045  22430783.078                    22430792.105
 113798315.380 8  88674127.02946  21655082.500                    21655088.813
 11  7 28  0 26  0.0000000  0  8G10G28G12G17G09G04G27G02
 119169599.969 7  92859523.97444  22677208.055                    22677217.918
 117716078.948 7  91726897.86445  22400627.680                    22400635.961
 126960778.321 6  98930537.86144  24159839.320                    24159847.723
 114014924.452 8  88842900.33446  21696306.727                    21696313.906
 115945030.778 7  90346836.81545  22063608.703                    22063617.203
 104620602.984 8  81522682.47246  19908620.453                    19908627.730
 117888422.262 7  91861148.24945  22433418.367                    22433427.070
 113734303.764 8  88624247.90546  21642901.109                    21642907.480
 11  7 28  0 26 30.0000000  0  8G10G28G12G17G09G04G27G02
 119081994.420 7  92791259.99544  22660537.273                    22660546.949
 117785534.959 7  91781019.37245  22413844.836                    22413853.164
 126863909.757 6  98855055.95543  24141405.266                    24141414.191
 114050563.675 8  88870671.14046  21703088.930                    21703096.246
 115950122.500 7  90350804.40645  22064577.680                    22064585.961
 104634112.216 8  81533209.15846  19911190.594                    19911198.641
 117902732.978 8  91872299.44745  22436141.313                    22436150.375
 113670635.722 8  88574636.50846  21630785.523                    21630791.914
 11  7 28  0 27  0.0000000  0  8G10G28G12G17G09G04G27G02
 118994598.718 7  92723159.53644  22643906.148                    22643915.645
 117855345.510 7  91835417.14845  22427129.367                    22427137.066
 126767066.480 6  98779593.78243  24122976.711                    24122985.672
 114086290.215 8  88898509.98246  21709887.188                    21709894.410
 115955842.843 7  90355261.81945  22065666.570                    22065674.234
 104648151.222 8  81544148.65146  19913862.445                    19913870.004
 117917506.396 7  91883811.18645  22438952.617                    22438961.617
 113607312.922 8  88525294.12346  21618735.625                    21618741.797
 11  7 28  0 27 30.0000000  0  8G10G28G12G17G09G04G27G02
 118907416.453 7  92655225.39344  22627315.914                    22627324.922
 117925509.989 7  91890090.70445  22440481.445                    22440489.113
 126670250.155 7  98704152.59543  24104552.969                    24104561.773
 114122104.075 8  88926416.88046  21716702.609                    21716709.652
 115962190.940 7  90360208.41145  22066874.063                    22066882.496
 104662718.652 8  81555499.90846  19916634.742                    19916642.031
 117932741.609 8  91895682.76245  22441851.766                    22441860.336
 113544336.175 8  88476221.39946  21606751.367                    21606757.570
 11  7 28  0 28  0.0000000  0  8G10G28G12G17G09G04G27G02
 118820450.572 7  92587459.86444  22610766.688                    22610775.789
 117996027.617 7  91945039.45744  22453900.094                    22453907.805
 126573462.851 7  98628734.00443  24086135.094                    24086143.594
 114158005.918 8  88954392.33746  21723534.633                    21723541.469
 115969166.079 7  90365643.59445  22068201.414                    22068209.922
 104677813.275 8  81567261.96946  19919507.297                    19919514.910
 117948437.331 8  91907913.18245  22444838.711                    22444847.262
 113481706.190 8  88427418.87146  21594833.391                    21594839.699
 11  7 28  0 28 30.0000000  0  8G10G28G12G17G09G04G27G02
 118733704.664 7  92519865.71644  22594259.859                    22594268.426
 118066897.469 7  92000262.64844  22467386.734                    22467394.527
 126476706.591 7  98553339.58143  24067722.922                    24067731.184
 114193995.202 8  88982435.92446  21730382.836                    21730390.137
 115976767.110 7  90371566.49045  22069648.438                    22069656.469
 104693433.680 8  81579433.72346  19922479.695                    19922487.422
 117964592.507 8  91920501.62245  22447913.117                    22447921.691
 113419423.624 8  88378887.06646  21582981.180                    21582987.719
 11  7 28  0 29  0.0000000  0  8G10G28G12G17G09G04G27G02
 118647181.884 7  92452445.44644  22577795.180                    22577803.973
 118138118.701 7  92055759.65044  22480939.633                    22480947.617
 126379983.148 7  98477970.72444  24049316.914                    24049325.086
 114230071.694 7  89010547.46145  21737248.227                    21737255.383
 115984992.696 7  90377976.04645  22071212.977                    22071221.859
 104709578.006 8  81592013.73446  19925551.656                    19925559.020
 117981205.611 7  91933446.89145  22451074.258                    22451083.203
 113357489.030 8  88330626.39146  21571195.352                    21571202.031
 11  7 28  0 29 30.0000000  0  8G10G28G12G17G09G04G27G02
 118560885.661 7  92385201.71345  22561373.258                    22561382.457
 118209690.666 7  92111529.94244  22494559.148                    22494567.172
 126283294.322 7  98402628.85244  24030917.875                    24030926.543
 114266235.911 7  89038727.36646  21744130.000                    21744137.457
 115993841.894 7  90384871.54245  22072897.406                    22072905.836
 104726245.023 8  81605001.03646  19928723.242                    19928731.137
 117998275.631 7  91946748.18145  22454322.422                    22454331.645
 113295903.261 8  88282637.54446  21559476.023                    21559482.309
 11  7 28  0 30  0.0000000  0  8G10G28G12G17G09G04G27G02
 118474819.232 7  92318137.04145  22544995.664                    22545004.188
 118281612.583 7  92167572.91744  22508245.563                    22508253.441
 126186642.293 7  98327315.63144  24012525.648                    24012533.969
 114302488.178 7  89066975.87446  21751028.602                    21751035.840
 116003313.925 7  90392252.35445  22074699.594                    22074708.047
 104743433.352 8  81618394.55146  19931994.180                    19932001.648
 118015801.455 7  91960404.65345  22457657.922                    22457666.605
 113234667.358 8  88234921.31346  21547823.563                    21547829.512
 11  7 28  0 30 30.0000000  0  8G10G28G12G17G09G04G27G02
 118388986.104 7  92251254.16145  22528662.117                    22528671.199
 118353883.745 7  92223888.05444  22521997.992                    22522006.723
 126090029.189 7  98252032.75644  23994140.875                    23994149.086
 114338827.937 8  89095292.57146  21757944.156                    21757951.273
 116013407.511 7  90400117.48845  22076620.414                    22076628.734
 104761141.661 8  81632193.24046  19935363.969                    19935371.695
 118033782.125 7  91974415.56345  22461079.180                    22461088.543
 113173781.846 8  88187478.10346  21536237.078                    21536243.113
 11  7 28  0 31  0.0000000  0  8G10G28G12G17G09G04G27G02
 118303389.333 7  92184555.44545  22512373.391                    22512382.035
 118426503.079 7  92280474.48644  22535817.195                    22535825.238
 125993456.579 7  98176781.42344  23975763.484                    23975771.965
 114375255.230 8  89123677.43946  21764875.625                    21764883.262
 116024121.191 7  90408465.82345  22078659.023                    22078667.855
 104779367.652 8  81646395.32846  19938832.273                    19938839.789
 118052216.008 7  91988779.61545  22464586.953                    22464596.367
 113113247.106 8  88140308.22846  21524717.781                    21524723.941
 11  7 28  0 31 30.0000000  0  8G10G28G12G17G09G04G27G02
 118218032.481 7  92118043.68944  22496130.180                    22496139.129
 118499469.813 7  92337331.61144  22549702.258                    22549710.598
 125896926.592 7  98101563.29644  23957393.938                    23957402.422
 114411770.487 8  89152130.86746  21771824.406                    21771831.789
 116035454.079 7  90417296.63945  22080815.336                    22080824.262
 104798110.311 8  81661000.00446  19942398.719                    19942406.262
 118071101.883 7  92003495.87345  22468180.938                    22468189.941
 113053064.186 8  88093412.50846  21513265.305                    21513271.441
 11  7 28  0 32  0.0000000  0  8G10G28G12G17G09G04G27G02
 118132918.826 7  92051721.44745  22479933.414                    22479942.789
 118572783.067 7  92394458.76544  22563653.391                    22563661.234
 125800440.944 7  98026379.72744  23939033.719                    23939041.723
 114448373.711 8  89180652.85546  21778789.734                    21778796.676
 116047404.962 8  90426609.01845  22083089.695                    22083098.227
 104817367.865 8  81676005.90146  19946063.477                    19946070.652
 118090438.217 7  92018563.13245  22471860.516                    22471869.484
 112993233.477 8  88046791.22446  21501880.289                    21501886.086
 11  7 28  0 32 30.0000000  0  8G10G28G12G17G09G04G27G02
 118048051.774 7  91985591.36144  22463783.789                    22463792.609
 118646441.993 7  92451855.27144  22577670.633                    22577678.363
 125704002.108 6  97951232.64644  23920681.906                    23920690.445
 114485065.124 8  89209243.55746  21785772.070                    21785778.902
 116059973.107 7  90436402.37045  22085481.531                    22085489.805
 104837139.222 8  81691412.14946  19949826.172                    19949833.414
 118110224.043 7  92033980.66445  22475626.055                    22475634.816
 112933755.937 8  88000445.14546  21490561.750                    21490567.766
 11  7 28  0 33  0.0000000  0  8G10G28G12G17G09G04G27G02
 117963434.695 7  91919656.04845  22447680.867                    22447690.422
 118720445.880 7  92509520.55344  22591753.000                    22591760.938
 125607611.864 6  97876123.44644  23902339.586                    23902348.438
 114521844.811 8  89237903.04046  21792770.977                    21792778.262
 116073157.163 7  90446675.65445  22087989.883                    22087998.703
 104857422.661 8  81707217.43446  19953685.578                    19953692.996
 118130457.968 7  92049747.34345  22479476.063                    22479485.254
 112874632.052 8  87954374.63946  21479310.258                    21479316.559
 11  7 28  0 33 30.0000000  0  8G10G28G12G17G09G04G27G02
 117879070.732 7  91853917.97344  22431626.875                    22431636.430
 118794793.357 7  92567453.59044  22605901.227                    22605909.227
 125511272.317 6  97801053.72944  23884006.289                    23884015.625
 114558712.714 8  89266631.26846  21799786.844                    21799793.867
 116086955.358 7  90457427.48745  22090615.961                    22090624.535
 104878216.254 8  81723420.22946  19957642.297                    19957649.754
 118151138.196 7  92065861.79745  22483410.992                    22483420.277
 112815862.208 8  87908580.00546  21468127.063                    21468132.844
 11  7 28  0 34  0.0000000  0  8G10G28G12G17G09G04G27G02
 117794963.491 7  91788379.92545  22415622.180                    22415631.422
 118869483.996 7  92625654.01244  22620114.313                    22620122.105
 125414985.368 6  97726025.00444  23865683.414                    23865692.086
 114595669.090 8  89295428.41446  21806819.211                    21806826.117
 116101366.550 8  90468656.98145  22093358.367                    22093366.938
 104899518.649 8  81740019.49146  19961695.875                    19961703.680
 118172263.831 7  92082323.32545  22487431.891                    22487440.215
 112757447.520 8  87863062.11546  21457011.086                    21457017.266
 11  7 28  0 34 30.0000000  0  8G10G28G12G17G09G04G27G02
 117711116.300 7  91723044.52744  22399666.898                    22399675.637
 118944516.739 7  92684121.00645  22634392.719                    22634400.793
 125318753.082 6  97651038.87244  23847371.258                    23847379.398
 114632714.514 8  89324294.97446  21813868.594                    21813875.926
 116116389.838 7  90480363.42845  22096216.867                    22096225.832
 104921328.374 8  81757014.08146  19965846.117                    19965853.969
 118193833.638 7  92099130.95545  22491536.453                    22491545.605
 112699388.610 8  87817821.46846  21445962.805                    21445969.164
 11  7 28  0 35  0.0000000  0  8G10G28G12G17G09G04G27G02
 117627532.411 7  91657914.27144  22383761.242                    22383770.246
 119019890.619 7  92742853.82444  22648735.695                    22648744.227
 125222577.523 7  97576096.93644  23829069.586                    23829078.387
 114669848.317 7  89353230.38246  21820934.883                    21820942.484
 116132023.342 7  90492545.37645  22099191.727                    22099200.320
 104943643.526 8  81774402.51846  19970092.820                    19970100.133
 118215846.058 7  92116283.48345  22495725.688                    22495733.734
 112641685.818 8  87772858.30546  21434982.352                    21434988.602
 11  7 28  0 35 30.0000000  0  8G10G28G12G17G09G04G27G02
 117544214.867 7  91592991.55645  22367906.266                    22367915.289
 119095604.782 7  92801851.78844  22663143.477                    22663152.102
 125126460.549 7  97501200.64144  23810779.547                    23810787.750
 114707070.763 8  89382234.85746  21828018.211                    21828025.242
 116148265.501 7  90505201.58445  22102282.805                    22102291.277
 104966462.348 8  81792183.42146  19974435.047                    19974442.805
 118238299.325 7  92133779.52045  22499997.938                    22500006.789
 112584339.512 8  87728172.92646  21424069.313                    21424075.594
 11  7 28  0 36  0.0000000  0  8G10G28G12G17G09G04G27G02
 117461167.289 7  91528279.20845  22352102.984                    22352111.609
 119171657.972 7  92861113.94144  22677616.125                    22677624.586
 125030404.500 7  97426351.84144  23792500.336                    23792508.277
 114744382.007 8  89411308.51946  21835118.281                    21835125.793
 116165115.462 8  90518331.42145  22105489.391                    22105497.609
 104989783.355 8  81810355.64646  19978872.820                    19978880.801
 118261192.182 7  92151618.10345  22504354.633                    22504363.379
 112527350.493 8  87683765.95246  21413225.172                    21413230.621
 11  7 28  0 36 30.0000000  0  8G10G28G12G17G09G04G27G02
 117378392.489 7  91463779.41745  22336351.938                    22336360.027
 119248049.132 7  92920639.44344  22692153.156                    22692161.000
 124934411.381 7  97351552.05744  23774233.273                    23774242.066
 114781782.073 8  89440451.40046  21842235.445                    21842242.801
 116182571.368 8  90531933.40845  22108811.328                    22108819.359
 105013604.482 8  81828917.56046  19983406.102                    19983413.453
 118284523.039 7  92169797.98745  22508793.797                    22508802.723
 112470718.988 8  87639637.55946  21402448.055                    21402454.438
 11  7 28  0 37  0.0000000  0  8G10G28G12G17G09G04G27G02
 117295894.371 7  91399495.21645  22320652.969                    22320661.906
 119324777.522 7  92980427.74444  22706754.180                    22706761.961
 124838483.068 7  97276802.81944  23755978.961                    23755986.734
 114819271.782 7  89469664.14846  21849369.484                    21849376.977
 116200631.809 7  90546006.47345  22112247.961                    22112256.684
 105037924.309 8  81847868.07146  19988033.883                    19988041.355
 118308290.680 7  92188318.20645  22513316.750                    22513325.246
 112414446.010 8  87595788.53846  21391739.867                    21391745.410
 11  7 28  0 37 30.0000000  0  8G10G28G12G17G09G04G27G02
 117213676.280 7  91335429.23345  22305006.242                    22305016.086
 119401842.148 7  93040478.03544  22721419.141                    22721426.922
 124742621.682 7  97202105.69044  23737737.203                    23737745.094
 114856851.090 7  89498946.71746  21856520.492                    21856528.016
 116219295.643 7  90560549.71245  22115799.766                    22115808.121
 105062741.269 8  81867205.95446  19992756.477                    19992764.344
 118332493.676 7  92207177.66045  22517922.547                    22517931.020
 112358532.053 8  87552219.26946  21381099.664                    21381105.750
 11  7 28  0 38  0.0000000  0  8G10G28G12G17G09G04G27G02
 117131741.178 7  91271583.77745  22289415.141                    22289424.453
 119479242.026 7  93100789.55644  22736147.977                    22736155.719
 124646829.411 7  97127462.42844  23719508.602                    23719516.137
 114894519.571 8  89528298.76346  21863688.672                    21863696.059
 116238560.964 7  90575561.63645  22119465.586                    22119474.176
 105088053.306 8  81886929.61146  19997573.148                    19997580.805
 118357130.331 7  92226375.03545  22522610.297                    22522619.387
 112302977.470 8  87508930.03446  21370527.813                    21370533.680
 11  7 28  0 38 30.0000000  0  8G10G28G12G17G09G04G27G02
 117050092.442 7  91207961.44945  22273877.672                    22273886.379
 119556976.120 7  93161361.52144  22750940.469                    22750948.320
 124551108.270 7  97052874.60144  23701292.914                    23701300.930
 114932278.003 7  89557720.89146  21870873.891                    21870881.582
 116258426.625 7  90591041.36545  22123245.750                    22123254.387
 105113859.041 8  81907037.97446  20002483.930                    20002491.301
 118382199.254 7  92245909.23145  22527381.195                    22527389.918
 112247782.706 8  87465921.17246  21360024.930                    21360030.430
 11  7 28  0 39  0.0000000  0  8G10G28G12G17G09G04G27G02
 116968733.684 7  91144565.09245  22258395.578                    22258404.672
 119635043.015 7  93222192.80044  22765795.930                    22765803.887
 124455460.534 6  96978343.96144  23683091.492                    23683099.688
 114970126.422 7  89587213.13046  21878076.320                    21878083.926
 116278890.789 7  90606987.46445  22127140.195                    22127148.922
 105140156.452 8  81927529.45646  20007488.148                    20007495.945
 118407698.791 7  92265778.97245  22532233.273                    22532242.648
 112192948.426 8  87423193.20946  21349589.938                    21349596.059
 11  7 28  0 39 30.0000000  0  8G10G28G12G17G09G04G27G02
 116887667.941 7  91081397.05445  22242969.313                    22242977.590
 119713441.842 7  93283282.71244  22780714.695                    22780723.121
 124359888.347 6  96903872.20044  23664904.906                    23664912.961
 115008065.098 7  89616775.71746  21885295.469                    21885303.246
 116299951.878 7  90623398.68445  22131147.492                    22131156.250
 105166943.774 8  81948402.69446  20012585.227                    20012593.055
 118433627.312 7  92285982.99145  22537167.547                    22537176.348
 112138475.255 8  87380746.63246  21339224.055                    21339229.926
 11  7 28  0 40  0.0000000  0  8G10G28G12G17G09G04G27G02
 116806898.783 7  91018460.10745  22227599.141                    22227608.098
 119792171.586 7  93344630.49844  22795696.336                    22795704.602
 124264393.874 6  96829460.97144  23646733.063                    23646740.762
 115046094.240 7  89646408.78746  21892532.203                    21892540.125
 116321608.148 8  90640273.69245  22135269.078                    22135277.078
 105194219.416 8  81969656.43846  20017775.789                    20017783.266
 118459983.221 7  92306520.03345  22542183.008                    22542192.113
 112084363.513 8  87338581.68046  21328926.945                    21328932.949
 11  7 28  0 40 30.0000000  0  8G10G28G12G17G09G04G27G02
 116726428.990 7  90955756.44345  22212287.070                    22212295.629
 119871231.206 7  93406235.31844  22810740.633                    22810749.102
 124168979.143 6  96755111.85544  23628576.031                    23628584.250
 115084213.860 7  89676112.36146  21899786.188                    21899794.363
 116343858.069 7  90657611.27645  22139503.078                    22139511.578
 105221981.301 8  81991289.08646  20023058.883                    20023066.434
 118486764.904 7  92327388.84645  22547279.055                    22547288.203
 112030613.530 8  87296698.61946  21318698.313                    21318704.758
 11  7 28  0 41  0.0000000  0  8G10G28G12G17G09G04G27G02
 116646262.043 7  90893288.75545  22197031.367                    22197040.141
 119950619.722 7  93468096.40044  22825847.734                    22825856.777
 124073646.383 7  96680826.66244  23610434.672                    23610443.047
 115122424.386 7  89705886.75446  21907057.422                    21907065.051
 116366700.238 7  90675410.37845  22143849.531                    22143858.516
 105250227.876 8  82013299.40246  20028433.750                    20028441.313
 118513970.939 7  92348588.32545  22552456.219                    22552465.539
 111977226.093 8  87255098.06746  21308539.008                    21308545.176
 11  7 28  0 41 30.0000000  0  8G10G28G12G17G09G04G27G02
 116566401.265 7  90831059.63645  22181834.227                    22181842.391
 120030335.823 7  93530212.74544  22841017.852                    22841026.207
 123978397.555 6  96606606.88244  23592309.406                    23592317.578
 115160725.759 7  89735731.95545  21914346.063                    21914353.582
 116390132.600 7  90693669.35345  22148308.836                    22148317.188
 105278957.089 8  82035685.81246  20033900.945                    20033908.316
 118541599.443 7  92370116.98945  22557714.508                    22557723.137
 111924201.124 8  87213779.94846  21298449.070                    21298454.570
 11  7 28  0 42  0.0000000  0  8G10G28G12G17G09G04G27G02
 116486850.057 7  90769071.74144  22166695.922                    22166704.109
 120110378.459 7  93592583.55344  22856249.695                    22856258.215
 123883234.652 7  96532454.03544  23574200.188                    23574208.387
 115199118.086 7  89765648.02246  21921651.758                    21921659.816
 116414153.281 7  90712386.76045  22152879.641                    22152888.586
 105308166.842 8  82058446.66146  20039459.039                    20039466.914
 118569648.969 7  92391973.72845  22563051.352                    22563060.324
 111871539.222 8  87172744.74646  21288427.313                    21288433.293
 11  7 28  0 42 30.0000000  0  8G10G28G12G17G09G04G27G02
 116407611.471 7  90707327.44145  22151617.352                    22151625.926
 120190746.054 7  93655207.56644  22871542.422                    22871551.465
 123788160.288 7  96458370.15744  23556108.914                    23556116.738
 115237601.945 7  89795635.40646  21928975.422                    21928982.906
 116438760.758 7  90731561.41445  22157562.695                    22157571.230
 105337855.579 8  82081580.74046  20045108.602                    20045116.551
 118598117.881 7  92414157.26345  22568469.250                    22568477.914
 111819240.926 8  87131992.86746  21278475.563                    21278481.313
 11  7 28  0 43  0.0000000  0  8G10G28G12G17G09G04G27G02
 116328688.643 7  90645829.18945  22136598.469                    22136607.059
 120271437.913 7  93718084.27044  22886898.508                    22886906.488
 123693176.551 7  96384356.94244  23538033.125                    23538042.180
 115276177.384 7  89825694.16746  21936316.180                    21936323.402
 116463953.111 7  90751191.81645  22162356.438                    22162364.402
 105368021.479 8  82105086.64146  20050849.031                    20050857.031
 118627004.294 7  92436666.11045  22573965.859                    22573974.656
 111767306.380 8  87091524.43346  21268592.742                    21268598.656
 11  7 28  0 43 30.0000000  0  8G10G28G12G17G09G04G27G02
 116250085.057 7  90584579.70745  22121641.117                    22121649.422
 120352452.528 7  93781212.47544  22902315.156                    22902323.133
 123598285.643 7  96310416.06044  23519976.094                    23519984.422
 115314845.044 8  89855824.77646  21943673.859                    21943681.750
 116489728.433 7  90771276.48245  22167261.172                    22167269.395
 105398662.522 8  82128962.77846  20056680.000                    20056687.617
 118656306.471 7  92459498.94545  22579542.039                    22579550.875
 111715736.293 8  87051339.98846  21258779.180                    21258785.027
 11  7 28  0 44  0.0000000  0  8G10G28G12G17G09G04G27G02
 116171803.725 7  90523581.31445  22106744.727                    22106753.215
 120433789.040 7  93844591.51544  22917792.836                    22917800.625
 123503489.334 7  96236548.90344  23501937.070                    23501945.469
 115353604.430 7  89886026.87346  21951049.734                    21951057.301
 116516084.912 7  90791813.97745  22172276.781                    22172285.207
 105429776.494 8  82153207.43846  20062600.922                    20062608.238
 118686022.593 7  92482654.31645  22585196.703                    22585205.746
 111664530.757 8  87011439.61446  21249035.188                    21249040.980
 11  7 28  0 44 30.0000000  0  8G10G28G12G17G09G04G27G02
 116093848.304 7  90462836.88645  22091909.539                    22091918.668
 120515445.894 7  93908220.15444  22933331.516                    22933339.883
 123408790.378 7  96162757.59944  23483916.516                    23483924.398
 115392456.121 7  89916300.89245  21958442.930                    21958450.504
 116543020.896 7  90812803.05645  22177402.594                    22177410.730
 105461361.863 8  82177819.41946  20068611.125                    20068619.141
 118716151.052 7  92506130.99345  22590930.094                    22590939.172
 111613690.226 8  86971823.65746  21239360.313                    21239366.492
 11  7 28  0 45  0.0000000  0  8G10G28G12G17G09G04G27G02
 116016222.443 7  90402349.26445  22077137.867                    22077147.297
 120597422.214 7  93972097.76044  22948931.094                    22948939.371
 123314190.753 7  96089043.68644  23465914.461                    23465922.750
 115431400.672 7  89946647.26745  21965853.953                    21965861.566
 116570534.635 7  90834242.32145  22182638.438                    22182646.914
 105493416.964 8  82202797.42646  20074710.852                    20074718.594
 118746690.411 7  92529927.85945  22596741.641                    22596750.082
 111563215.192 8  86932492.51046  21229755.273                    21229761.395
 11  7 28  0 45 30.0000000  0  8G10G28G12G17G09G04G27G02
 115938928.767 7  90342120.48945  22062429.688                    22062438.453
 120679716.553 7  94036223.14944  22964590.844                    22964599.563
 123219692.695 7  96015408.90344  23447932.633                    23447940.184
 115470437.765 7  89977065.75445  21973282.555                    21973290.203
 116598623.476 7  90856129.72445  22187983.391                    22187991.832
 105525939.326 8  82228139.53346  20080899.625                    20080907.215
 118777638.462 7  92554043.19345  22602630.852                    22602640.344
 111513105.782 8  86893446.25746  21220220.109                    21220225.898
 11  7 28  0 46  0.0000000  0  8G10G28G12G17G09G04G27G02
 115861971.040 7  90282153.47745  22047785.453                    22047794.336
 120762327.966 7  94100595.62244  22980311.391                    22980320.047
 123125298.438 7  95941855.01144  23429969.766                    23429977.707
 115509568.302 7  90007557.07045  21980728.781                    21980736.219
 116627286.187 7  90878464.29245  22193437.797                    22193446.129
 105558927.518 8  82253844.62346  20087177.516                    20087185.020
 118808993.935 7  92578475.98345  22608597.836                    22608606.758
 111463362.645 8  86854685.40746  21210753.758                    21210759.566
 11  7 28  0 46 30.0000000  0  8G10G28G12G17G09G04G27G02
 115785351.693 7  90222450.14745  22033204.852                    22033213.602
 120845254.604 7  94165213.72144  22996091.750                    22996100.477
 123031009.860 7  95868383.47044  23412026.375                    23412035.500
 115548792.029 7  90038120.99445  21988193.000                    21988200.383
 116656520.480 7  90901244.23645  22199000.953                    22199008.926
 105592378.788 8  82279910.55146  20093542.813                    20093550.668
 118840754.470 7  92603224.41345  22614642.281                    22614650.656
 111413985.402 8  86816209.67146  21201357.844                    21201363.461
 11  7 28  0 47  0.0000000  0  8G10G28G12G17G09G04G27G02
 115709074.186 7  90163013.17545  22018689.609                    22018698.617
 120928495.840 7  94230076.90744  23011932.219                    23011941.215
 122936829.825 7  95794996.52844  23394105.352                    23394112.965
 115588109.348 7  90068757.84445  21995674.922                    21995682.449
 116686324.385 7  90924468.03945  22204672.438                    22204680.824
 105626291.739 8  82306336.23946  20099996.313                    20100003.723
 118872918.326 7  92628287.11545  22620762.141                    22620771.422
 111364974.830 8  86778019.65146  21192031.297                    21192037.207
 11  7 28  0 47 30.0000000  0  8G10G28G12G17G09G04G27G02
 115633142.100 7  90103845.37145  22004240.109                    22004249.473
 121012050.107 7  94295184.05944  23027832.984                    23027841.250
 122842760.080 7  95721695.48044  23376204.023                    23376211.656
 115627520.717 7  90099468.00545  22003174.438                    22003181.754
 116716695.901 7  90948134.14145  22210451.898                    22210460.359
 105660664.300 8  82333120.06246  20106537.109                    20106544.543
 118905483.980 7  92653662.90545  22626958.953                    22626968.668
 111316331.000 8  86740115.40146  21182774.594                    21182780.477
 11  7 28  0 48  0.0000000  0  8G10G28G12G17G09G04G27G02
 115557558.233 7  90044948.89845  21989857.406                    21989865.949
 121095916.099 7  94360534.09544  23043791.969                    23043800.699
 122748803.169 7  95648482.36044  23358324.758                    23358332.777
 115667026.335 7  90130251.59745  22010692.297                    22010699.613
 116747632.939 7  90972240.90845  22216339.156                    22216347.590
 105695494.280 8  82360260.30946  20113165.086                    20113172.613
 118938449.190 7  92679350.05945  22633232.375                    22633241.457
 111268054.309 8  86702497.23946  21173588.172                    21173593.879
 11  7 28  0 48 30.0000000  0  8G10G28G12G17G09G04G27G02
 115482325.973 7  89986326.40845  21975540.625                    21975549.008
 121180092.352 7  94426125.88044  23059810.234                    23059818.840
 122654961.533 7  95575359.06144  23340467.063                    23340474.902
 115706626.443 7  90161108.82145  22018227.789                    22018235.520
 116779133.793 7  90996787.01045  22222333.578                    22222341.980
 105730779.939 8  82387755.63046  20119879.977                    20119887.414
 118971812.249 7  92705347.20445  22639580.977                    22639590.383
 111220145.076 8  86665165.40946  21164470.836                    21164476.641
 11  7 28  0 49  0.0000000  0  9G10G28G12G17G09G05G04G27G02
 115407448.230 7  89927980.18345  21961291.922                    21961300.688
 121264577.218 7  94491958.19144  23075887.633                    23075895.457
 122561236.671 7  95502326.76044  23322631.055                    23322639.199
 115746320.634 7  90192039.36345  22025781.430                    22025788.980
 116811195.493 7  91021770.12545  22228434.883                    22228443.145
 129574672.60116 100967344.77253  24657244.594                    24657257.895
 105766518.564 8  82415603.91946  20126680.477                    20126688.070
 119005570.656 7  92731652.42745  22646005.227                    22646014.152
 111172602.666 8  86628119.40846  21155424.008                    21155429.801
 11  7 28  0 49 30.0000000  0  9G10G28G12G17G09G05G04G27G02
 115332928.469 7  89869912.88145  21947111.539                    21947119.758
 121349369.906 7  94558030.34144  23092022.984                    23092031.352
 122467631.155 7  95429387.43844  23304818.938                    23304827.348
 115786110.159 7  90223044.19745  22033352.992                    22033360.520
 116843816.547 7  91047189.10745  22234642.047                    22234650.512
 129469690.769 6 100885541.06143  24637268.125                    24637280.137
 105802708.628 8  82443803.98246  20133567.250                    20133575.027
 119039723.177 7  92758264.75645  22652504.117                    22652513.254
 111125428.102 8  86591360.05546  21146446.797                    21146452.727
 11  7 28  0 50  0.0000000  0  9G10G28G12G17G09G05G04G27G02
 115258769.765 7  89812126.92745  21932999.109                    21933007.441
 121434469.355 7  94624341.52744  23108216.508                    23108225.250
 122374147.632 7  95356543.17244  23287029.789                    23287037.754
 115825995.381 7  90254123.58845  22040943.336                    22040950.871
 116876995.021 7  91073042.44445  22240955.883                    22240964.539
 129364626.057 6 100803672.75542  24617273.375                    24617286.781
 105839348.288 8  82472354.37046  20140539.508                    20140547.059
 119074268.109 7  92785182.86645  22659078.273                    22659087.305
 111078621.848 7  86554887.68646  21137540.180                    21137545.781
 11  7 28  0 50 30.0000000  0  9G10G28G12G17G09G05G04G27G02
 115184975.586 7  89754625.02145  21918956.578                    21918965.348
 121519873.737 7  94690890.32544  23124468.508                    23124477.246
 122280788.390 7  95283795.76245  23269264.125                    23269272.125
 115865976.253 7  90285277.50945  22048550.766                    22048558.871
 116910728.442 7  91099328.19445  22247374.945                    22247383.477
 129259481.020 6 100721741.84443  24597265.000                    24597278.082
 105876435.301 8  82501253.34646  20147597.023                    20147604.551
 119109203.297 7  92812405.07545  22665725.844                    22665734.816
 111032183.806 8  86518702.23446  21128703.109                    21128709.273
 11  7 28  0 51  0.0000000  0  9G10G28G12G17G09G05G04G27G02
 115111549.145 7  89697409.68545  21904984.039                    21904992.895
 121605582.041 7  94757675.92244  23140778.422                    23140787.129
 122187555.726 7  95211146.96545  23251522.539                    23251530.418
 115906053.331 7  90316506.38945  22056177.492                    22056185.141
 116945015.100 7  91126045.04345  22253899.500                    22253908.238
 129154258.172 6 100639750.32543  24577242.148                    24577254.852
 105913967.983 8  82530499.58846  20154739.188                    20154746.738
 119144527.244 7  92839930.22445  22672448.188                    22672456.770
 110986114.417 8  86482804.03646  21119936.398                    21119942.137
 11  7 28  0 51 30.0000000  0  9G10G28G12G17G09G05G04G27G02
 115038493.204 7  89640483.02845  21891081.898                    21891090.414
 121691592.697 7  94824697.13044  23157145.344                    23157154.195
 122094451.884 7  95138598.56945  23233805.211                    23233813.453
 115946226.759 7  90347810.34645  22063822.445                    22063829.961
 116979852.456 7  91153191.01845  22260528.930                    22260537.570
 129048960.119 6 100557700.20343  24557203.883                    24557216.953
 105951943.862 8  82560091.17446  20161966.008                    20161972.957
 119180237.568 7  92867756.45145  22679243.625                    22679252.215
 110940413.818 8  86447193.20746  21111239.625                    21111245.527
 11  7 28  0 52  0.0000000  0  9G10G28G12G17G09G05G04G27G02
 114965810.558 7  89583847.25045  21877250.953                    21877259.188
 121777904.120 7  94891952.71644  23173570.023                    23173578.438
 122001479.079 7  95066152.26945  23216113.563                    23216121.332
 115986496.416 7  90379189.29445  22071485.211                    22071492.770
 117015237.904 7  91180764.06845  22267262.570                    22267271.297
 128943588.931 6 100475593.08744  24537152.875                    24537165.355
 105990360.425 8  82590026.16346  20169276.391                    20169283.938
 119216331.905 7  92895881.91245  22686111.938                    22686120.922
 110895081.364 8  86411869.24846  21102613.109                    21102619.027
 11  7 28  0 52 30.0000000  0  9G10G28G12G17G09G05G04G27G02
 114893505.113 7  89527505.39445  21863491.492                    21863500.395
 121864515.078 7  94959441.70044  23190051.945                    23190060.289
 121908639.776 7  94993810.01245  23198446.594                    23198454.367
 116026863.484 7  90410644.12945  22079166.711                    22079174.215
 117051169.704 7  91208762.84045  22274100.242                    22274108.914
 128838147.788 6 100393431.45344  24517088.180                    24517100.430
 106029216.382 8  82620303.53446  20176670.109                    20176677.902
 119252808.804 7  92924305.46945  22693053.672                    22693061.938
 110850118.031 8  86376832.91046  21094057.055                    21094062.773
 11  7 28  0 53  0.0000000  0  9G10G28G12G17G09G05G04G27G02
 114821579.459 7  89471459.48345  21849804.563                    21849813.535
 121951424.036 7  95027162.87844  23206589.813                    23206598.586
 121815936.295 7  94921573.57845  23180805.133                    23180813.254
 116067327.820 7  90442174.75845  22086867.016                    22086874.559
 117087645.175 7  91237185.26745  22281041.031                    22281049.672
 128732639.146 6 100311217.19844  24497010.008                    24497023.359
 106068509.040 8  82650921.18646  20184147.359                    20184155.504
 119289665.893 7  92953025.27645  22700066.602                    22700075.719
 110805523.591 8  86342084.02146  21085570.984                    21085576.656
 11  7 28  0 53 30.0000000  0  9G10G28G12G17G09G05G04G27G02
 114750037.230 7  89415712.33345  21836190.383                    21836199.191
 122038629.820 7  95095115.35844  23223184.430                    23223193.672
 121723370.785 7  94849444.64844  23163191.125                    23163198.563
 116107890.060 7  90473781.68245  22094586.055                    22094593.488
 117124662.433 7  91266029.85945  22288085.289                    22288094.227
 128627065.749 7 100228952.47544  24476920.406                    24476932.531
 106108236.682 8  82681877.79646  20191707.578                    20191715.176
 119326901.395 7  92982039.95745  22707152.305                    22707161.355
 110761298.534 8  86307622.94946  21077155.516                    21077161.023
 11  7 28  0 54  0.0000000  0  9G10G28G12G17G09G05G04G27G02
 114678881.245 7  89360266.17345  21822649.875                    21822658.371
 122126130.873 7  95163297.93644  23239835.969                    23239845.195
 121630945.778 7  94777425.20244  23145602.641                    23145610.840
 116148550.178 7  90505464.86445  22102323.047                    22102330.844
 117162218.824 7  91295294.54745  22295232.227                    22295241.020
 128521430.093 6 100146639.23144  24456817.758                    24456830.355
 106148396.942 8  82713171.50146  20199349.867                    20199357.488
 119364513.321 7  93011347.97345  22714309.930                    22714318.746
 110717442.609 8  86273449.53346  21068810.078                    21068815.434
 11  7 28  0 54 30.0000000  0  9G10G28G12G17G09G05G04G27G02
 114608114.775 7  89305123.50945  21809183.266                    21809191.770
 122213925.815 7  95231709.49744  23256543.234                    23256551.871
 121538663.749 7  94705517.17545  23128042.234                    23128050.156
 116189308.546 7  90537224.60545  22110079.219                    22110086.543
 117200312.128 7  91324977.62545  22302481.156                    22302489.992
 128415734.769 6 100064279.49944  24436703.641                    24436716.637
 106188987.879 8  82744800.79746  20207074.047                    20207081.664
 119402499.463 7  93040947.56545  22721538.570                    22721547.203
 110673956.073 8  86239563.94146  21060534.844                    21060540.207
 11  7 28  0 55  0.0000000  0  9G10G28G12G17G09G05G04G27G02
 114537740.911 7  89250286.79245  21795791.859                    21795800.234
 122302013.166 7  95300348.91744  23273305.453                    23273314.051
 121446526.828 7  94633722.20245  23110509.289                    23110516.836
 116230165.866 7  90569061.44445  22117854.375                    22117862.199
 117238940.399 7  91355077.55045  22309831.930                    22309840.266
 128309982.514 6  99981875.36643  24416579.875                    24416592.156
 106230007.238 8  82776763.92446  20214879.477                    20214886.945
 119440857.880 7  93070837.23545  22728837.969                    22728846.301
 110630839.317 8  86205966.49146  21052329.617                    21052335.305
 11  7 28  0 55 30.0000000  0  9G10G28G12G17G09G05G04G27G02
 114467762.149 7  89195757.93745  21782475.492                    21782483.793
 122390390.958 7  95369214.65744  23290123.000                    23290131.305
 121354536.911 7  94562041.77645  23093004.078                    23093012.086
 116271121.809 7  90600975.13045  22125648.328                    22125655.500
 117278100.145 7  91385591.63045  22317284.047                    22317292.543
 128204175.700 6  99899428.76143  24396445.383                    24396457.504
 106271452.380 8  82809058.83546  20222766.289                    20222774.148
 119479585.879 7  93101014.90145  22736207.898                    22736216.559
 110588090.645 8  86172655.88046  21044194.953                    21044200.238
 11  7 28  0 56  0.0000000  0  9G10G28G12G17G09G05G04G27G02
 114398182.615 7  89141540.17145  21769234.609                    21769243.281
 122479058.311 7  95438306.01444  23306995.891                    23307004.777
 121262697.288 7  94490478.46145  23075527.523                    23075535.449
 116312177.388 7  90632966.44945  22133460.492                    22133468.109
 117317789.925 7  91416518.72545  22324836.508                    22324845.160
 128098317.272 6  99816941.90743  24376301.172                    24376313.504
 106313321.952 8  82841684.47846  20230733.641                    20230741.438
 119518682.073 7  93131479.47145  22743647.406                    22743656.199
 110545712.203 8  86139633.74146  21036130.656                    21036136.074
 11  7 28  0 56 30.0000000  0  9G10G28G12G17G09G05G04G27G02
 114329004.563 7  89087635.24045  21756070.664                    21756078.902
 122568013.309 7  95507621.53543  23323923.672                    23323932.332
 121171009.954 7  94419033.81145  23058079.727                    23058087.656
 116353332.886 8  90665035.64345  22141291.750                    22141299.582
 117358006.963 7  91447856.69245  22332489.422                    22332497.977
 127992409.566 6  99734416.65843  24356147.766                    24356160.227
 106355613.326 8  82874638.79246  20238782.109                    20238789.297
 119558144.157 7  93162229.15245  22751157.016                    22751165.410
 110503703.462 8  86106899.69046  21028136.438                    21028142.422
 11  7 28  0 57  0.0000000  0  9G10G28G12G17G09G05G04G27G02
 114260231.288 7  89034045.72845  21742983.172                    21742991.738
 122657254.721 7  95577160.21344  23340905.789                    23340914.969
 121079477.638 7  94347709.94645  23040661.906                    23040669.734
 116394588.506 7  90697182.83545  22149143.000                    22149150.609
 117398748.785 7  91479603.56745  22340242.438                    22340250.809
 127886455.325 6  99651855.13043  24335984.703                    24335997.387
 106398324.480 8  82907920.21346  20246909.477                    20246916.543
 119597970.090 7  93193262.33744  22758735.109                    22758744.461
 110462064.599 8  86074453.85446  21020213.016                    21020218.473
 11  7 28  0 57 30.0000000  0  9G10G28G12G17G09G05G04G27G02
 114191865.955 7  88980774.09545  21729973.906                    21729982.043
 122746781.047 7  95646920.92143  23357942.063                    23357950.582
 120988102.099 7  94276508.25045  23023274.016                    23023281.336
 116435945.043 7  90729408.68745  22157012.352                    22157019.988
 117440013.083 7  91511757.56945  22348094.953                    22348103.250
 127780457.483 6  99569259.63343  24315813.531                    24315825.977
 106441453.337 8  82941527.11346  20255116.320                    20255124.121
 119638157.878 7  93224577.49645  22766382.352                    22766391.602
 110420795.500 8  86042296.15646  21012359.813                    21012365.281
 11  7 28  0 58  0.0000000  0  9G10G28G12G17G09G05G04G27G02
 114123911.478 7  88927822.59245  21717042.352                    21717050.500
 122836590.621 6  95716902.30943  23375031.906                    23375040.910
 120896886.120 7  94205430.89845  23005916.320                    23005923.758
 116477402.562 7  90761713.21545  22164901.773                    22164909.418
 117481797.282 7  91544316.71045  22356045.539                    22356054.621
 127674418.948 6  99486632.47943  24295634.766                    24295647.563
 106484997.891 8  82975457.94046  20263402.305                    20263410.055
 119678705.184 7  93256172.77645  22774098.781                    22774107.699
 110379896.166 8  86010426.59346  21004576.719                    21004582.254
 11  7 28  0 58 30.0000000  0  9G10G28G12G17G09G05G04G27G02
 114056370.320 7  88875193.17945  21704189.828                    21704198.590
 122926681.845 6  95787103.20043  23392175.891                    23392185.176
 120805831.670 7  94134479.39745  22988589.023                    22988596.395
 116518961.267 7  90794096.58145  22172810.023                    22172817.945
 117524098.913 7  91577279.03145  22364095.531                    22364104.316
 127568341.680 6  99403975.12144  24275449.180                    24275461.469
 106528955.248 8  83009710.42446  20271767.633                    20271775.395
 119719609.712 7  93288046.42545  22781882.602                    22781891.586
 110339366.037 8  85978844.71346  20996863.773                    20996869.598
 11  7 28  0 59  0.0000000  0  9G10G28G12G17G09G05G04G27G02
 113989246.327 7  88822888.81745  21691416.516                    21691424.863
 123017053.041 7  95857522.23143  23409373.328                    23409382.793
 120714941.521 7  94063655.93645  22971292.875                    22971300.637
 116560621.550 7  90826559.10245  22180738.023                    22180745.594
 117566915.499 7  91610642.63345  22372243.594                    22372252.016
 127462228.592 6  99321289.90044  24255256.930                    24255268.055
 106573323.591 8  83044283.16146  20280210.359                    20280218.113
 119760869.255 7  93320196.70944  22789734.172                    22789743.047
 110299205.224 8  85947550.61846  20989221.516                    20989227.117
 11  7 28  0 59 30.0000000  0  9G10G28G12G17G09G05G04G27G02
 113922542.060 7  88770911.51745  21678723.102                    21678731.250
 123107702.923 6  95928158.43843  23426623.094                    23426631.984
 120624217.871 7  93992962.23945  22954029.125                    22954036.461
 116602383.753 7  90859101.05145  22188685.672                    22188693.047
 117610244.165 7  91644405.24345  22380488.547                    22380496.645
 127356082.411 6  99238578.89744  24235057.195                    24235068.719
 106618100.447 8  83079174.21046  20288731.336                    20288739.094
 119802481.726 7  93352622.00345  22797652.875                    22797661.527
 110259413.876 8  85916544.41646  20981649.367                    20981655.117
 11  7 28  1  0  0.0000000  0  9G10G28G12G17G09G05G04G27G02
 113856260.164 7  88719263.33545  21666109.984                    21666118.332
 123198629.680 7  95999010.39243  23443926.523                    23443935.418
 120533663.357 7  93922400.33945  22936796.789                    22936804.375
 116644248.349 7  90891722.79145  22196651.805                    22196658.957
 117654082.487 7  91678564.99945  22388830.539                    22388839.508
 127249905.742 6  99155844.12644  24214852.328                    24214864.234
 106663283.736 8  83114381.96446  20297329.570                    20297336.809
 119844444.909 7  93385320.56445  22805637.781                    22805647.133
 110219991.887 8  85885826.02446  20974148.000                    20974153.566
 11  7 28  1  0 30.0000000  0  9G10G28G12G17G09G05G04G27G02
 113790404.295 8  88667947.11245  21653578.023                    21653585.926
 123289831.588 6  96070076.73243  23461281.867                    23461290.836
 120443280.826 7  93851972.45245  22919597.523                    22919605.316
 116686215.854 8  90924424.72245  22204637.961                    22204645.219
 117698427.975 7  91713119.94945  22397269.555                    22397277.879
 127143701.506 6  99073087.87944  24194641.914                    24194654.328
 106708871.600 8  83149904.97346  20306004.539                    20306012.219
 119886756.618 7  93418290.70945  22813689.695                    22813698.430
 110180939.668 8  85855395.76946  20966716.195                    20966722.254
 11  7 28  1  1  0.0000000  0  9G10G28G12G17G09G05G04G27G02
 113724977.491 7  88616965.23645  21641127.438                    21641135.992
 123381307.692 6  96141356.73443  23478688.781                    23478697.941
 120353072.167 7  93781680.04545  22902430.930                    22902439.156
 116728286.822 8  90957207.27145  22212643.789                    22212651.102
 117743278.299 7  91748068.28945  22405804.195                    22405812.461
 127037472.681 6  98990312.46344  24174427.266                    24174439.145
 106754861.707 8  83185741.42146  20314756.109                    20314763.785
 119929414.866 7  93451530.89144  22821807.242                    22821816.484
 110142257.184 8  85825253.61446  20959355.242                    20959360.992
 11  7 28  1  1 30.0000000  0  9G10G28G12G17G09G05G04G27G02
 113659982.055 7  88566319.49245  21628759.336                    21628767.922
 123473055.863 6  96212848.73043  23496147.977                    23496157.344
 120263039.604 7  93711524.86645  22885298.461                    22885306.348
 116770461.456 7  90990070.61045  22220669.242                    22220676.758
 117788630.322 7  91783407.56045  22414434.391                    22414442.676
 126931221.391 6  98907519.54744  24154208.234                    24154219.793
 106801251.645 8  83221889.41746  20323583.766                    20323591.414
 119972417.008 7  93485039.04444  22829990.250                    22829998.855
 110103943.532 8  85795398.85646  20952064.555                    20952069.969
 11  7 28  1  2  0.0000000  0  9G10G28G12G17G09G05G04G27G02
 113595421.129 7  88516012.33045  21616473.883                    21616482.238
 123565074.627 6  96284551.57243  23513659.008                    23513667.844
 120173185.890 7  93641509.06145  22868200.102                    22868207.645
 116812740.292 7  91023015.14645  22228714.586                    22228722.484
 117834481.312 7  91819135.63345  22423159.438                    22423167.594
 126824950.563 6  98824711.40044  24133986.141                    24133996.512
 106848038.875 8  83258346.99246  20332487.141                    20332495.281
 120015760.903 7  93518813.50645  22838238.336                    22838247.082
 110065999.092 8  85765831.79346  20944843.508                    20944849.328
 11  7 28  1  2 30.0000000  0  9G10G28G12G17G09G05G04G27G02
 113531297.754 8  88466046.11645  21604271.445                    21604279.531
 123657361.966 7  96356463.70143  23531220.141                    23531229.695
 120083513.540 7  93571634.58745  22851135.461                    22851143.371
 116855123.538 7  91056041.03645  22236779.430                    22236787.645
 117880828.928 7  91855250.67044  22431979.133                    22431987.707
 126718662.828 6  98741890.11843  24113758.516                    24113769.914
 106895221.338 8  83295112.54846  20341465.461                    20341473.266
 120059444.307 7  93552852.51445  22846551.227                    22846560.617
 110028423.690 8  85736552.28546  20937692.984                    20937698.648
 11  7 28  1  3  0.0000000  0  9G10G28G12G17G09G05G04G27G02
 113467614.657 7  88416422.96745  21592153.133                    21592160.863
 123749916.698 6  96428584.17244  23548832.914                    23548842.512
 119994024.768 7  93501903.14645  22834106.820                    22834114.336
 116897611.728 7  91089148.70645  22244865.563                    22244872.730
 117927670.288 7  91891750.44145  22440892.945                    22440901.168
 126612361.169 6  98659057.93844  24093530.109                    24093541.352
 106942796.730 8  83332184.27346  20350518.547                    20350526.410
 120103465.157 7  93587154.47144  22854928.086                    22854936.645
 109991217.087 8  85707560.15546  20930612.977                    20930618.613
 11  7 28  1  3 30.0000000  0  9G10G28G12G17G09G05G04G27G02
 113404375.065 7  88367145.41745  21580118.594                    21580127.168
 123842737.024 6  96500911.59444  23566496.195                    23566505.453
 119904722.322 7  93432316.89645  22817113.164                    22817120.414
 116940205.463 7  91122338.60645  22252970.453                    22252978.047
 117975002.889 7  91928632.98345  22449899.703                    22449908.254
 126506048.344 6  98576217.06444  24073299.117                    24073310.793
 106990763.191 8  83369560.72046  20359646.625                    20359654.238
 120147821.256 7  93621717.65644  22863368.836                    22863377.441
 109954379.500 8  85678855.57546  20923603.195                    20923608.695
 11  7 28  1  4  0.0000000  0  9G10G28G12G17G09G05G04G27G02
 113341581.234 7  88318215.21445  21568169.414                    21568178.004
 123935820.978 6  96573444.46243  23584209.852                    23584218.836
 119815608.166 7  93362877.36245  22800155.375                    22800162.844
 116982904.588 7  91155610.63645  22261096.180                    22261103.648
 118022823.852 7  91965896.08245  22458999.883                    22459007.844
 126399726.733 7  98493369.28544  24053066.703                    24053077.684
 107039117.990 8  83407239.78446  20368848.250                    20368855.949
 120192509.693 7  93656539.81345  22871872.117                    22871881.008
 109917909.937 8  85650437.75246  20916663.156                    20916668.785
 11  7 28  1  4 30.0000000  0  9G10G28G12G17G09G05G04G27G02
 113279236.595 7  88269635.02645  21556305.539                    21556314.199
 124029167.530 6  96646181.93243  23601973.227                    23601981.664
 119726685.070 7  93293586.70145  22783233.367                    22783240.672
 117025710.031 7  91188965.50045  22269241.406                    22269249.078
 118071130.752 7  92003537.81645  22468192.016                    22468200.391
 126293399.387 7  98410517.02744  24032833.289                    24032844.520
 107087859.179 8  83445219.93546  20378123.438                    20378130.961
 120237528.616 7  93691619.46745  22880439.438                    22880448.270
 109881809.212 8  85622307.34646  20909793.055                    20909799.297
 11  7 28  1  5  0.0000000  0  9G10G28G12G17G09G05G04G27G02
 113217343.670 7  88221406.83145  21544527.797                    21544536.227
 124122774.658 6  96719122.47143  23619786.000                    23619794.977
 119637955.636 7  93224446.94845  22766348.711                    22766356.480
 117068621.920 7  91222403.32045  22277407.648                    22277415.430
 118119920.528 7  92041555.81945  22477476.469                    22477484.891
 126187068.885 7  98327662.30743  24012599.031                    24012610.020
 107136984.127 8  83483499.11346  20387471.641                    20387479.070
 120282875.559 7  93726954.75044  22889068.500                    22889077.395
 109846076.819 8  85594463.94546  20902993.961                    20902999.281
 11  7 28  1  5 30.0000000  0  9G10G28G12G17G09G05G04G27G02
 113155905.664 7  88173533.11245  21532836.406                    21532844.848
 124216640.579 6  96792264.66043  23637647.766                    23637657.449
 119549422.359 7  93155460.03645  22749501.391                    22749508.969
 117111641.107 8  91255924.75545  22285593.750                    22285601.648
 118169190.401 7  92079947.91745  22486852.188                    22486860.617
 126080738.204 7  98244807.42643  23992364.836                    23992374.820
 107186490.922 8  83522075.82746  20396892.531                    20396900.004
 120328548.256 7  93762543.84844  22897759.727                    22897768.523
 109810712.811 8  85566907.59846  20896264.109                    20896269.652
 11  7 28  1  6  0.0000000  0  9G10G28G12G17G09G05G04G27G02
 113094925.473 7  88126016.13545  21521232.398                    21521240.691
 124310763.656 6  96865607.28543  23655558.703                    23655567.809
 119461087.635 7  93086627.84045  22732691.922                    22732699.168
 117154767.874 7  91289530.01445  22293800.500                    22293808.457
 118218937.698 7  92118712.03445  22496318.867                    22496327.629
 125974410.063 7  98161954.51144  23972131.313                    23972140.770
 107236377.243 8  83560948.28346  20406385.625                    20406392.777
 120374544.590 7  93798385.12645  22906512.813                    22906522.020
 109775716.732 8  85539637.94946  20889605.086                    20889610.434
 11  7 28  1  6 30.0000000  0  9G10G28G12G17G09G05G04G27G02
 113034405.373 7  88078857.65845  21509715.484                    21509723.441
 124405142.069 6  96939148.82343  23673518.742                    23673527.145
 119372953.863 7  93017952.19645  22715920.531                    22715927.906
 117198002.296 7  91323219.14345  22302027.766                    22302035.348
 118269159.451 7  92157845.83644  22505875.992                    22505884.102
 125868087.056 7  98079105.66044  23951898.258                    23951908.688
 107286640.313 8  83600114.30746  20415950.281                    20415958.074
 120420861.678 7  93834476.34344  22915326.672                    22915335.613
 109741088.219 8  85512654.70446  20883015.336                    20883020.551
 11  7 28  1  7  0.0000000  0  9G10G28G12G17G09G05G04G27G02
 112974348.272 7  88032059.96345  21498287.164                    21498295.199
 124499774.137 6  97012888.03943  23691527.125                    23691535.195
 119285023.476 7  92949435.04845  22699188.250                    22699195.566
 117241345.221 8  91356992.84045  22310275.883                    22310283.320
 118319852.995 7  92197347.29545  22515522.422                    22515530.941
 125761772.235 7  97996263.15944  23931667.078                    23931678.039
 107337278.261 8  83639572.44546  20425586.258                    20425594.215
 120467497.554 7  93870815.96645  22924201.250                    22924210.289
 109706827.172 8  85485957.80046  20876495.484                    20876500.813
 11  7 28  1  7 30.0000000  0  9G10G28G12G17G09G05G04G27G02
 112914756.995 7  87985625.24845  21486947.688                    21486955.684
 124594658.421 6  97086823.80043  23709582.438                    23709591.594
 119197299.013 7  92881078.35745  22682494.313                    22682501.973
 117284796.958 8  91390851.33345  22318544.797                    22318552.168
 118371015.475 7  92237214.14045  22525258.672                    22525266.547
 125655468.205 7  97913429.08644  23911438.047                    23911448.965
 107388288.813 8  83679320.92346  20435293.461                    20435300.770
 120514449.918 7  93907402.19344  22933135.656                    22933144.648
 109672933.516 8  85459547.18746  20870045.719                    20870051.375
 11  7 28  1  8  0.0000000  0  9G10G28G12G17G09G05G04G27G02
 112855634.467 8  87939555.80345  21475697.055                    21475704.680
 124689792.981 6  97160954.54943  23727685.828                    23727695.371
 119109783.020 7  92812884.10145  22665840.414                    22665848.059
 117328357.964 8  91424794.95745  22326834.070                    22326841.707
 118422644.180 7  92277444.28945  22535083.000                    22535091.734
 125549177.867 7  97830605.65944  23891210.992                    23891222.512
 107439669.484 8  83719357.80146  20445070.820                    20445078.070
 120561716.189 7  93944233.02344  22942130.258                    22942139.316
 109639406.944 8  85433422.60546  20863665.805                    20863671.199
 11  7 28  1  8 30.0000000  0  9G10G28G12G17G09G05G04G27G02
 112796982.961 7  87893853.37345  21464535.664                    21464543.555
 124785175.562 6  97235278.58643  23745837.602                    23745846.078
 119022477.966 7  92744854.20945  22649226.984                    22649234.453
 117372028.541 7  91458823.96345  22335144.078                    22335151.855
 118474735.753 7  92318035.10845  22544996.195                    22545004.105
 125442903.794 7  97747794.91544  23870988.070                    23870998.684
 107491417.750 8  83759681.11846  20454918.336                    20454925.695
 120609293.571 7  93981306.27144  22951184.461                    22951193.500
 109606246.658 8  85407583.44446  20857355.414                    20857360.895
 11  7 28  1  9  0.0000000  0  9G10G28G12G17G09G05G04G27G02
 112738805.569 7  87848520.39045  21453464.398                    21453472.754
 124880805.137 6  97309795.03943  23764035.383                    23764044.809
 118935386.486 7  92676990.73445  22632654.102                    22632661.660
 117415809.534 7  91492939.00145  22343475.352                    22343483.074
 118527287.667 7  92358984.63845  22554995.789                    22555005.066
 125336649.387 7  97664999.49744  23850768.445                    23850779.051
 107543531.699 8  83800289.37946  20464835.000                    20464842.379
 120657180.275 7  94018620.55744  22960296.648                    22960305.895
 109573453.292 8  85382030.19046  20851115.164                    20851120.516
 11  7 28  1  9 30.0000000  0  9G10G28G12G17G09G05G04G27G02
 112681105.303 7  87803559.18345  21442484.719                    21442493.031
 124976679.846 6  97384502.54943  23782279.102                    23782288.203
 118848511.266 7  92609295.78145  22616122.508                    22616129.855
 117459701.234 8  91527140.32445  22351827.336                    22351834.887
 118580297.277 7  92400290.80445  22565083.344                    22565092.254
 125230417.142 6  97582221.35544  23830552.711                    23830563.242
 107596009.128 8  83841180.86546  20474821.531                    20474828.727
 120705373.956 7  94056174.03944  22969467.602                    22969476.367
 109541026.501 8  85356762.58446  20844944.414                    20844950.227
 11  7 28  1 10  0.0000000  0  9G10G28G12G17G09G05G04G27G02
 112623884.849 8  87758971.85945  21431595.836                    21431603.465
 125072797.858 6  97459399.63043  23800569.688                    23800579.223
 118761854.687 7  92541771.19145  22599631.867                    22599639.590
 117503704.547 7  91561428.61745  22360201.188                    22360208.840
 118633761.593 7  92441951.29145  22575257.383                    22575266.008
 125124210.172 7  97499462.88544  23810342.352                    23810352.684
 107648847.936 8  83882353.96346  20484876.188                    20484884.402
 120753872.164 7  94093964.81944  22978696.375                    22978705.359
 109508965.897 8  85331780.31646  20838843.719                    20838848.914
 11  7 28  1 10 30.0000000  0  9G10G28G12G17G09G05G04G27G02
 112567146.482 7  87714760.19745  21420799.078                    21420807.332
 125169157.436 6  97534484.97243  23818906.438                    23818915.887
 118675419.206 7  92474418.89545  22583183.914                    22583191.395
 117547819.605 7  91595803.98745  22368596.180                    22368603.352
 118687677.603 7  92483963.75445  22585517.438                    22585525.762
 125018030.789 7  97416725.92044  23790136.648                    23790147.172
 107702045.458 8  83923806.58546  20494999.055                    20495006.656
 120802672.464 7  94131990.99144  22987982.930                    22987991.672
 109477271.072 8  85307083.08046  20832812.125                    20832817.480
 11  7 28  1 11  0.0000000  0  9G10G28G12G17G09G05G04G27G02
 112510893.150 7  87670926.47245  21410094.352                    21410102.270
 125265756.525 6  97609756.93143  23837288.922                    23837298.316
 118589207.476 7  92407240.95745  22566778.563                    22566786.000
 117592046.634 7  91630266.61045  22377012.047                    22377019.469
 118742042.455 7  92526325.95445  22595862.313                    22595871.188
 124911882.197 7  97334012.93244  23769937.000                    23769947.387
 107755599.417 8  83965536.94546  20505190.094                    20505197.738
 120851772.197 7  94170250.51544  22997326.375                    22997335.418
 109445941.432 8  85282670.40046  20826850.352                    20826855.898
 11  7 28  1 11 30.0000000  0  9G10G28G12G17G09G05G04G27G02
 112455127.295 8  87627472.60845  21399482.383                    21399490.293
 125362593.448 6  97685214.25143  23855715.781                    23855725.758
 118503222.115 7  92340239.41645  22550415.648                    22550423.535
 117636386.377 7  91664817.06945  22385449.242                    22385457.457
 118796853.039 7  92569035.47245  22606292.633                    22606301.422
 124805767.114 7  97251326.05144  23749743.789                    23749754.617
 107809507.309 8  84007543.09846  20515448.828                    20515456.352
 120901169.033 7  94208741.53244  23006726.094                    23006735.238
 109414977.057 8  85258542.34346  20820958.188                    20820963.633
 11  7 28  1 12  0.0000000  0  9G10G28G12G17G09G05G04G27G02
 112399851.901 8  87584400.92545  21388963.719                    21388972.008
 125459666.779 6  97760855.73643  23874188.258                    23874198.359
 118417465.707 7  92273416.29345  22534097.133                    22534104.809
 117680839.475 7  91699455.82445  22393908.617                    22393916.320
 118852106.710 7  92612090.28945  22616807.133                    22616816.277
 124699688.671 7  97168667.71744  23729558.242                    23729568.391
 107863767.300 8  84049823.61246  20525774.023                    20525781.410
 120950860.798 7  94247462.36744  23016182.211                    23016191.297
 109384377.882 8  85234698.85546  20815135.359                    20815140.605
 11  7 28  1 12 30.0000000  0  9G10G28G12G17G09G05G04G27G02
 112345069.431 8  87541713.34045  21378538.859                    21378546.754
 125556974.459 6  97836679.88043  23892705.359                    23892715.238
 118331940.899 7  92206773.62145  22517822.250                    22517829.660
 117725406.350 7  91734183.25545  22402389.289                    22402397.027
 118907800.308 7  92655487.88345  22627405.508                    22627413.633
 124593649.641 7  97086040.08544  23709379.117                    23709389.605
 107918376.877 8  84092376.52846  20536165.750                    20536173.535
 121000844.844 7  94286410.95844  23025694.039                    23025702.766
 109354143.438 8  85211139.57646  20809381.664                    20809387.246
 11  7 28  1 13  0.0000000  0  9G10G28G12G17G09G05G04G27G02
 112290782.751 8  87499412.07746  21368208.523                    21368216.891
 125654514.837 6  97912685.28743  23911266.406                    23911276.906
 118246650.016 7  92140313.25745  22501591.938                    22501599.230
 117770087.444 7  91768999.67645  22410891.867                    22410899.574
 118963930.814 7  92699225.92845  22638086.484                    22638095.355
 124487652.864 7  97003445.39644  23689208.453                    23689218.992
 107973333.610 8  84135199.95146  20546623.758                    20546631.066
 121051118.767 7  94325585.44044  23035260.922                    23035269.793
 109324273.236 8  85187864.11446  20803697.734                    20803702.934
 11  7 28  1 13 30.0000000  0  9G10G28G12G17G09G05G04G27G02
 112236994.251 8  87457498.99145  21357972.828                    21357980.926
 125752285.868 6  97988870.43243  23929871.758                    23929882.453
 118161595.630 7  92074037.16345  22485406.438                    22485413.859
 117814883.257 7  91803905.49645  22419416.641                    22419424.059
 119020495.366 7  92743302.18545  22648850.563                    22648859.066
 124381701.123 7  96920885.79244  23669046.250                    23669055.934
 108028635.238 8  84178292.12846  20557147.305                    20557154.781
 121101679.915 7  94364983.73544  23044882.313                    23044891.008
 109294766.741 8  85164872.06746  20798082.500                    20798087.742
 11  7 28  1 14  0.0000000  0  9G10G28G12G17G09G05G04G27G02
 112183706.669 8  87415976.24445  21347832.688                    21347840.664
 125850285.904 6  98065234.02142  23948520.586                    23948530.543
 118076780.601 7  92007947.58945  22469266.461                    22469274.141
 117859794.494 7  91838901.24745  22427962.813                    22427970.066
 119077491.066 7  92787714.40345  22659696.547                    22659705.031
 124275797.453 7  96838363.63544  23648893.680                    23648902.664
 108084279.653 8  84221651.40446  20567736.180                    20567743.824
 121152526.086 7  94404604.12444  23054557.914                    23054566.781
 109265624.141 8  85142163.57846  20792536.938                    20792542.512
 11  7 28  1 14 30.0000000  0  9G10G28G12G17G09G05G04G27G02
 112130922.024 8  87374845.38946  21337788.047                    21337796.066
 125948512.810 6  98141774.36743  23967212.953                    23967222.320
 117992207.056 7  91942046.19245  22453172.906                    22453180.055
 117904821.296 7  91873987.05345  22436531.469                    22436539.172
 119134914.589 7  92832459.99445  22670623.281                    22670632.238
 124169944.450 7  96755880.95644  23628749.953                    23628759.938
 108140264.108 8  84265275.64646  20578389.422                    20578396.984
 121203654.439 7  94444444.37744  23064287.125                    23064296.277
 109236844.402 8  85119737.84046  20787060.344                    20787065.492
 11  7 28  1 15  0.0000000  0  9G10G28G12G17G09G05G04G27G02
 112078643.318 8  87334108.77945  21327839.500                    21327848.027
 126046964.796 6  98218490.15843  23985947.688                    23985957.426
 117907877.598 7  91876334.98145  22437125.063                    22437132.648
 117949964.306 7  91909163.40445  22445121.695                    22445129.184
 119192763.214 7  92877536.82345  22681631.547                    22681640.836
 124064145.268 7  96673440.23444  23608616.703                    23608627.160
 108196586.433 8  84309163.16146  20589107.180                    20589114.898
 121255062.686 7  94484502.74744  23074069.734                    23074078.629
 109208427.366 8  85097594.73246  20781653.047                    20781658.422
 11  7 28  1 15 30.0000000  0  9G10G28G12G17G09G05G04G27G02
 112026873.208 8  87293768.47146  21317987.883                    21317996.473
 126145640.121 6  98295379.98843  24004726.016                    24004734.570
 117823794.994 7  91810816.13045  22421124.828                    22421132.137
 117995224.149 8  91944430.78945  22453734.555                    22453742.059
 119251033.706 7  92922942.39545  22692720.492                    22692729.355
 123958402.676 7  96591043.58944  23588494.664                    23588504.301
 108253244.496 8  84353312.28846  20599889.039                    20599896.586
 121306748.459 7  94524777.36544  23083904.859                    23083914.633
 109180372.851 8  85075734.11846  20776314.078                    20776319.543
 11  7 28  1 16  0.0000000  0  9G10G28G12G17G09G05G04G27G02
 111975613.909 8  87253826.19946  21308233.859                    21308242.340
 126244537.064 6  98372442.49443  24023544.797                    24023554.059
 117739961.784 7  91745491.60945  22405171.492                    22405179.227
 118040601.320 7  91979789.59045  22462369.289                    22462377.137
 119309723.087 7  92968674.37045  22703888.805                    22703897.484
 123852719.662 7  96508693.37944  23568383.711                    23568393.430
 108310236.048 8  84397721.28146  20610734.141                    20610741.598
 121358709.319 7  94565266.31844  23093793.000                    23093802.176
 109152680.654 8  85054155.82046  20771044.547                    20771049.672
 11  7 28  1 16 30.0000000  0  9G10G28G12G17G09G05G04G27G02
 111924867.742 8  87214283.77946  21298577.047                    21298584.785
 126343652.896 6  98449675.56343  24042406.563                    24042415.746
 117656380.172 7  91680363.13745  22389266.797                    22389274.309
 118086095.928 7  92015239.91845  22471026.508                    22471034.469
 119368827.682 7  93014729.88944  22715135.883                    22715144.496
 123747098.686 7  96426391.49644  23548284.172                    23548294.660
 108367557.896 8  84442387.65046  20621642.203                    20621649.719
 121410941.912 7  94605967.03544  23103732.891                    23103741.941
 109125349.201 8  85032858.61946  20765843.641                    20765848.645
 11  7 28  1 17  0.0000000  0  9G10G28G12G17G09G05G04G27G02
 111874637.239 8  87175143.16946  21289018.492                    21289026.316
 126442986.649 7  98527078.42943  24061308.984                    24061317.895
 117573052.936 7  91615432.87045  22373410.195                    22373417.332
 118131708.605 7  92050782.23445  22479706.516                    22479713.938
 119428345.086 7  93061107.07445  22726462.258                    22726470.207
 123641542.997 7  96344140.47944  23528198.234                    23528207.863
 108425208.518 8  84487310.20246  20632612.742                    20632620.418
 121463444.369 7  94646878.02344  23113723.398                    23113732.855
 109098379.053 8  85011842.95746  20760711.008                    20760716.316
 11  7 28  1 17 30.0000000  0  9G10G28G12G17G09G05G04G27G02
 111824924.409 8  87136405.93946  21279558.109                    21279566.309
 126542535.697 6  98604649.06843  24080252.852                    24080261.770
 117489982.368 7  91550702.61545  22357602.063                    22357609.855
 118177439.922 7  92086417.00145  22488408.766                    22488416.934
 119488271.635 7  93107803.07345  22737865.711                    22737873.867
 123536055.363 7  96261942.48944  23508123.922                    23508134.055
 108483185.224 8  84532486.85446  20643645.031                    20643652.918
 121516213.692 7  94687996.93544  23123765.336                    23123774.082
 109071769.180 8  84991108.01646  20755647.367                    20755652.719
 11  7 28  1 18  0.0000000  0  9G10G28G12G17G09G05G04G27G02
 111775732.262 8  87098074.43846  21270197.492                    21270205.477
 126642298.339 6  98682386.16643  24099237.086                    24099245.332
 117407171.295 7  91486174.55045  22341843.781                    22341850.930
 118223290.656 7  92122144.83145  22497133.406                    22497141.313
 119548604.362 7  93154815.56645  22749346.703                    22749354.805
 123430638.605 7  96179799.72845  23488063.766                    23488074.027
 108541485.716 8  84577915.79846  20654739.273                    20654746.961
 121569247.612 7  94729322.04944  23133857.172                    23133866.387
 109045519.571 8  84970653.81346  20750652.344                    20750657.527
 11  7 28  1 18 30.0000000  0  9G10G28G12G17G09G05G04G27G02
 111727062.612 8  87060150.08146  21260935.813                    21260943.871
 126742272.701 6  98760288.20743  24118260.969                    24118270.707
 117324622.171 7  91421850.60645  22326135.484                    22326142.469
 118269260.664 7  92157965.58845  22505881.836                    22505889.688
 119609340.201 7  93202142.17744  22760903.891                    22760912.207
 123325295.662 7  96097714.48745  23468017.836                    23468027.617
 108600107.721 8  84623595.27846  20665895.141                    20665902.625
 121622543.429 7  94770851.23244  23143999.555                    23144008.176
 109019629.346 8  84950479.63546  20745725.289                    20745730.852
 11  7 28  1 19  0.0000000  0  9G10G28G12G17G09G05G04G27G02
 111678918.099 8  87022634.92346  21251774.313                    21251782.238
 126842456.764 6  98838353.65843  24137324.891                    24137335.156
 117242337.558 7  91357732.77245  22310476.727                    22310484.004
 118315350.831 7  92193880.00145  22514652.055                    22514659.734
 119670475.934 7  93249780.38344  22772537.906                    22772546.211
 123220029.305 7  96015688.89844  23447986.563                    23447995.484
 108659048.421 8  84669523.09746  20677110.695                    20677118.402
 121676098.447 7  94812582.38544  23154190.633                    23154199.273
 108994098.296 8  84930585.33746  20740867.328                    20740872.676
 11  7 28  1 19 30.0000000  0  9G10G28G12G17G09G05G04G27G02
 111631300.885 8  86985530.64346  21242713.094                    21242721.023
 126942848.517 6  98916580.94843  24156429.711                    24156438.836
 117160320.019 7  91293823.05345  22294869.516                    22294876.699
 118361561.575 7  92229888.36745  22523445.609                    22523453.742
 119732008.219 7  93297727.60444  22784247.391                    22784255.254
 123114842.558 7  95933725.31144  23427969.906                    23427978.477
 108718305.892 8  84715697.74146  20688387.070                    20688394.816
 121729910.037 7  94854513.45344  23164430.445                    23164439.898
 108968925.651 8  84910970.31846  20736076.930                    20736082.227
 11  7 28  1 20  0.0000000  0  9G10G28G12G17G09G05G04G27G02
 111584213.374 8  86948839.12646  21233752.641                    21233760.871
 127043445.852 6  98994968.44742  24175572.664                    24175581.582
 117078572.413 7  91230123.66745  22279313.219                    22279320.598
 118407892.984 7  92265990.75545  22532262.555                    22532269.996
 119793933.812 7  93345981.31944  22796030.969                    22796039.875
 123009738.182 7  95851825.96044  23407968.875                    23407979.016
 108777877.325 8  84762117.04046  20699723.711                    20699730.961
 121783975.418 7  94896642.30244  23174718.406                    23174728.230
 108944110.741 8  84891634.05546  20731354.992                    20731360.152
 11  7 28  1 20 30.0000000  0  9G10G28G12G17G09G05G04G27G02
 111537658.148 8  86912562.37746  21224893.500                    21224901.164
 127144247.243 5  99073514.91843  24194753.578                    24194763.633
 116997096.691 7  91166636.13445  22263808.859                    22263816.398
 118454346.144 7  92302188.02045  22541102.422                    22541110.203
 119856250.000 7  93394539.37044  22807889.945                    22807897.848
 122904719.295 7  95769993.25444  23387984.203                    23387994.324
 108837760.775 8  84808779.47646  20711118.922                    20711126.070
 121838292.500 7  94938967.25744  23185055.219                    23185063.711
 108919653.304 8  84872576.33646  20726700.719                    20726706.203
 11  7 28  1 21  0.0000000  0  9G10G28G12G17G09G05G04G27G02
 111491637.510 8  86876702.19146  21216135.641                    21216143.492
 127245250.786 5  99152218.93342  24213972.992                    24213984.500
 116915895.658 7  91103362.64045  22248356.898                    22248364.285
 118500921.491 7  92338480.49545  22549965.813                    22549973.105
 119918953.399 7  93443399.16444  22819821.836                    22819829.867
 122799788.814 7  95688229.35644  23368016.719                    23368025.184
 108897954.170 8  84855683.43246  20722573.109                    20722580.777
 121892858.533 7  94981486.20144  23195438.727                    23195447.816
 108895552.797 8  84853796.73946  20722114.430                    20722119.781
 11  7 28  1 21 30.0000000  0  9G10G28G12G17G09G05G04G27G02
 111446153.368 8  86841260.04746  21207480.375                    21207488.477
 127346454.157 6  99231078.60343  24233233.000                    24233242.953
 116834971.793 7  91040305.11245  22232957.234                    22232964.664
 118547619.554 7  92374868.61845  22558851.813                    22558859.609
 119982040.931 7  93492558.27944  22831826.469                    22831835.309
 122694949.554 7  95606536.55644  23348066.094                    23348075.492
 108958454.859 8  84902826.82346  20734085.563                    20734093.227
 121947670.842 7  95024197.05744  23205869.023                    23205878.613
 108871808.683 8  84835294.86146  20717596.188                    20717601.324
 11  7 28  1 22  0.0000000  0  9G10G28G12G17G09G05G04G27G02
 111401207.656 8  86806237.46646  21198927.352                    21198935.055
 127447855.147 6  99310092.34242  24252529.055                    24252538.973
 116754327.667 7  90977465.57145  22217611.555                    22217618.555
 118594440.567 7  92411352.52445  22567761.422                    22567769.324
 120045508.888 7  93542013.82845  22843904.195                    22843913.344
 122590204.282 7  95524917.02844  23328133.484                    23328142.938
 109019260.140 8  84950207.55846  20745657.102                    20745664.555
 122002726.526 7  95067097.53644  23216345.758                    23216355.359
 108848420.095 8  84817070.00946  20713145.195                    20713150.551
 11  7 28  1 22 30.0000000  0  9G10G28G12G17G09G05G04G27G02
 111356803.154 8  86771636.59846  21190477.523                    21190485.688
 127549452.276 6  99389258.97943  24271862.320                    24271871.895
 116673966.255 7  90914846.32245  22202319.141                    22202326.340
 118641385.206 7  92447932.76745  22576694.570                    22576701.957
 120109354.519 6  93591763.67844  22856054.016                    22856062.527
 122485556.307 7  95443373.28544  23308219.367                    23308228.578
 109080368.132 8  84997824.16746  20757285.367                    20757293.180
 122058023.452 7  95110186.01944  23226868.820                    23226877.438
 108825387.108 8  84799122.25546  20708762.484                    20708767.246
 11  7 28  1 23  0.0000000  0  9G10G28G12G17G09G05G04G27G02
 111312941.799 8  86737458.95846  21182130.813                    21182138.953
 127651243.401 6  99468576.66943  24291232.273                    24291242.352
 116593889.738 7  90852449.06345  22187081.102                    22187088.418
 118688453.884 7  92484609.67945  22585652.172                    22585659.047
 120173574.273 7  93641805.06144  22868274.063                    22868282.965
 122381008.153 7  95361907.30844  23288325.070                    23288333.828
 109141776.136 8  85045674.56446  20768971.281                    20768978.473
 122113558.622 7  95153460.14644  23237436.406                    23237445.902
 108802708.681 8  84781450.78146  20704446.328                    20704451.746
 11  7 28  1 23 30.0000000  0  9G10G28G12G17G09G05G04G27G02
 111269626.090 8  86703706.49546  21173888.469                    21173895.996
 127753226.387 6  99548043.86643  24310639.586                    24310649.074
 116514100.751 7  90790275.85945  22171897.461                    22171904.965
 118735647.359 7  92521383.82345  22594632.164                    22594639.555
 120238165.094 7  93692135.57844  22880565.430                    22880574.164
 122276562.923 7  95280521.56944  23268449.461                    23268458.707
 109203482.282 8  85093757.28146  20780713.313                    20780720.848
 122169329.617 7  95196918.03644  23248048.797                    23248058.461
 108780384.276 8  84764055.16846  20700198.633                    20700203.953
 11  7 28  1 24  0.0000000  0  9G10G28G12G17G09G05G04G27G02
 111226858.866 8  86670381.41946  21165749.875                    21165757.566
 127855400.083 6  99627659.71443  24330082.133                    24330091.910
 116434602.589 7  90728329.26545  22156769.250                    22156777.195
 118782966.620 7  92558255.97945  22603637.000                    22603644.461
 120303124.342 7  93742753.18944  22892926.805                    22892935.512
 122172224.334 7  95199218.93644  23248593.867                    23248603.098
 109265484.630 8  85142070.79846  20792512.063                    20792519.453
 122225334.647 7  95240558.28244  23258706.703                    23258716.285
 108758414.142 8  84746935.61146  20696017.938                    20696022.863
 11  7 28  1 24 30.0000000  0  8G10G12G17G09G05G04G27G02
 111184642.044 8  86637485.23446  21157716.258                    21157724.227
 116355397.545 7  90666611.08145  22141697.992                    22141704.602
 118830412.164 7  92595226.54745  22612665.305                    22612673.250
 120368448.914 7  93793655.44944  22905357.234                    22905365.895
 122067995.140 7  95118001.53444  23228760.117                    23228769.039
 109327780.812 8  85190613.27846  20804366.453                    20804374.148
 122281571.020 7  95284378.80844  23269408.547                    23269417.695
 108736797.664 8  84730091.62746  20691904.109                    20691909.375
 11  7 28  1 25  0.0000000  0  8G10G12G17G09G05G04G27G02
 111142976.620 8  86605018.70246  21149787.766                    21149795.574
 116276487.606 7  90605122.84245  22126681.648                    22126688.523
 118877983.774 7  92632295.33045  22621718.000                    22621725.430
 120434134.427 7  93844838.98544  22917857.219                    22917865.723
 121963877.343 7  95036870.92645  23208947.156                    23208956.070
 109390367.523 8  85239382.14646  20816276.461                    20816283.848
 122338034.817 7  95328376.55444  23280152.531                    23280162.273
 108715533.117 8  84713521.88046  20687857.781                    20687862.828
 11  7 28  1 25 30.0000000  0  8G10G12G17G09G05G04G27G02
 111101864.793 8  86572983.54846  21141964.188                    21141972.059
 116197875.493 7  90543866.66645  22111722.141                    22111728.988
 118925681.821 7  92669462.64745  22630794.609                    22630802.789
 120500177.691 7  93896301.26644  22930425.031                    22930433.434
 121859874.245 7  94955829.67945  23189155.367                    23189164.891
 109453242.583 8  85288375.69646  20828241.023                    20828248.859
 122394723.458 7  95372549.51144  23290941.023                    23290949.391
 108694619.996 8  84697225.96646  20683878.195                    20683883.668
 11  7 28  1 26  0.0000000  0  8G10G12G17G09G05G04G27G02
 111061308.554 8  86541381.33246  21134246.680                    21134254.383
 116119563.871 7  90482844.65345  22096819.844                    22096827.105
 118973507.176 7  92706729.16245  22639894.930                    22639903.105
 120566575.526 7  93948039.83344  22943059.609                    22943068.230
 121755988.538 7  94874879.92545  23169386.945                    23169395.664
 109516403.801 8  85337592.22446  20840260.273                    20840267.500
 122451634.215 7  95416895.55444  23301769.844                    23301779.203
 108674057.876 8  84681203.56346  20679965.117                    20679970.492
 11  7 28  1 26 30.0000000  0  8G10G12G17G09G05G04G27G02
 111021310.114 8  86510213.74846  21126635.266                    21126643.031
 116041555.128 7  90422058.63346  22081975.391                    22081982.391
 119021460.076 7  92744095.05345  22649020.422                    22649028.113
 120633324.681 6  94000052.16244  22955761.523                    22955770.711
 121652223.475 7  94794024.16745  23149640.727                    23149650.289
 109579848.608 8  85387029.74146  20852333.422                    20852340.723
 122508764.672 7  95461412.78544  23312641.492                    23312650.813
 108653845.997 8  84665454.07846  20676119.016                    20676124.070
 11  7 28  1 27  0.0000000  0  8G10G12G17G09G05G04G27G02
 110981871.582 8  86479482.45446  21119130.266                    21119138.027
 115963851.630 7  90361510.47445  22067188.477                    22067195.559
 119069541.354 7  92781560.97445  22658169.648                    22658177.996
 120700422.012 7  94052335.77544  22968529.938                    22968538.684
 121548581.971 7  94713264.70644  23129917.891                    23129927.473
 109643574.907 8  85436686.59946  20864459.852                    20864467.832
 122566112.223 7  95506099.19044  23323554.570                    23323563.828
 108633983.703 8  84649976.99746  20672339.336                    20672344.316
 11  7 28  1 27 30.0000000  0  8G10G12G17G09G05G04G27G02
 110942995.263 8  86449189.24946  21111732.211                    21111740.000
 115886456.491 7  90301202.59645  22052460.875                    22052468.320
 119117751.520 7  92819127.33145  22667344.516                    22667351.738
 120767864.238 7  94104888.13344  22981363.844                    22981372.426
 121445067.028 7  94632603.84545  23110219.977                    23110229.230
 109707580.431 8  85486561.03346  20876640.078                    20876647.938
 122623674.275 7  95550952.74344  23334508.813                    23334517.699
 108614470.691 8  84634772.08346  20668626.203                    20668631.328
 11  7 28  1 28  0.0000000  0  8G10G12G17G09G05G04G27G02
 110904683.210 8  86419335.74646  21104441.305                    21104449.336
 115809372.282 7  90241136.99246  22037792.133                    22037799.496
 119166090.948 7  92856794.41545  22676542.813                    22676550.742
 120835648.078 7  94157706.67644  22994262.766                    22994271.039
 121341681.627 7  94552043.92644  23090546.109                    23090555.664
 109771862.949 8  85536651.31446  20888872.531                    20888880.352
 122681448.210 7  95595971.39844  23345502.508                    23345511.574
 108595306.118 8  84619838.67346  20664979.438                    20664984.512
 11  7 28  1 28 30.0000000  0  8G10G12G17G09G05G04G27G02
 110866936.904 8  86389923.08546  21097258.477                    21097266.598
 115732601.110 7  90181315.32646  22023183.234                    22023190.703
 119214560.337 7  92894562.75245  22685766.133                    22685773.844
 120903770.134 7  94210788.77744  23007226.016                    23007234.590
 121238428.574 7  94471587.11845  23070898.039                    23070906.945
 109836419.991 8  85586955.50646  20901157.383                    20901165.328
 122739431.228 7  95641152.94744  23356536.156                    23356545.324
 108576489.203 8  84605176.17146  20661398.039                    20661403.629
 11  7 28  1 29  0.0000000  0  8G10G12G17G09G05G04G27G02
 110829758.237 8  86360952.74646  21090183.508                    21090191.402
 115656145.828 7  90121739.80245  22008634.117                    22008641.270
 119263160.010 7  92932432.63145  22695014.570                    22695021.879
 120972227.089 7  94264131.83045  23020252.867                    23020261.398
 121135311.046 7  94391235.94945  23051274.977                    23051284.445
 109901249.345 8  85637471.88046  20913493.906                    20913501.789
 122797620.497 7  95686495.24744  23367608.875                    23367618.422
 108558019.376 8  84590784.12346  20657883.758                    20657888.902
 11  7 28  1 29 30.0000000  0  8G10G12G17G09G05G04G27G02
 110793149.282 8  86332426.32346  21083217.367                    21083224.984
 115580008.974 7  90062412.39845  21994145.789                    21994152.723
 119311890.825 7  92970404.67745  22704287.969                    22704295.613
 121041015.650 7  94317733.27444  23033342.766                    23033352.391
 121032331.846 7  94310992.54445  23031678.648                    23031687.730
 109966348.622 8  85688198.60046  20925881.961                    20925889.414
 122856013.639 7  95731996.38244  23378721.180                    23378730.066
 108539896.087 8  84576662.10046  20654434.852                    20654440.043
 11  7 28  1 30  0.0000000  0  8G10G12G17G09G05G04G27G02
 110757111.591 8  86304345.04146  21076359.422                    21076367.262
 115504192.713 7  90003334.80945  21979718.266                    21979725.598
 119360752.908 7  93008479.02245  22713585.727                    22713593.805
 121110132.151 7  94371590.24144  23046495.313                    23046504.266
 120929493.776 7  94230859.11545  23012109.375                    23012117.762
 110031715.275 8  85739133.65246  20938320.906                    20938328.496
 122914607.616 7  95777654.00544  23389871.148                    23389880.043
 108522117.995 8  84562809.04946  20651051.805                    20651056.961
 11  7 28  1 30 30.0000000  0  8G10G12G17G09G05G04G27G02
 110721647.879 8  86276711.02246  21069611.125                    21069619.027
 115428700.318 7  89944509.59245  21965352.688                    21965359.750
 119409747.342 7  93046656.47945  22722909.219                    22722916.742
 121179573.912 6  94425700.66644  23059709.914                    23059718.379
 120826800.317 7  94150838.36645  22992567.039                    22992575.676
 110097347.520 8  85790275.67746  20950810.289                    20950817.910
 122973400.257 7  95823466.45244  23401059.641                    23401068.746
 108504685.471 8  84549225.29046  20647734.461                    20647739.746
 11  7 28  1 31  0.0000000  0  8G10G12G17G09G05G04G27G02
 110686759.529 8  86249525.33546  21062971.891                    21062979.473
 115353533.876 7  89885938.35345  21951048.938                    21951056.055
 119458874.234 7  93084937.15845  22732257.578                    22732264.879
 121249337.244 7  94480061.66444  23072985.313                    23072993.895
 120724254.573 7  94070932.71045  22973053.672                    22973061.949
 110163242.738 8  85841622.59446  20963349.727                    20963357.016
 123032388.487 7  95869431.29444  23412284.047                    23412293.559
 108487597.070 8  84535909.66946  20644482.938                    20644488.027
 11  7 28  1 31 30.0000000  0  8G10G12G17G09G05G04G27G02
 110652448.529 8  86222789.53846  21056442.688                    21056450.371
 115278696.257 7  89827623.34246  21936807.859                    21936814.813
 119508134.297 7  93123321.60945  22741631.672                    22741639.102
 121319418.920 7  94534670.74344  23086321.102                    23086330.250
 120621859.038 7  93991144.10145  22953568.641                    22953576.910
 110229398.602 8  85893172.62946  20975938.633                    20975945.910
 123091569.293 7  95915546.16044  23423546.086                    23423555.129
 108470852.086 8  84522861.64446  20641296.594                    20641301.484
 11  7 28  1 32  0.0000000  0  8G10G12G17G09G05G04G27G02
 110618716.163 8  86196504.61046  21050023.586                    21050031.277
 115204189.885 7  89769566.43946  21922629.977                    21922636.867
 119557527.915 7  93161810.15145  22751030.977                    22751038.699
 121389815.376 7  94589525.08944  23099717.211                    23099726.063
 120519616.407 7  93911474.63445  22934111.836                    22934120.652
 110295812.943 8  85944924.07146  20988576.750                    20988584.582
 123150940.210 6  95961809.19644  23434844.477                    23434853.730
 108454449.874 8  84510080.71246  20638175.227                    20638180.148
 11  7 28  1 32 30.0000000  0  8G10G12G17G09G05G04G27G02
 110585564.447 8  86170672.13846  21043715.469                    21043723.012
 115130017.456 7  89711769.75845  21908515.102                    21908522.332
 119607055.858 7  93200403.35145  22760456.055                    22760463.613
 121460523.279 7  94644622.12944  23113173.547                    23113181.621
 120417530.057 7  93831926.96145  22914685.297                    22914694.488
 110362483.451 8  85996875.12146  21001263.711                    21001271.371
 123210498.507 7  96008218.22344  23446177.938                    23446186.969
 108438389.832 8  84497566.39846  20635119.047                    20635124.129
 11  7 28  1 33  0.0000000  0  8G10G12G17G09G05G04G27G02
 110552995.336 8  86145293.65546  21037517.398                    21037524.688
 115056181.849 8  89654235.56046  21894464.727                    21894471.672
 119656718.643 7  93239101.62845  22769906.055                    22769913.438
 121531539.637 7  94699959.52444  23126686.695                    23126695.102
 120315603.355 7  93752503.66945  22895289.297                    22895297.836
 110429408.194 8  86049024.28146  21013999.156                    21014006.523
 123270241.873 7  96054771.44144  23457546.391                    23457555.719
 108422671.630 8  84485318.45746  20632128.063                    20632132.742
 11  7 28  1 33 30.0000000  0  8G10G12G17G09G05G04G27G02
 110521009.846 8  86120369.92746  21031430.508                    21031438.121
 114982684.673 7  89596965.04946  21880478.844                    21880485.777
 119706516.371 7  93277905.03045  22779382.680                    22779389.699
 121602860.391 7  94755534.13044  23140259.156                    23140267.492
 120213838.492 7  93673206.47545  22875924.125                    22875932.520
 110496584.127 8  86101369.16446  21026782.297                    21026789.641
 123330166.918 6  96101466.22744  23468949.602                    23468959.715
 108407293.347 8  84473335.39546  20629201.367                    20629206.641
 11  7 28  1 34  0.0000000  0  8G10G12G17G09G05G04G27G02
 110489609.661 8  86095902.29446  21025455.820                    21025463.422
 114909528.733 7  89539960.47046  21866557.898                    21866564.656
 119756449.732 7  93316814.12745  22788884.563                    22788892.316
 121674482.424 7  94811343.49644  23153887.820                    23153896.578
 120112238.515 7  93594037.76645  22856590.430                    22856598.820
 110564009.046 8  86153908.08046  21039612.883                    21039620.188
 123390271.051 7  96148300.54144  23480387.445                    23480397.250
 108392254.537 8  84461616.85546  20626339.500                    20626344.652
 11  7 28  1 34 30.0000000  0  8G10G12G17G09G05G04G27G02
 110458797.320 8  86071892.71546  21019592.086                    21019599.395
 114836717.051 8  89483224.14246  21852702.125                    21852708.781
 119806519.413 7  93355829.47845  22798412.477                    22798420.383
 121746402.686 7  94867385.26544  23167573.719                    23167582.691
 120010806.834 7  93515000.21945  22837288.227                    22837296.711
 110631681.048 8  86206639.51846  21052490.680                    21052498.125
 123450551.769 7  96195272.48744  23491858.320                    23491868.086
 108377554.751 8  84450162.48446  20623542.438                    20623547.586
 11  7 28  1 35  0.0000000  0  8G10G12G17G09G05G04G27G02
 110428574.708 8  86048342.65546  21013841.000                    21013848.766
 114764252.114 7  89426757.97846  21838912.156                    21838919.164
 119856726.224 7  93394951.65345  22807966.586                    22807974.398
 121818618.011 6  94923656.92444  23181315.828                    23181324.363
 119909546.807 7  93436096.39945  22818019.172                    22818027.242
 110699598.301 8  86259562.04646  21065414.758                    21065421.793
 123511006.545 6  96242380.03644  23503362.422                    23503371.945
 108363193.632 8  84438972.01846  20620809.414                    20620814.457
 11  7 28  1 35 30.0000000  0  8G10G12G17G09G05G04G27G02
 110398942.633 8  86025252.76746  21008201.844                    21008209.590
 114692136.117 7  89370563.75446  21825189.086                    21825195.996
 119907070.616 7  93434181.05345  22817547.086                    22817554.203
 121891124.413 7  94980155.41644  23195113.609                    23195122.336
 119808460.935 7  93357328.29645  22798782.586                    22798790.941
 110767757.885 8  86312673.41846  21078384.930                    21078392.387
 123571632.256 6  96289620.80543  23514899.414                    23514908.473
 108349169.922 8  84428044.46246  20618140.875                    20618146.176
 11  7 28  1 36  0.0000000  0  8G10G12G17G09G05G04G27G02
 110369902.745 8  86002624.31146  21002676.008                    21002683.207
 114620371.831 8  89314643.59146  21811532.766                    21811539.629
 119957552.767 7  93473517.79445  22827152.953                    22827160.918
 121963918.988 7  95036878.45744  23208965.875                    23208974.547
 119707552.327 7  93278698.31745  22779580.070                    22779589.285
 110836157.737 8  86365972.00246  21091400.945                    21091408.965
 123632426.330 6  96336992.77443  23526468.078                    23526477.719
 108335482.935 8  84417379.27946  20615536.453                    20615541.488
 11  7 28  1 36 30.0000000  0  8G10G12G17G09G05G04G27G02
 110341456.525 8  85980458.46846  20997262.617                    20997270.262
 114548961.650 8  89258999.34046  21797943.664                    21797950.551
 120008173.455 7  93512962.49445  22836786.063                    22836793.664
 122036998.087 6  95093823.19544  23222872.234                    23222881.141
 119606823.730 7  93200208.61145  22760412.273                    22760421.234
 110904795.349 8  86419455.85846  21104462.383                    21104470.016
 123693385.975 6  96384493.74243  23538067.859                    23538077.445
 108322131.720 8  84406975.75246  20612995.602                    20613000.543
 11  7 28  1 37  0.0000000  0  8G10G12G17G09G05G04G27G02
 110313605.635 8  85958756.51146  20991962.828                    20991970.223
 114477908.128 8  89203633.00746  21784422.563                    21784429.363
 120058933.134 7  93552515.49145  22846445.094                    22846452.965
 122110358.265 6  95150986.96044  23236831.914                    23236841.398
 119506278.223 7  93121861.57145  22741279.227                    22741287.758
 110973668.965 8  86473123.61346  21117568.430                    21117575.926
 123754508.347 6  96432121.53043  23549698.742                    23549708.867
 108309115.527 8  84396833.27646  20610518.602                    20610523.785
 11  7 28  1 37 30.0000000  0  8G10G12G17G09G05G04G27G02
 110286351.657 8  85937519.67346  20986776.641                    20986784.434
 114407213.820 7  89148546.56546  21770970.102                    21770976.934
 120109832.428 7  93592177.27845  22856131.000                    22856138.594
 122183996.178 6  95208367.15044  23250844.844                    23250854.102
 119405919.027 7  93043659.69445  22722181.094                    22722189.648
 111042776.000 8  86526973.24046  21130719.031                    21130726.469
 123815790.799 6  96479874.05444  23561361.102                    23561370.227
 108296433.568 8  84386951.29046  20608105.680                    20608110.516
 11  7 28  1 38  0.0000000  0  8G10G12G17G09G05G04G27G02
 110259696.063 8  85916749.11346  20981704.242                    20981711.891
 114336881.384 7  89093742.09746  21757585.898                    21757593.344
 120160871.902 7  93631948.30645  22865843.469                    22865851.344
 122257908.312 7  95265961.01544  23264910.148                    23264918.879
 119305748.937 7  92965605.18245  22703119.141                    22703128.176
 111112114.409 8  86581003.16146  21143913.930                    21143921.051
 123877230.948 6  96527749.48043  23573052.523                    23573062.078
 108284085.197 8  84377329.22946  20605755.680                    20605760.434
 11  7 28  1 38 30.0000000  0  8G10G12G17G09G05G04G27G02
 110233639.943 7  85896445.67346  20976745.867                    20976753.211
 114266912.919 7  89039221.24646  21744271.453                    21744278.438
 120212051.836 7  93671828.77445  22875582.859                    22875590.230
 122332091.254 6  95323765.88344  23279026.555                    23279035.480
 119205770.858 7  92887700.29945  22684094.328                    22684103.008
 111181681.589 7  86635211.34146  21157152.039                    21157159.328
 123938825.469 6  96575745.21644  23584774.297                    23584782.809
 108272069.081 8  84367966.08146  20603468.813                    20603473.859
 11  7 28  1 39  0.0000000  0  8G10G12G17G09G05G04G27G02
 110208184.716 8  85876610.46546  20971901.586                    20971909.160
 114197311.121 7  88984986.09846  21731026.828                    21731033.535
 120263372.846 7  93711819.18445  22885348.781                    22885356.352
 122406541.737 7  95381779.22844  23293193.891                    23293203.102
 119105987.730 7  92809947.30445  22665106.563                    22665114.426
 111251475.396 8  86689596.12346  21170433.609                    21170440.637
 124000571.598 6  96623859.06244  23596524.148                    23596532.738
 108260384.583 8  84358861.31246  20601245.445                    20601250.668
 11  7 28  1 39 30.0000000  0  9G10G25G12G17G09G05G04G27G02
 110183332.005 8  85857244.74946  20967172.258                    20967180.137
 129550225.79816 100948311.84753  24652598.969                    24652610.055
 114128078.762 7  88931038.83346  21717852.383                    21717859.621
 120314835.354 7  93751919.83645  22895141.930                    22895149.438
 122481256.464 7  95439998.47444  23307412.469                    23307420.664
 119006402.651 7  92732348.63345  22646155.492                    22646164.262
 111321493.825 8  86744155.93446  21183757.555                    21183765.258
 124062466.774 6  96672089.07143  23608302.055                    23608310.723
 108249030.796 8  84350014.22346  20599084.852                    20599089.648
 11  7 28  1 40  0.0000000  0  9G10G25G12G17G09G05G04G27G02
 110159083.060 8  85838349.49946  20962557.508                    20962565.484
 129446924.760 6 100867817.59643  24632940.758                    24632952.066
 114059218.190 7  88877381.27546  21704748.148                    21704755.414
 120366439.972 7  93792131.22945  22904962.148                    22904969.883
 122556231.756 7  95498420.74944  23321679.461                    23321688.285
 118907018.631 7  92654906.63945  22627243.523                    22627252.027
 111391734.548 8  86798888.95546  21197123.859                    21197131.383
 124124508.332 7  96720433.13444  23620108.688                    23620117.246
 108238007.004 8  84341424.28146  20596987.086                    20596992.387
 11  7 28  1 40 30.0000000  0  9G10G25G12G17G09G05G04G27G02
 110135439.298 8  85819925.81646  20958058.633                    20958066.066
 129343732.309 6 100787407.95343  24613304.305                    24613315.445
 113990731.517 8  88824015.07046  21691715.789                    21691722.969
 120418187.338 7  93832453.85745  22914808.648                    22914816.910
 122631463.971 7  95557043.23544  23335995.180                    23336004.527
 118807838.583 7  92577623.58045  22608370.102                    22608378.508
 111462195.239 8  86853793.38146  21210532.078                    21210539.852
 124186693.368 6  96768888.98544  23631941.594                    23631950.488
 108227312.217 8  84333090.69746  20594951.805                    20594957.039
 11  7 28  1 41  0.0000000  0  9G10G25G12G17G09G05G04G27G02
 110112402.059 8  85801974.75546  20953674.453                    20953682.211
 129240650.728 6 100707084.71244  24593688.406                    24593699.625
 113922621.416 7  88770942.30046  21678754.859                    21678761.820
 120470077.702 7  93872887.92545  22924683.430                    22924690.531
 122706949.844 7  95615863.35544  23350360.000                    23350369.012
 118708865.350 7  92500501.67345  22589536.063                    22589544.789
 111532873.493 8  86908867.33246  21223981.641                    21223989.141
 124249018.929 7  96817454.34844  23643802.273                    23643810.539
 108216945.023 8  84325012.40046  20592979.102                    20592983.711
 11  7 28  1 41 30.0000000  0  9G10G25G12G17G09G05G04G27G02
 110089972.550 8  85784497.24946  20949406.586                    20949413.918
 129137682.951 6 100626850.15044  24574093.891                    24574105.203
 113854890.718 8  88718165.17246  21665865.969                    21665873.090
 120522111.882 7  93913434.03445  22934585.289                    22934592.832
 122782686.385 6  95674878.80644  23364772.539                    23364781.094
 118610101.909 7  92423543.24745  22570741.414                    22570750.508
 111603767.724 7  86964109.57946  21237472.336                    21237480.020
 124311482.644 7  96866127.35944  23655688.508                    23655697.836
 108206905.583 8  84317189.48346  20591068.617                    20591073.648
 11  7 28  1 42  0.0000000  0  9G10G25G12G17G09G05G04G27G02
 110068152.108 8  85767494.35146  20945254.281                    20945261.762
 129034831.256 6 100546706.05143  24554522.367                    24554533.934
 113787541.662 8  88665685.43446  21653049.945                    21653057.102
 120574290.252 7  93954092.51445  22944514.102                    22944522.105
 122858670.028 7  95734086.81244  23379231.680                    23379240.902
 118511551.303 7  92346750.66845  22551988.406                    22551996.273
 111674875.338 8  87019518.09946  21251003.766                    21251011.641
 124374081.821 7  96914905.91844  23667600.227                    23667609.863
 108197192.595 8  84309620.94946  20589220.133                    20589225.133
 11  7 28  1 42 30.0000000  0  9G10G25G12G17G09G05G04G27G02
 110046941.501 8  85750966.64246  20941217.898                    20941225.559
 128932097.974 6 100466654.23144  24534973.172                    24534984.371
 113720576.462 7  88613504.81846  21640306.703                    21640313.512
 120626613.345 7  93994863.75745  22954471.492                    22954478.781
 122934896.847 7  95793484.29944  23393736.891                    23393745.773
 118413216.613 7  92270126.31145  22533275.625                    22533284.000
 111746194.015 7  87075091.08146  21264575.125                    21264582.734
 124436813.168 7  96963787.43844  23679538.164                    23679547.266
 108187804.797 8  84302305.81546  20587433.734                    20587438.371
 11  7 28  1 43  0.0000000  0  9G10G25G12G17G09G05G04G27G02
 110026342.283 8  85734915.33046  20937298.094                    20937305.238
 128829485.767 6 100386696.77644  24515446.359                    24515457.578
 113653997.897 7  88561625.46946  21627637.250                    21627644.098
 120679081.574 7  94035748.10045  22964455.414                    22964462.770
 123011363.924 7  95853069.00144  23408288.391                    23408297.164
 118315100.901 7  92193672.60545  22514605.109                    22514613.344
 111817721.711 8  87130826.94646  21278186.320                    21278194.113
 124499674.197 6  97012770.01744  23691499.711                    23691509.465
 108178741.631 8  84295243.64346  20585709.297                    20585713.957
 11  7 28  1 43 30.0000000  0  9G10G25G12G17G09G05G04G27G02
 110006355.727 8  85719341.43146  20933494.680                    20933501.953
 128726997.155 6 100306835.57344  24495942.641                    24495954.563
 113587808.203 7  88510049.14246  21615041.875                    21615048.672
 120731695.662 7  94076746.10444  22974467.453                    22974475.176
 123088068.025 7  95912838.39844  23422884.680                    23422893.680
 118217207.108 7  92117391.83145  22495976.023                    22495984.262
 111889456.394 8  87186724.08846  21291837.180                    21291844.535
 124562662.203 6  97061851.52343  23703486.008                    23703496.133
 108170002.380 8  84288433.85346  20584046.070                    20584050.945
 11  7 28  1 44  0.0000000  0  9G10G25G12G17G09G05G04G27G02
 109986982.938 8  85704245.78046  20929808.391                    20929815.418
 128624634.534 6 100227072.56944  24476464.383                    24476475.277
 113522010.335 7  88458778.13546  21602521.164                    21602527.848
 120784456.022 7  94117858.07444  22984507.414                    22984515.137
 123165005.331 7  95972789.52344  23437525.328                    23437534.715
 118119538.249 7  92041286.31145  22477389.906                    22477398.172
 111961395.828 8  87242780.78946  21305526.859                    21305534.313
 124625774.298 6  97111029.71744  23715495.938                    23715505.898
 108161585.794 8  84281875.51046  20582444.297                    20582449.070
 11  7 28  1 44 30.0000000  0  9G10G25G12G17G09G05G04G27G02
 109968225.111 8  85689629.31346  20926238.477                    20926246.180
 128522400.440 6 100147409.73343  24457009.758                    24457020.609
 113456606.291 8  88407814.00946  21590074.781                    21590081.770
 120837363.084 7  94159084.35745  22994575.836                    22994582.750
 123242172.521 7  96032919.76944  23452209.414                    23452219.156
 118022097.219 7  91965358.30345  22458847.789                    22458855.418
 112033537.663 8  87298995.18546  21319254.680                    21319262.625
 124689007.678 6  97160302.42044  23727528.891                    23727538.672
 108153490.981 8  84275567.88146  20580903.883                    20580908.918
 11  7 28  1 45  0.0000000  0  9G10G25G12G17G09G05G04G27G02
 109950083.314 8  85675492.87346  20922786.219                    20922794.156
 128420297.375 6 100067848.97143  24437579.961                    24437590.977
 113391599.027 7  88357159.04946  21577704.266                    21577711.191
 120890417.611 7  94200425.54244  23004671.086                    23004678.688
 123319566.239 7  96093226.53044  23466937.148                    23466946.430
 117924887.019 7  91889610.17045  22440348.961                    22440357.492
 112105879.866 8  87355365.72546  21333021.328                    21333029.020
 124752359.634 6  97209667.51343  23739584.375                    23739594.414
 108145717.088 8  84269510.32946  20579424.820                    20579429.285
 11  7 28  1 45 30.0000000  0  9G10G25G12G17G09G05G04G27G02
 109932558.378 8  85661837.10246  20919451.313                    20919458.918
 128318327.748 6  99988392.18343  24418175.828                    24418186.645
 113326990.300 7  88306814.63746  21565409.609                    21565416.500
 120943620.023 7  94241881.97645  23014795.547                    23014803.434
 123397182.725 6  96153706.87544  23481706.844                    23481716.250
 117827910.412 7  91814044.08045  22421894.898                    22421903.277
 112178420.057 8  87411890.52346  21346825.125                    21346833.098
 124815827.309 6  97259122.75043  23751662.258                    23751671.789
 108138262.978 8  84263701.95346  20578005.953                    20578010.895
 11  7 28  1 46  0.0000000  0  9G10G25G12G17G09G05G04G27G02
 109915651.275 8  85648662.77146  20916233.953                    20916241.543
 128216494.271 6  99909041.47543  24398797.648                    24398808.816
 113262782.847 8  88256782.90846  21553191.258                    21553198.180
 120996970.797 7  94283454.02445  23024947.758                    23024955.879
 123475018.808 7  96214358.31244  23496519.094                    23496527.789
 117731170.720 7  91738662.57545  22403485.695                    22403493.668
 112251156.453 8  87468568.22846  21360666.500                    21360674.082
 124879408.257 6  97308666.28643  23763760.695                    23763771.281
 108131128.052 8  84258142.29946  20576648.266                    20576653.410
 11  7 28  1 46 30.0000000  0  9G10G25G12G17G09G05G04G27G02
 109899363.123 8  85635970.73746  20913134.711                    20913141.773
 128114799.444 6  99829798.79342  24379445.516                    24379456.305
 113198979.024 7  88207065.70046  21541049.945                    21541056.961
 121050470.495 7  94325142.10644  23035128.375                    23035135.711
 123553071.140 6  96275178.28744  23511371.250                    23511381.250
 117634670.572 7  91663467.73445  22385123.180                    22385130.605
 112324086.886 8  87525397.12546  21374544.648                    21374552.273
 124943099.563 6  97358295.81143  23775880.789                    23775891.102
 108124311.319 8  84252830.57746  20575351.359                    20575356.125
 11  7 28  1 47  0.0000000  0  9G10G25G12G17G09G05G04G27G02
 109883694.891 7  85623761.75846  20910152.766                    20910160.102
 128013245.690 6  99750666.07843  24360120.461                    24360130.805
 113135581.036 7  88157664.71046  21528985.547                    21528992.438
 121104119.470 7  94366946.51245  23045337.461                    23045345.609
 123631336.053 6  96336163.90844  23526265.172                    23526274.148
 117538412.926 7  91588461.86045  22366805.641                    22366813.328
 112397208.927 8  87582375.33746  21388459.273                    21388466.965
 125006898.294 6  97408009.03443  23788021.820                    23788031.703
 108117811.520 8  84247765.83146  20574114.164                    20574119.156
 11  7 28  1 47 30.0000000  0  9G10G25G12G17G09G05G04G27G02
 109868647.384 8  85612036.46146  20907289.586                    20907297.152
 127911835.559 6  99671645.20543  24340822.570                    24340833.328
 113072591.418 7  88108581.92746  21516999.258                    21517005.938
 121157918.023 7  94408867.47845  23055575.188                    23055582.625
 123709810.255 6  96397312.60743  23541197.922                    23541207.469
 117442400.887 7  91513647.37245  22348534.898                    22348542.801
 112470520.475 8  87639501.21345  21402409.922                    21402417.719
 125070801.713 6  97457803.85443  23800182.219                    23800192.223
 108111627.636 8  84242947.24746  20572937.555                    20572942.609
 11  7 28  1 48  0.0000000  0  9G10G25G12G17G09G05G04G27G02
 109854221.617 8  85600795.63146  20904544.445                    20904551.652
 127810571.593 6  99592738.28043  24321552.734                    24321563.223
 113010012.843 7  88059819.43746  21505090.898                    21505097.684
 121211866.914 7  94450905.57445  23065840.984                    23065848.957
 123788490.103 6  96458621.56944  23556170.297                    23556179.996
 117346637.202 7  91439026.39645  22330311.734                    22330319.574
 112544019.633 8  87696773.28145  21416396.375                    21416404.449
 125134807.162 7  97507678.16644  23812362.656                    23812372.121
 108105758.857 8  84238374.20746  20571820.734                    20571825.289
 11  7 28  1 48 30.0000000  0  9G10G25G12G17G09G05G04G27G02
 109840418.761 8  85590040.19146  20901917.727                    20901924.969
 127709456.638 7  99513947.48843  24302311.508                    24302321.977
 112947847.370 8  88011378.83446  21493261.117                    21493268.004
 121265966.679 7  94493061.24745  23076136.156                    23076143.613
 123867372.229 6  96520088.14844  23571180.992                    23571190.352
 117251125.303 7  91364601.60945  22312136.195                    22312144.176
 112617704.113 8  87754189.76945  21430418.055                    21430425.727
 125198911.953 6  97557629.88544  23824561.289                    23824570.914
 108100204.666 8  84234046.29046  20570763.852                    20570768.766
 11  7 28  1 49  0.0000000  0  9G10G25G12G17G09G05G04G27G02
 109827239.150 8  85579770.38946  20899409.875                    20899417.168
 127608492.671 6  99435274.27243  24283098.453                    24283108.988
 112886097.303 7  87963261.92346  21481510.578                    21481517.227
 121320217.873 7  94535334.91544  23086459.273                    23086467.008
 123946453.241 6  96581709.71244  23586230.289                    23586239.094
 117155867.547 7  91290374.86845  22294009.750                    22294017.387
 112691571.806 8  87811749.01245  21444474.477                    21444482.086
 125263113.095 7  97607656.69443  23836778.156                    23836788.000
 108094963.478 8  84229962.27646  20569766.289                    20569770.953
 11  7 28  1 49 30.0000000  0  9G10G25G12G17G09G05G04G27G02
 109814683.850 8  85569987.07446  20897020.672                    20897027.781
 127507682.527 7  99356720.97143  24263915.063                    24263925.773
 112824764.815 8  87915470.38846  21469838.875                    21469846.195
 121374620.842 7  94577726.85344  23096812.250                    23096819.688
 124025729.658 6  96643483.54444  23601316.258                    23601324.602
 117060867.122 7  91216348.63445  22275930.898                    22275939.383
 112765620.360 8  87869449.19145  21458565.719                    21458573.336
 125327407.645 7  97657756.31743  23849013.070                    23849022.434
 108090034.326 8  84226121.40046  20568828.594                    20568833.695
 11  7 28  1 50  0.0000000  0  9G10G25G12G17G09G05G04G27G02
 109802753.820 8  85560690.97946  20894750.313                    20894757.500
 127407028.820 7  99278289.53244  24244760.969                    24244771.758
 112763852.655 8  87868006.38546  21458248.039                    21458254.902
 121429175.898 7  94620237.30544  23107193.578                    23107201.363
 124105198.330 6  96705407.17443  23616439.102                    23616446.582
 116966127.005 7  91142525.25745  22257902.586                    22257910.379
 112839848.069 8  87927288.96646  21472691.000                    21472698.512
 125391793.303 7  97707926.89543  23861265.734                    23861274.313
 108085416.415 8  84222523.04146  20567949.898                    20567954.789
 11  7 28  1 50 30.0000000  0  9G10G25G12G17G09G05G04G27G02
 109791449.297 8  85551882.29246  20892598.836                    20892606.324
 127306534.021 7  99199981.94044  24225637.867                    24225648.293
 112703363.041 8  87820871.63046  21446737.008                    21446744.016
 121483883.467 7  94662866.57744  23117603.797                    23117611.727
 124184855.567 7  96767477.76444  23631596.641                    23631605.195
 116871650.077 7  91068906.95945  22239924.242                    22239932.117
 112914252.593 8  87985266.53245  21486849.547                    21486857.027
 125456266.819 6  97758165.97943  23873534.008                    23873544.148
 108081108.197 8  84219166.00746  20567129.828                    20567134.531
 11  7 28  1 51  0.0000000  0  9G10G25G12G17G09G05G04G27G02
 109780771.461 8  85543561.92946  20890567.313                    20890574.324
 127206200.794 7  99121800.22544  24206545.492                    24206556.227
 112643298.804 8  87774068.34046  21435307.234                    21435314.352
 121538744.543 7  94705615.47644  23128043.641                    23128051.391
 124264698.239 7  96829692.81743  23646790.180                    23646798.723
 116777439.391 7  90995496.11345  22221996.125                    22222004.426
 112988831.923 8  88043380.30145  21501041.180                    21501049.406
 125520825.772 6  97808471.63643  23885819.000                    23885829.086
 108077109.560 8  84216050.20646  20566368.609                    20566373.621
 11  7 28  1 51 30.0000000  0  9G10G25G12G17G09G05G04G27G02
 109770720.834 8  85535730.30246  20888654.625                    20888661.840
 127106031.595 7  99043746.31744  24187482.781                    24187494.715
 112583661.842 8  87727597.99546  21423958.867                    21423965.707
 121593759.477 7  94748484.25744  23138513.234                    23138520.195
 124344722.698 7  96892049.54644  23662018.367                    23662026.957
 116683497.766 7  90922294.93045  22204119.969                    22204127.918
 113063583.962 8  88101628.64745  21515266.266                    21515273.473
 125585467.376 6  97858841.68643  23898120.344                    23898129.852
 108073419.263 8  84213174.66946  20565666.688                    20565671.148
 11  7 28  1 52  0.0000000  0  9G10G25G12G17G09G05G04G27G02
 109761298.381 8  85528388.16646  20886861.570                    20886868.809
 127006029.299 6  98965822.48143  24168453.359                    24168464.043
 112524454.571 8  87681462.46946  21412691.992                    21412698.602
 121648928.896 7  94791473.41045  23149011.711                    23149018.660
 124424925.391 7  96954545.13444  23677280.023                    23677289.035
 116589828.222 7  90849305.76845  22186294.914                    22186303.184
 113138506.879 8  88160010.15345  21529523.484                    21529530.996
 125650188.761 6  97909273.90243  23910436.086                    23910445.797
 108070036.316 8  84210538.62046  20565022.602                    20565027.719
 11  7 28  1 52 30.0000000  0  9G10G25G12G17G09G05G04G27G02
 109752504.016 8  85521535.44646  20885188.125                    20885195.391
 126906196.177 6  98888030.49143  24149455.664                    24149466.832
 112465679.162 8  87635663.47146  21401507.516                    21401513.867
 121704252.604 7  94834582.80744  23159538.898                    23159546.500
 124505303.090 7  97017177.07944  23692575.867                    23692585.148
 116496433.283 7  90776530.56745  22168522.695                    22168530.367
 113213598.148 8  88218522.83045  21543813.016                    21543820.613
 125714987.171 6  97959766.13643  23922767.719                    23922776.738
 108066959.081 8  84208140.80646  20564437.391                    20564441.969
 11  7 28  1 53  0.0000000  0  9G10G25G12G17G09G05G04G27G02
 109744338.842 8  85515173.00546  20883634.328                    20883641.629
 126806535.024 6  98810372.47543  24130490.656                    24130501.555
 112407337.890 8  87590202.76346  21390405.617                    21390412.160
 121759731.462 6  94877813.10644  23170095.930                    23170103.938
 124585852.341 7  97079942.71344  23707903.547                    23707912.555
 116403316.311 7  90703971.97245  22150802.977                    22150810.898
 113288856.185 8  88277165.47545  21558134.219                    21558141.434
 125779859.933 6  98010316.29343  23935112.063                    23935121.781
 108064187.120 8  84205980.84446  20563909.727                    20563914.793
 11  7 28  1 53 30.0000000  0  9G10G25G12G17G09G05G04G27G02
 109736803.612 8  85509301.42246  20882200.023                    20882207.363
 126707048.465 6  98732850.58243  24111558.945                    24111570.051
 112349432.969 8  87545082.07246  21379386.477                    21379392.992
 121815365.997 6  94921164.68644  23180683.391                    23180690.664
 124666569.638 7  97142839.29944  23723264.227                    23723272.859
 116310480.171 7  90631632.20345  22133136.680                    22133144.691
 113364278.745 8  88335936.30445  21572486.781                    21572494.410
 125844804.170 6  98060922.14743  23947470.516                    23947479.988
 108061719.327 8  84204057.91446  20563440.141                    20563444.992
 11  7 28  1 54  0.0000000  0  9G10G25G12G17G09G05G04G27G02
 109729898.753 7  85503921.04646  20880886.227                    20880893.195
 126607738.909 6  98655466.58243  24092660.836                    24092672.020
 112291966.809 8  87500303.27446  21368451.047                    21368457.742
 121871156.639 7  94964637.91844  23191299.641                    23191306.863
 124747451.629 6  97205864.19644  23738655.781                    23738664.313
 116217927.362 7  90559513.21545  22115524.758                    22115532.641
 113439863.629 8  88394833.63645  21586869.953                    21586877.059
 125909816.876 6  98111581.33443  23959842.398                    23959851.973
 108059554.279 8  84202370.88146  20563028.023                    20563032.895
 11  7 28  1 54 30.0000000  0  9G10G25G12G17G09G05G04G27G02
 109723624.729 8  85499032.22746  20879692.406                    20879699.391
 126508609.198 6  98578222.75943  24073797.539                    24073807.734
 112234941.754 8  87455868.19846  21357599.297                    21357605.672
 121927103.802 7  95008233.11144  23201946.359                    23201953.820
 124828494.989 6  97269014.82644  23754076.992                    23754086.371
 116125661.410 7  90487617.74846  22097966.758                    22097974.645
 113515609.000 8  88453856.00045  21601283.945                    21601291.348
 125974895.552 6  98162291.93543  23972226.469                    23972236.281
 108057691.348 8  84200919.26946  20562673.727                    20562678.313
 11  7 28  1 55  0.0000000  0  9G10G25G12G17G09G05G04G27G02
 109717981.826 8  85494635.19146  20878618.469                    20878625.727
 126409661.728 7  98501120.95643  24054967.500                    24054978.656
 112178359.759 8  87411778.36046  21346832.109                    21346838.902
 121983207.893 7  95051950.58944  23212622.758                    23212629.824
 124909695.990 6  97332288.29444  23769529.094                    23769538.168
 116033684.867 7  90415947.79945  22080464.188                    22080471.816
 113591512.886 8  88513001.88745  21615727.602                    21615735.242
 126040037.506 6  98213051.81543  23984621.938                    23984632.504
 108056129.394 8  84199702.17246  20562376.188                    20562381.109
 11  7 28  1 55 30.0000000  0  9G10G25G12G17G09G05G04G27G02
 109712970.815 7  85490730.53446  20877665.070                    20877672.566
 126310899.209 7  98424163.28444  24036174.414                    24036185.242
 112122223.250 8  87368035.66646  21336149.828                    21336156.672
 122039469.452 6  95095790.77644  23223328.469                    23223336.008
 124991051.541 6  97395682.16944  23785010.180                    23785019.625
 115942000.599 7  90344505.58646  22063017.164                    22063025.004
 113667573.078 8  88572269.58945  21630201.570                    21630209.160
 126105239.917 6  98263858.80343  23997029.586                    23997039.891
 108054867.415 8  84198718.82946  20562136.289                    20562141.340
 11  7 28  1 56  0.0000000  0  9G10G25G12G17G09G05G04G27G02
 109708592.514 7  85487318.89646  20876832.086                    20876839.121
 126212324.441 7  98347351.87744  24017416.117                    24017426.324
 112066534.918 8  87324642.19746  21325552.859                    21325559.465
 122095889.095 7  95139754.11344  23234065.102                    23234072.133
 125072558.141 6  97459193.74144  23800521.117                    23800530.277
 115850611.876 7  90273293.67146  22045626.367                    22045634.164
 113743787.819 8  88631657.69445  21644704.680                    21644712.484
 126170500.235 6  98314710.92643  24009449.383                    24009458.707
 108053904.511 8  84197968.52446  20561952.930                    20561957.988
 11  7 28  1 56 30.0000000  0  9G10G25G12G17G09G05G04G27G02
 109704846.348 8  85484399.83346  20876118.711                    20876126.070
 126113939.625 7  98270688.52344  23998693.695                    23998704.254
 112011296.217 8  87281599.08546  21315040.984                    21315047.559
 122152466.953 6  95183840.74844  23244832.031                    23244839.176
 125154212.038 6  97522820.11744  23816058.000                    23816068.270
 115759521.083 7  90202313.89845  22028292.742                    22028300.004
 113820154.718 8  88691164.37845  21659237.195                    21659244.551
 126235815.191 6  98365605.61743  24021877.945                    24021887.539
 108053239.022 8  84197449.97946  20561826.297                    20561831.129
 11  7 28  1 57  0.0000000  0  9G10G25G12G17G09G05G04G27G02
 109701733.034 7  85481973.90546  20875526.422                    20875533.891
 126015747.496 7  98194175.31344  23980008.563                    23980018.941
 111956509.923 8  87238908.50146  21304615.344                    21304622.703
 122209203.610 6  95228051.14444  23255627.813                    23255635.320
 125236010.423 6  97586559.05644  23831624.695                    23831633.785
 115668731.049 7  90131568.47846  22011015.883                    22011023.273
 113896672.032 8  88750788.26845  21673797.758                    21673805.359
 126301182.295 7  98416540.94644  24034317.117                    24034326.902
 108052870.202 8  84197162.60646  20561755.898                    20561760.820
 11  7 28  1 57 30.0000000  0  9G10G25G12G17G09G05G04G27G02
 109699252.991 7  85480041.43446  20875054.328                    20875062.141
 125917750.901 7  98117814.45344  23961360.344                    23961370.582
 111902178.109 8  87196572.04846  21294276.383                    21294283.453
 122266099.518 6  95272385.62544  23266454.484                    23266462.902
 125317949.828 6  97650407.87944  23847218.148                    23847226.859
 115578245.052 8  90061059.97746  21993796.672                    21993804.078
 113973337.764 8  88810527.80845  21688386.273                    21688394.137
 126366598.826 7  98467514.78543  24046765.469                    24046775.574
 108052797.139 8  84197105.69146  20561742.180                    20561746.902
 11  7 28  1 58  0.0000000  0  9G10G25G12G17G09G05G04G27G02
 109697406.783 7  85478602.85646  20874703.063                    20874710.254
 125819952.332 6  98041607.90944  23942749.336                    23942760.375
 111848302.590 8  87154591.15446  21284024.570                    21284030.949
 122323155.285 6  95316844.64244  23277312.133                    23277319.566
 125400026.501 6  97714363.67744  23862836.398                    23862845.238
 115488065.985 7  89990790.64146  21976636.055                    21976643.152
 114050149.941 8  88870381.46745  21703003.641                    21703011.191
 126432062.094 6  98518525.05544  24059222.344                    24059232.281
 108053018.882 8  84197278.49646  20561784.078                    20561788.938
 11  7 28  1 58 30.0000000  0  9G10G25G12G17G09G05G04G27G02
 109696194.896 7  85477658.56046  20874472.586                    20874479.594
 125722354.413 7  97965557.70644  23924177.063                    23924187.602
 111794885.962 8  87112967.84046  21273859.727                    21273866.309
 122380371.394 6  95361428.61544  23288199.695                    23288207.691
 125482237.532 6  97778424.15044  23878480.805                    23878489.637
 115398196.570 7  89920762.59446  21959534.430                    21959541.957
 114127106.638 8  88930347.73545  21717647.852                    21717655.594
 126497569.315 6  98569569.54743  24071688.422                    24071698.500
 108053534.267 8  84197680.11746  20561882.219                    20561887.254
 11  7 28  1 59  0.0000000  0  9G10G25G12G17G09G05G04G27G02
 109695617.254 8  85477208.47246  20874362.445                    20874369.918
 125624959.875 7  97889665.95544  23905643.070                    23905654.059
 111741930.443 8  87071703.82546  21263782.586                    21263789.012
 122437747.927 6  95406137.60044  23299118.711                    23299126.336
 125564579.487 6  97842586.65444  23894149.922                    23894158.617
 115308639.593 7  89850977.99946  21942492.234                    21942499.438
 114204205.906 8  88990425.09545  21732319.250                    21732327.133
 126563117.855 6  98620646.27143  24084161.758                    24084171.141
 108054342.244 8  84198309.73046  20562036.398                    20562040.699
 11  7 28  1 59 30.0000000  0  9G10G25G12G17G09G05G04G27G02
 109695674.045 8  85477252.75046  20874373.352                    20874380.387
 125527771.223 6  97813934.60844  23887149.383                    23887159.656
 111689437.969 8  87030800.61746  21253793.125                    21253799.977
 122495285.462 6  95450972.03444  23310067.969                    23310075.055
 125647048.611 6  97906848.26744  23909843.344                    23909852.563
 115219397.789 7  89781438.99446  21925509.781                    21925517.789
 114281445.762 8  89050611.99945  21747017.398                    21747025.063
 126628704.983 6  98671753.03543  24096642.406                    24096652.852
 108055441.395 8  84199166.23246  20562245.078                    20562249.859
 11  7 28  2  0  0.0000000  0  9G10G25G12G17G09G05G04G27G02
 109696365.348 8  85477791.45446  20874504.750                    20874512.313
 125430791.117 6  97738365.74944  23868694.336                    23868705.133
 111637411.113 8  86990260.22146  21243893.016                    21243899.855
 122552984.564 6  95495932.36444  23321047.023                    23321055.426
 125729641.565 6  97971206.36444  23925559.656                    23925569.020
 115130474.119 7  89712147.89946  21908588.375                    21908596.023
 114358824.159 8  89110906.85845  21761742.063                    21761749.742
 126694328.007 6  98722887.81343  24109130.469                    24109141.113
 108056830.934 8  84200249.02946  20562509.766                    20562514.555
 11  7 28  2  0 30.0000000  0  9G10G25G12G17G09G05G04G27G02
 109697691.404 8  85478824.76346  20874757.211                    20874764.609
 125334022.330 6  97662961.54844  23850279.969                    23850290.391
 111585851.482 8  86950083.90546  21234081.156                    21234087.984
 122610845.489 6  95541018.77044  23332057.461                    23332064.980
 125812355.264 6  98035658.54344  23941300.078                    23941309.398
 115041871.591 7  89643107.03146  21891727.633                    21891735.453
 114436339.363 8  89171308.32845  21776492.805                    21776500.328
 126759984.079 6  98774048.30143  24121624.172                    24121633.855
 108058509.911 8  84201557.35246  20562829.031                    20562834.117
 11  7 28  2  1  0.0000000  0  9G10G25G12G17G09G05G04G27G02
 109699652.141 7  85480352.64446  20875130.203                    20875137.367
 125237467.071 6  97587723.71244  23831906.531                    23831916.742
 111534760.772 8  86910272.98146  21224359.086                    21224365.387
 122668868.697 6  95586231.64644  23343098.891                    23343106.699
 125895185.770 6  98100201.75943  23957062.359                    23957071.000
 114953592.585 7  89574318.25445  21874928.852                    21874936.285
 114513989.144 8  89231814.63545  21791269.141                    21791276.801
 126825670.053 6  98825232.10343  24134123.688                    24134133.691
 108060476.491 8  84203089.77746  20563203.477                    20563208.422
 11  7 28  2  1 30.0000000  0  9G10G25G12G17G09G05G04G27G02
 109702248.240 8  85482375.60846  20875624.195                    20875631.359
 125141128.586 7  97512654.77044  23813572.898                    23813583.645
 111484142.064 8  86870829.83446  21214727.055                    21214733.328
 122727054.588 7  95631571.28144  23354171.914                    23354179.527
 125978130.564 7  98164834.04043  23972845.594                    23972854.934
 114865640.098 7  89505783.91846  21858191.688                    21858199.715
 114591771.983 8  89292424.64045  21806070.586                    21806078.250
 126891383.778 6  98876437.51843  24146629.164                    24146638.191
 108062730.485 8  84204846.16646  20563632.102                    20563636.879
 11  7 28  2  2  0.0000000  0  9G10G25G12G17G09G05G04G27G02
 109705479.376 7  85484893.40246  20876239.258                    20876246.211
 125045009.226 7  97437756.56544  23795283.102                    23795293.152
 111433996.790 8  86831755.60846  21205184.344                    21205190.852
 122785403.564 6  95677037.98044  23365275.086                    23365283.023
 126061185.694 7  98229552.28243  23988651.156                    23988659.715
 114778017.231 7  89437506.42046  21841517.750                    21841525.434
 114669685.556 8  89353136.50745  21820896.922                    21820904.934
 126957122.308 6  98927662.27643  24159138.930                    24159148.754
 108065270.143 8  84206825.15546  20564115.656                    20564120.238
 11  7 28  2  2 30.0000000  0  9G10G25G12G17G09G05G04G27G02
 109709345.735 8  85487906.17646  20876974.883                    20876981.957
 124949111.606 7  97363031.15444  23777034.227                    23777044.238
 111384327.230 8  86793052.07246  21195732.883                    21195739.484
 122843915.985 6  95722632.08844  23376409.594                    23376417.156
 126144347.859 7  98294353.95343  24004476.633                    24004484.797
 114690726.713 7  89369487.90046  21824907.125                    21824914.328
 114747728.210 8  89413948.95245  21835747.617                    21835755.734
 127022882.967 6  98978904.28343  24171652.672                    24171662.734
 108068094.690 8  84209026.11946  20564652.938                    20564657.777
 11  7 28  2  3  0.0000000  0  9G10G25G12G17G09G05G04G27G02
 109713847.096 7  85491413.74746  20877831.586                    20877838.492
 124853438.507 7  97288480.69444  23758827.969                    23758837.875
 111335135.374 8  86754720.76546  21186371.461                    21186378.172
 122902592.375 6  95768353.92544  23387575.242                    23387582.984
 126227613.558 6  98359236.28143  24020321.391                    24020330.102
 114603771.115 7  89301730.36946  21808359.594                    21808367.449
 114825897.912 7  89474860.39645  21850623.141                    21850630.586
 127088662.968 5  99030161.35543  24184170.203                    24184179.711
 108071202.794 8  84211448.05646  20565244.203                    20565249.008
 11  7 28  2  3 30.0000000  0  9G10G25G12G17G09G05G04G27G02
 109718983.660 8  85495416.28846  20878809.023                    20878815.668
 124757992.474 7  97214107.17344  23740665.180                    23740675.250
 111286423.171 8  86716763.22246  21177102.047                    21177108.375
 122961433.280 7  95814203.99144  23398772.813                    23398779.922
 126310979.482 6  98424196.71943  24036185.273                    24036193.949
 114517153.153 7  89234235.92646  21791876.852                    21791884.898
 114904192.734 8  89535869.34245  21865522.539                    21865530.047
 127154459.426 6  99081431.33243  24196690.773                    24196701.188
 108074593.457 8  84214090.14946  20565889.703                    20565894.684
 11  7 28  2  4  0.0000000  0  9G10G25G12G17G09G05G04G27G02
 109724755.386 8  85499913.76746  20879906.984                    20879914.469
 124662776.445 7  97139912.89944  23722545.664                    23722555.957
 111238193.355 8  86679181.56446  21167924.219                    21167930.691
 123020438.652 7  95860182.20744  23410000.656                    23410008.863
 126394442.719 7  98489232.97643  24052068.180                    24052076.750
 114430875.999 7  89167007.04446  21775459.000                    21775466.363
 114982611.030 8  89596974.49645  21880444.914                    21880452.305
 127220270.033 6  99132712.24643  24209214.133                    24209224.270
 108078265.746 8  84216951.70346  20566588.445                    20566593.402
 11  7 28  2  4 30.0000000  0  9G10G25G12G17G09G05G04G27G02
 109731162.328 7  85504906.21346  20881126.133                    20881133.621
 124567793.044 7  97065899.89644  23704471.227                    23704481.750
 111190447.084 8  86641976.69346  21158838.352                    21158844.934
 123079609.178 7  95906289.11744  23421260.664                    23421268.434
 126477999.559 6  98554342.16243  24067968.039                    24067976.664
 114344942.305 7  89100045.79046  21759106.375                    21759113.723
 115061150.986 8  89658174.45445  21895390.703                    21895398.316
 127286091.996 6  99184002.00842  24221739.820                    24221749.602
 108082218.581 8  84220031.86046  20567340.461                    20567345.586
 11  7 28  2  5  0.0000000  0  9G10G25G12G17G09G05G04G27G02
 109738203.921 8  85510393.20046  20882466.164                    20882473.340
 124473044.646 7  96992070.02944  23686440.641                    23686451.723
 111143186.631 8  86605150.38746  21149844.555                    21149851.371
 123138945.192 7  95952524.98744  23432552.203                    23432558.945
 126561646.587 6  98619521.63643  24083884.883                    24083894.723
 114259354.409 7  89033353.97746  21742819.648                    21742827.113
 115139810.508 8  89719467.58245  21910358.664                    21910366.281
 127351922.557 6  99235298.48643  24234266.594                    24234276.613
 108086450.725 8  84223329.66246  20568145.938                    20568150.805
 11  7 28  2  5 30.0000000  0  9G10G25G12G17G09G05G04G27G02
 109745880.327 7  85516374.83146  20883927.141                    20883934.207
 124378534.130 7  96918425.53544  23668456.320                    23668467.051
 111096414.043 8  86568704.23346  21140944.359                    21140950.891
 123198446.931 7  95998889.98144  23443875.078                    23443882.180
 126645380.794 6  98684769.04043  24099819.445                    24099829.473
 114174115.586 7  88966934.17746  21726598.945                    21726606.531
 115218587.821 8  89780852.48045  21925349.750                    21925357.723
 127417758.973 6  99286599.53143  24246794.961                    24246806.105
 108090960.993 8  84226844.17246  20569004.203                    20569008.867
 11  7 28  2  6  0.0000000  0  9G10G25G12G17G09G05G04G27G02
 109754191.652 8  85522851.22446  20885508.484                    20885515.477
 124284264.123 7  96844968.46444  23650516.766                    23650527.387
 111050131.344 8  86532639.82246  21132137.133                    21132143.828
 123258114.895 7  96045384.54244  23455229.555                    23455236.473
 126729198.649 6  98750081.60543  24115769.461                    24115778.949
 114089228.284 8  88900788.28646  21710445.344                    21710453.063
 115297481.186 8  89842327.80645  21940362.484                    21940370.738
 127483598.533 6  99337902.97343  24259323.805                    24259334.730
 108095748.113 8  84230574.42146  20569915.242                    20569920.000
 11  7 28  2  6 30.0000000  0  9G10G25G12G17G09G05G04G27G02
 109763137.449 8  85529822.00046  20887210.883                    20887218.082
 124190237.266 7  96771700.86544  23632624.523                    23632634.707
 111004340.519 8  86496958.69146  21123423.164                    21123430.168
 123317949.674 7  96092009.01744  23466615.734                    23466623.367
 126813096.804 6  98815456.74443  24131734.375                    24131744.289
 114004695.448 8  88834918.59746  21694358.906                    21694366.895
 115376488.656 8  89903892.06745  21955397.227                    21955404.840
 127549438.525 6  99389206.78443  24271852.969                    24271863.512
 108100811.250 8  84234519.75146  20570878.359                    20570883.332
 11  7 28  2  7  0.0000000  0  9G10G25G12G17G09G05G04G27G02
 109772717.208 8  85537286.78946  20889033.438                    20889040.891
 124096456.217 7  96698624.83344  23614778.586                    23614788.785
 110959043.205 8  86461662.11146  21114803.461                    21114810.156
 123377951.334 7  96138763.59144  23478033.125                    23478040.828
 126897071.960 6  98880891.87344  24147714.859                    24147724.277
 113920519.621 8  88769327.10246  21678340.883                    21678348.238
 115455608.507 7  89965543.91145  21970453.297                    21970461.043
 127615276.281 6  99440508.85543  24284381.508                    24284392.266
 108106149.029 8  84238679.08046  20571894.219                    20571899.141
 11  7 28  2  7 30.0000000  0  9G10G25G12G17G09G05G04G27G02
 109782930.885 8  85545245.51946  20890977.352                    20890984.395
 124002923.575 7  96625742.34944  23596979.422                    23596989.953
 110914241.512 8  86426751.73046  21106278.031                    21106284.867
 123438120.452 7  96185648.60244  23489482.695                    23489490.313
 126981120.605 6  98946384.29343  24163708.352                    24163718.180
 113836703.443 8  88704015.84346  21662391.375                    21662398.563
 115534838.846 7  90027281.85245  21985530.172                    21985537.836
 127681108.935 6  99491806.95043  24296909.391                    24296919.543
 108111760.325 8  84243051.53746  20572962.070                    20572966.660
 11  7 28  2  8  0.0000000  0  9G10G25G12G17G09G05G04G27G02
 109793778.361 8  85553698.13846  20893041.500                    20893048.699
 123909642.220 7  96553055.68944  23579228.773                    23579239.258
 110869937.603 8  86392229.23146  21097847.180                    21097853.570
 123498457.257 7  96232664.30844  23500965.531                    23500972.535
 127065239.942 6  99011931.76843  24179716.734                    24179725.820
 113753249.944 8  88638987.18946  21646510.758                    21646517.895
 115614177.910 7  90089104.51045  22000627.898                    22000635.547
 127746934.102 6  99543099.20743  24309436.063                    24309446.297
 108117644.286 8  84247636.46046  20574081.969                    20574086.516
 11  7 28  2  8 30.0000000  0  9G10G25G12G17G09G05G04G27G02
 109805259.415 8  85562644.42946  20895226.328                    20895233.348
 123816614.725 7  96480566.82844  23561526.445                    23561536.375
 110826133.159 8  86358095.93846  21089511.500                    21089518.063
 123558962.354 6  96279811.12244  23512478.445                    23512486.445
 127149426.717 6  99077531.77044  24195736.930                    24195746.191
 113670161.697 8  88574243.15346  21630699.211                    21630706.203
 115693623.801 7  90151010.38545  22015746.258                    22015754.125
 127812748.918 6  99594383.38543  24321960.406                    24321970.195
 108123799.843 8  84252433.02146  20575253.195                    20575257.773
 11  7 28  2  9  0.0000000  0  9G10G25G12G17G09G05G04G27G02
 109817373.257 8  85572083.83046  20897531.523                    20897538.684
 123723843.555 7  96408277.67944  23543872.477                    23543882.789
 110782829.823 8  86324353.11146  21081271.211                    21081277.965
 123619635.930 7  96327089.23244  23524024.898                    23524032.316
 127233677.194 7  99143181.42043  24211769.625                    24211778.332
 113587441.259 8  88509785.71846  21614958.141                    21614965.508
 115773174.836 7  90212998.19445  22030884.008                    22030891.402
 127878550.621 6  99645657.34843  24334481.859                    24334491.578
 108130225.511 8  84257440.05546  20576475.586                    20576480.434
 11  7 28  2  9 30.0000000  0  9G10G25G12G17G09G05G04G27G02
 109830119.715 8  85582016.16046  20899956.813                    20899963.953
 123631331.505 7  96336190.45344  23526267.469                    23526278.039
 110740029.815 8  86291002.48846  21073126.781                    21073132.941
 123680478.174 7  96374498.77844  23535602.094                    23535609.672
 127317988.151 7  99208878.23643  24227812.844                    24227822.273
 113505091.647 8  88445617.24446  21599287.648                    21599294.930
 115852829.141 7  90275066.49945  22046041.867                    22046049.344
 127944336.771 6  99696919.17443  24347001.078                    24347010.316
 108136919.869 8  84262656.46246  20577749.742                    20577754.547
 11  7 28  2 10  0.0000000  0  9G10G25G12G17G09G05G04G27G02
 109843498.587 8  85592441.29246  20902502.953                    20902510.035
 123539081.391 7  96264307.31544  23508713.023                    23508723.613
 110697734.859 8  86258045.41146  21065078.148                    21065084.395
 123741489.300 7  96422039.89544  23547212.977                    23547219.922
 127402356.503 7  99274619.75943  24243867.828                    24243877.004
 113423114.932 8  88381739.34546  21583687.734                    21583694.871
 115932585.200 7  90337214.07845  22061218.688                    22061226.590
 128010104.749 6  99748166.86843  24359515.594                    24359525.949
 108143882.376 8  84268081.81146  20579074.602                    20579079.406
 11  7 28  2 10 30.0000000  0  9G10G25G12G17G09G05G04G27G02
 109857509.386 8  85603358.82646  20905169.109                    20905176.402
 123447095.908 7  96192630.38944  23491208.742                    23491218.930
 110655946.789 8  86225483.31246  21057125.781                    21057132.539
 123802669.882 6  96469713.07244  23558854.672                    23558861.969
 127486779.048 7  99340403.50144  24259933.031                    24259941.867
 113341514.589 8  88318154.71246  21568159.500                    21568167.090
 116012441.179 7  90399439.51745  22076415.336                    22076422.926
 128075851.876 6  99799398.33343  24372027.211                    24372037.039
 108151111.903 8  84273715.23346  20580450.539                    20580455.461
 11  7 28  2 11  0.0000000  0  9G10G25G12G17G09G05G04G27G02
 109872151.571 8  85614768.35046  20907955.281                    20907962.398
 123355377.670 7  96121161.69044  23473755.453                    23473765.148
 110614667.415 8  86193317.59846  21049270.922                    21049277.102
 123864020.255 6  96517518.55444  23570529.406                    23570536.809
 127571252.467 6  99406226.88043  24276007.758                    24276017.320
 113260292.857 8  88254865.11746  21552703.453                    21552711.063
 116092395.405 7  90461741.52045  22091629.508                    22091637.609
 128141575.309 5  99850611.27942  24384533.547                    24384543.926
 108158607.319 8  84279555.83346  20581876.844                    20581881.387
 11  7 28  2 11 30.0000000  0  9G10G25G12G17G09G05G04G27G02
 109887424.834 8  85626669.62346  20910861.695                    20910868.855
 123263929.304 7  96049903.26544  23456353.609                    23456363.449
 110573898.430 8  86161549.58546  21041513.000                    21041519.508
 123925540.810 6  96565456.63744  23582235.344                    23582243.488
 127655773.370 6  99472087.28143  24292091.563                    24292100.883
 113179452.302 8  88191872.52846  21537320.000                    21537327.746
 116172445.927 7  90524118.55145  22106863.016                    22106870.832
 128207272.432 5  99901803.78642  24397034.859                    24397045.523
 108166367.044 8  84285602.39946  20583353.156                    20583357.965
 11  7 28  2 12  0.0000000  0  9G10G25G12G17G09G05G04G27G02
 109903328.565 8  85639062.16346  20913888.211                    20913894.926
 123172753.540 7  95978857.25144  23439003.375                    23439013.215
 110533641.731 8  86130180.75846  21033852.313                    21033858.770
 123987231.779 6  96613527.50544  23593975.727                    23593983.445
 127740338.593 6  99537982.20243  24308183.727                    24308193.094
 113098995.692 8  88129179.12246  21522009.695                    21522017.367
 116252591.352 7  90586569.54645  22122114.070                    22122121.938
 128272940.818 5  99952973.84242  24409530.969                    24409542.336
 108174390.244 8  84291854.26446  20584880.109                    20584884.672
 11  7 28  2 12 30.0000000  0  9G10G25G12G17G09G05G04G27G02
 109919862.377 8  85651945.67846  20917034.570                    20917041.836
 123081853.083 7  95908025.75144  23421705.719                    23421715.895
 110493899.311 8  86099212.66446  21026289.688                    21026295.996
 124049093.603 6  96661731.53444  23605746.875                    23605754.863
 127824944.793 7  99603909.07043  24324284.086                    24324293.422
 113018925.798 8  88066787.04346  21506772.867                    21506780.422
 116332829.675 7  90649092.91745  22137382.875                    22137390.570
 128338577.664 5 100004119.33042  24422021.594                    24422032.355
 108182675.868 8  84298310.61446  20586456.633                    20586461.078
 11  7 28  2 13  0.0000000  0  9G10G25G12G17G09G05G04G27G02
 109937025.360 8  85665319.45046  20920300.773                    20920307.527
 122991230.438 7  95837410.72644  23404460.727                    23404470.344
 110454672.623 8  86068646.44146  21018824.656                    21018831.098
 124111126.509 6  96710068.84143  23617551.500                    23617559.477
 127909588.949 6  99669865.50443  24340391.180                    24340400.395
 112939244.866 8  88004698.06446  21491610.141                    21491617.867
 116413159.050 7  90711687.24245  22152669.016                    22152676.938
 128404180.269 5 100055238.17442  24434505.023                    24434516.418
 108191222.454 8  84304970.31546  20588083.031                    20588087.859
 11  7 28  2 13 30.0000000  0  9G10G25G12G17G09G05G04G27G02
 109954816.934 8  85679183.02846  20923686.281                    20923693.254
 122900888.340 7  95767014.31644  23387269.078                    23387278.707
 110415963.287 8  86038483.34546  21011458.633                    21011464.832
 124173330.792 6  96758539.72544  23629388.648                    23629396.617
 127994267.584 6  99735848.84043  24356505.250                    24356514.531
 112859955.690 8  87942914.33446  21476522.031                    21476529.469
 116493578.096 7  90774351.42845  22167972.516                    22167980.320
 128469746.066 5 100106328.27742  24446981.750                    24446993.211
 108200029.173 8  84311832.71246  20589759.125                    20589763.496
 11  7 28  2 14  0.0000000  0  9G10G25G12G17G09G05G04G27G02
 109973236.714 8  85693536.13246  20927191.063                    20927198.121
 122810829.630 7  95696838.72644  23370131.359                    23370141.254
 110377773.347 8  86008724.96546  21004191.242                    21004197.516
 124235706.605 6  96807144.26044  23641258.828                    23641265.629
 128078977.375 6  99801856.40943  24372625.500                    24372634.246
 112781060.846 8  87881437.88146  21461508.813                    21461516.027
 116574085.055 7  90837084.12545  22183292.320                    22183299.555
 128535272.655 5 100157387.88842  24459451.742                    24459463.027
 108209094.779 8  84318896.83546  20591484.227                    20591488.695
 11  7 28  2 14 30.0000000  0  9G10G25G12G17G09G05G04G27G02
 109992283.617 8  85708377.89846  20930815.531                    20930822.531
 122721056.729 7  95626885.84444  23353047.781                    23353058.270
 110340104.009 8  85979372.25646  20997023.000                    20997029.738
 124298254.342 6  96855882.73944  23653161.297                    23653168.617
 128163715.092 6  99867885.75043  24388749.992                    24388758.816
 112702562.760 8  87820270.59146  21446571.078                    21446578.641
 116654678.113 7  90899883.92545  22198628.875                    22198636.340
 128600757.122 6 100208414.68042  24471913.398                    24471923.582
 108218418.084 8  84326161.77346  20593258.195                    20593262.879
 11  7 28  2 15  0.0000000  0  9G10G25G12G17G09G05G04G27G02
 110011957.327 8  85723708.08646  20934559.273                    20934566.273
 122631572.621 7  95557158.02844  23336020.047                    23336029.547
 110302957.508 8  85950426.95346  20989954.344                    20989960.738
 124360974.473 6  96904755.56244  23665095.805                    23665103.879
 128248477.932 6  99933934.67843  24404879.867                    24404888.750
 112624464.376 8  87759414.76046  21431709.336                    21431716.762
 116735355.696 7  90962749.56345  22213981.133                    22213988.484
 128666197.052 6 100259406.78042  24484366.469                    24484376.707
 108227998.114 8  84333626.75446  20595081.258                    20595085.996
 11  7 28  2 15 30.0000000  0  9G10G25G12G17G09G05G04G27G02
 110032257.212 8  85739526.19946  20938422.227                    20938429.461
 122542379.926 7  95487657.28344  23319046.742                    23319056.703
 110266335.150 8  85921890.07546  20982985.203                    20982991.898
 124423867.181 6  96953762.87944  23677064.430                    23677071.371
 128333262.591 6 100000000.61843  24421013.406                    24421021.969
 112546768.090 8  87698872.24046  21416924.141                    21416931.098
 116816116.362 7  91025679.95945  22229349.500                    22229356.883
 128731589.755 6 100310362.05443  24496810.563                    24496820.445
 108237833.380 8  84341290.62046  20596953.070                    20596957.473
 11  7 28  2 16  0.0000000  0  8G10G25G12G17G09G05G04G02
 110053182.667 8  85755831.76446  20942404.367                    20942411.129
 122453481.330 7  95418385.72144  23302129.594                    23302139.930
 110230239.065 8  85893763.27646  20976116.453                    20976123.078
 124486933.219 6  97002905.26544  23689065.125                    23689072.918
 128418065.824 6 100066081.01943  24437151.320                    24437160.742
 112469476.068 8  87638644.74346  21402215.766                    21402223.125
 116896958.268 7  91088673.65545  22244733.078                    22244740.707
 108247923.046 8  84349152.72146  20598872.664                    20598877.137
 11  7 28  2 16 30.0000000  0  8G10G25G12G17G09G05G04G02
 110074732.500 8  85772623.86646  20946505.078                    20946512.051
 122364879.337 7  95349345.27144  23285269.492                    23285279.461
 110194670.261 8  85866047.34746  20969347.859                    20969354.164
 124550171.960 6  97052182.17444  23701099.578                    23701106.148
 128502884.232 6 100132173.24743  24453291.695                    24453301.320
 112392591.778 8  87578734.94746  21387584.992                    21387592.395
 116977879.995 7  91151729.55245  22260131.586                    22260139.738
 108258265.507 8  84357211.80146  20600840.969                    20600845.371
 11  7 28  2 17  0.0000000  0  8G10G25G12G17G09G05G04G02
 110096905.942 7  85789901.89246  20950724.383                    20950731.672
 122276576.651 7  95280538.05044  23268465.586                    23268476.305
 110159630.504 8  85838743.66346  20962679.703                    20962686.305
 124613584.162 6  97101594.26344  23713166.734                    23713174.125
 128587714.716 6 100198274.84343  24469434.523                    24469443.535
 112316116.931 8  87519144.19746  21373032.422                    21373039.492
 117058879.711 7  91214846.21045  22275546.039                    22275553.281
 108268860.173 8  84365467.40846  20602857.000                    20602861.387
 11  7 28  2 17 30.0000000  0  8G10G25G12G17G09G05G04G02
 110119702.333 8  85807665.32846  20955062.102                    20955069.543
 122188575.954 7  95211966.15844  23251720.000                    23251729.703
 110125121.630 8  85811853.65746  20956112.930                    20956119.699
 124677170.004 6  97151141.67144  23725266.742                    23725273.617
 128672554.234 6 100264383.48943  24485578.891                    24485587.867
 112240054.166 8  87459874.55146  21358558.313                    21358565.461
 117139955.642 7  91278022.27145  22290973.969                    22290981.297
 108279705.749 8  84373918.52446  20604920.992                    20604925.445
 11  7 28  2 18  0.0000000  0  8G10G25G12G17G09G05G04G02
 110143120.858 7  85825913.54246  20959519.016                    20959526.063
 122100879.903 7  95143631.64845  23235031.938                    23235042.051
 110091145.014 8  85785378.40646  20949647.422                    20949654.105
 124740929.630 6  97200824.49644  23737399.422                    23737407.383
 128757399.483 6 100330496.60043  24501724.250                    24501733.559
 112164406.061 8  87400928.02746  21344162.906                    21344170.004
 117221106.398 7  91341256.63345  22306416.688                    22306423.949
 108290800.894 8  84382564.11246  20607032.219                    20607036.617
 11  7 28  2 18 30.0000000  0  8G10G25G12G17G09G05G04G02
 110167160.218 8  85844645.53546  20964093.422                    20964100.430
 122013490.994 7  95075536.45645  23218402.563                    23218412.457
 110057701.757 8  85759318.74946  20943283.734                    20943289.840
 124804863.400 6  97250642.99544  23749565.898                    23749572.844
 128842247.311 6 100396611.72843  24517871.227                    24517880.250
 112089175.025 8  87342306.48146  21329846.734                    21329854.180
 117302330.251 7  91404547.94145  22321872.734                    22321880.320
 108302144.443 8  84391403.26646  20609190.789                    20609195.078
 11  7 28  2 19  0.0000000  0  8G10G25G12G17G09G05G04G02
 110191819.962 7  85863860.93546  20968786.367                    20968792.695
 121926411.963 7  95007682.76045  23201831.406                    23201841.375
 110024793.745 8  85733676.16646  20937021.406                    20937027.711
 124868971.323 6  97300597.22644  23761765.195                    23761772.789
 128927094.732 6 100462726.49043  24534016.375                    24534026.734
 112014363.342 8  87284011.70946  21315610.422                    21315617.844
 117383625.584 7  91467894.96945  22337342.836                    22337349.957
 108313735.271 8  84400435.10446  20611396.273                    20611400.738
 11  7 28  2 19 30.0000000  0  8G10G25G12G17G09G05G04G02
 110217098.731 8  85883558.69646  20973596.648                    20973603.527
 121839645.493 7  94940072.58145  23185320.609                    23185330.988
 109992422.417 8  85708451.78146  20930861.289                    20930867.836
 124933253.926 6  97350687.56343  23773997.438                    23774004.980
 129011938.433 6 100528838.40743  24550161.391                    24550171.207
 111939973.543 8  87226045.68246  21301454.719                    21301462.020
 117464990.839 7  91531296.46445  22352826.320                    22352833.445
 108325572.299 8  84409658.77646  20613648.891                    20613653.484
 11  7 28  2 20  0.0000000  0  8G10G25G12G17G09G05G04G02
 110242995.626 7  85903738.10446  20978524.492                    20978531.008
 121753194.063 7  94872707.90745  23168869.070                    23168879.535
 109960589.486 8  85683646.92646  20924803.414                    20924809.848
 124997711.200 6  97400913.99144  23786263.930                    23786271.414
 129096775.318 6 100594944.97843  24566306.383                    24566315.293
 111866008.289 8  87168410.45846  21287379.367                    21287386.574
 117546424.440 7  91594751.23745  22368322.313                    22368329.957
 108337653.970 8  84419073.08146  20615947.656                    20615952.434
 11  7 28  2 20 30.0000000  0  8G10G25G12G17G09G05G04G02
 110269509.960 7  85924398.64746  20983569.930                    20983577.277
 121667060.621 7  94805591.02144  23152478.297                    23152488.363
 109929296.277 8  85659262.63646  20918848.781                    20918855.434
 125062343.783 6  97451277.03844  23798563.078                    23798570.465
 129181602.112 6 100661043.69144  24582448.320                    24582457.359
 111792470.165 8  87111108.06746  21273385.719                    21273393.039
 117627924.845 7  91658258.04644  22383831.266                    22383838.664
 108349979.864 8  84428677.69846  20618293.039                    20618297.992
 11  7 28  2 21  0.0000000  0  8G10G25G12G17G09G05G04G02
 110296640.722 7  85945539.51846  20988732.984                    20988739.746
 121581247.775 7  94738723.93645  23136149.289                    23136159.199
 109898544.016 8  85635299.85746  20912996.703                    20913003.227
 125127151.736 6  97501776.75544  23810895.313                    23810903.012
 129266415.642 7 100727132.07144  24598587.930                    24598597.246
 111719361.468 8  87054140.30846  21259473.516                    21259480.563
 117709490.701 7  91721815.85045  22399352.477                    22399360.391
 108362548.526 8  84438471.47946  20620685.156                    20620689.434
 11  7 28  2 21 30.0000000  0  8G10G25G12G17G09G05G04G02
 110324386.946 7  85967159.97646  20994012.609                    20994019.859
 121495758.173 7  94672108.74445  23119880.883                    23119890.695
 109868334.536 8  85611760.03546  20907247.625                    20907254.359
 125192135.253 6  97552413.24844  23823261.008                    23823268.262
 129351212.954 6 100793207.84444  24614723.617                    24614733.719
 111646684.440 8  86997508.89246  21245643.789                    21245650.590
 117791120.418 7  91785423.42244  22414886.352                    22414894.152
 108375358.765 8  84448453.49446  20623122.828                    20623127.648
 11  7 28  2 22  0.0000000  0  8G10G25G12G17G09G05G04G02
 110352747.266 8  85989258.94946  20999409.258                    20999416.258
 121410594.384 7  94605747.41644  23103674.852                    23103684.910
 109838669.028 8  85588644.07846  20901602.844                    20901609.242
 125257294.261 6  97603186.50644  23835660.414                    23835668.496
 129435991.003 7 100859268.59644  24630856.844                    24630866.340
 111574441.625 8  86941215.83846  21231895.828                    21231903.473
 117872812.398 7  91849079.50745  22430431.758                    22430439.211
 108388409.260 8  84458622.72846  20625606.266                    20625610.664
 11  7 28  2 22 30.0000000  0  8G10G25G12G17G09G05G04G02
 110381720.620 7  86011835.61246  21004922.563                    21004930.098
 121325759.006 7  94539641.99844  23087530.719                    23087540.496
 109809549.002 8  85565953.17446  20896061.438                    20896068.039
 125322629.288 6  97654096.90644  23848093.258                    23848101.324
 129520746.794 6 100925311.98944  24646985.500                    24646994.668
 111502635.132 8  86885262.77346  21218231.773                    21218239.086
 117954565.099 7  91912782.89945  22445989.078                    22445996.262
 108401699.210 8  84468978.55946  20628135.406                    20628139.871
 11  7 28  2 23  0.0000000  0  8G10G25G12G17G09G05G04G02
 110411306.127 7  86034889.26945  21010552.492                    21010559.492
 121241254.679 7  94473794.53544  23071450.500                    23071460.281
 109780975.540 8  85543688.16046  20890623.984                    20890630.355
 125388140.509 6  97705144.61244  23860559.797                    23860567.754
 129605477.233 7 100991335.63643  24663108.883                    24663118.488
 111431267.356 8  86829651.56546  21204651.109                    21204657.660
 118036376.954 7  91976532.39045  22461557.453                    22461565.063
 108415227.314 8  84479519.94646  20630709.227                    20630714.059
 11  7 28  2 23 30.0000000  0  8G10G25G12G17G09G05G04G02
 110441502.173 8  86058418.68045  21016298.875                    21016305.621
 121157083.972 7  94408207.03045  23055432.844                    23055442.480
 109752950.063 8  85521850.14546  20885291.102                    20885297.426
 125453827.952 6  97756329.62844  23873060.117                    23873067.105
 129690178.943 6 101057336.91443  24679226.539                    24679237.094
 111360340.822 8  86774384.18346  21191154.016                    21191161.707
 118118246.422 7  92040326.77645  22477136.578                    22477143.660
 108428992.110 8  84490245.78546  20633328.602                    20633333.305
 11  7 28  2 24  0.0000000  0  8G10G25G12G17G09G05G04G02
 110472308.024 7  86082423.26946  21022160.852                    21022167.910
 121073249.691 7  94342881.66844  23039479.891                    23039489.453
 109725473.991 8  85500440.23546  20880062.555                    20880069.031
 125519691.888 6  97807652.16444  23885593.695                    23885600.828
 129774849.201 6 101123313.63443  24695339.727                    24695349.441
 111289857.909 8  86719462.47646  21177741.359                    21177748.746
 118200172.130 7  92104164.99845  22492726.586                    22492734.102
 108442992.828 8  84501155.45446  20635993.297                    20635997.457
 11  7 28  2 24 30.0000000  0  8G10G25G12G17G09G05G04G02
 110503722.466 7  86106902.08346  21028138.656                    21028145.281
 120989754.382 7  94277820.44245  23023590.797                    23023600.570
 109698548.565 8  85479459.39946  20874938.742                    20874944.984
 125585732.387 6  97859112.28044  23898159.969                    23898168.102
 129859484.738 6 101189263.36443  24711444.422                    24711455.059
 111219820.560 8  86664887.95946  21164413.758                    21164421.035
 118282152.722 7  92168045.97445  22508326.906                    22508334.551
 108457228.205 8  84512247.96346  20638701.969                    20638706.715
 11  7 28  2 25  0.0000000  0  8G10G25G12G17G09G05G04G02
 110535744.191 8  86131854.10445  21034232.328                    21034239.148
 120906600.655 7  94213025.36345  23007767.430                    23007776.801
 109672175.164 8  85458908.70746  20869920.188                    20869926.430
 125651949.653 6  97910710.13144  23910760.781                    23910768.949
 129944082.647 6 101255183.74942  24727543.461                    24727553.328
 111150231.501 8  86610662.76246  21151171.422                    21151178.301
 118364186.652 7  92231968.51245  22523937.672                    22523944.875
 108471697.146 8  84523522.47346  20641455.359                    20641460.027
 11  7 28  2 25 30.0000000  0  8G10G25G12G17G09G05G04G02
 110568371.811 7  86157278.25046  21040441.570                    21040447.707
 120823790.970 7  94148498.39345  22992009.273                    22992018.516
 109646354.944 8  85438789.07246  20865006.922                    20865012.977
 125718344.062 6  97962446.02544  23923395.305                    23923403.352
 130028639.720 5 101321072.28442  24743634.164                    24743643.496
 111081092.722 8  86556788.43346  21138015.078                    21138021.758
 118446272.357 7  92295931.40344  22539557.688                    22539564.844
 108486398.251 8  84534977.88746  20644252.578                    20644257.305
 11  7 28  2 26  0.0000000  0  8G10G25G12G17G09G05G04G02
 110601603.771 7  86183173.30846  21046765.055                    21046771.785
 120741328.050 7  94084241.61545  22976317.391                    22976326.961
 109621088.871 8  85419101.23546  20860198.469                    20860204.883
 125784915.718 6  98014320.02444  23936064.188                    23936071.641
 130113152.998 5 101386926.74242  24759717.344                    24759726.520
 111012406.623 8  86503266.83646  21124944.242                    21124950.859
 118528408.307 7  92359933.43244  22555187.984                    22555195.059
 108501330.611 8  84546613.50146  20647094.234                    20647099.121
 11  7 28  2 26 30.0000000  0  8G10G25G12G17G09G05G04G02
 110635439.183 8  86209538.58646  21053203.391                    21053210.398
 120659214.596 7  94020257.16045  22960691.391                    22960700.641
 109596378.508 8  85399846.42546  20855496.359                    20855502.594
 125851664.665 6  98066332.19144  23948765.438                    23948773.293
 130197619.166 6 101452744.43842  24775789.320                    24775799.758
 110944175.545 8  86450099.81146  21111960.211                    21111967.387
 118610593.479 7  92423973.83144  22570826.664                    22570834.520
 108516493.119 8  84558428.46346  20649979.281                    20649984.082
 11  7 28  2 27  0.0000000  0  8G10G25G12G17G09G05G04G02
 110669876.817 8  86236373.13546  21059756.969                    21059763.816
 120577453.190 7  93956547.00845  22945132.742                    22945141.961
 109572224.894 8  85381025.43746  20850900.266                    20850905.973
 125918590.962 6  98118482.53144  23961501.172                    23961509.172
 130282035.646 6 101518523.50042  24791853.281                    24791863.988
 110876401.560 8  86397288.95046  21099063.156                    21099070.004
 118692826.061 7  92488051.15944  22586475.422                    22586483.203
 108531884.678 8  84570421.89246  20652908.555                    20652913.273
 11  7 28  2 27 30.0000000  0  8G10G25G12G17G09G05G04G02
 110704915.028 8  86263675.65446  21066424.297                    21066430.875
 120496046.448 7  93893113.23145  22929641.539                    22929650.828
 109548629.653 8  85362639.55446  20846410.234                    20846416.426
 125985694.838 6  98170771.23344  23974270.367                    23974278.066
 130366399.225 6 101584261.28242  24807907.750                    24807918.168
 110809087.069 8  86344836.13646  21086254.047                    21086260.461
 118775104.898 7  92552164.53944  22602132.555                    22602140.066
 108547504.002 8  84582592.81646  20655880.742                    20655885.633
 11  7 28  2 28  0.0000000  0  8G10G25G12G17G09G05G04G02
 110740552.470 8  86291445.12846  21073206.031                    21073212.910
 120414996.859 7  93829957.75845  22914218.172                    22914227.906
 109525593.164 8  85344689.05246  20842026.617                    20842032.602
 126052976.459 7  98223198.46143  23987073.805                    23987081.543
 130450706.907 6 101649955.52943  24823952.016                    24823960.363
 110742234.204 8  86292743.03246  21073532.063                    21073539.137
 118857428.427 7  92616312.76344  22617797.836                    22617806.027
 108563350.088 8  84594940.42946  20658896.156                    20658900.574
 11  7 28  2 28 30.0000000  0  8G10G25G12G17G09G05G04G02
 110776787.713 8  86319680.38146  21080101.266                    21080108.262
 120334306.987 7  93767082.59145  22898863.305                    22898872.977
 109503117.135 8  85327175.27946  20837749.039                    20837755.473
 126120436.003 6  98275764.35843  23999911.344                    23999918.559
 130534955.610 6 101715603.87543  24839983.469                    24839992.289
 110675845.071 8  86241011.28146  21060898.594                    21060904.719
 118939795.180 7  92680494.62444  22633472.336                    22633479.586
 108579421.672 8  84607463.75446  20661954.578                    20661959.137
 11  7 28  2 29  0.0000000  0  8G10G25G12G17G09G05G04G02
 110813620.260 7  86348381.09246  21087110.328                    21087117.383
 120253980.256 7  93704490.40345  22883577.391                    22883587.230
 109481203.391 8  85310099.65046  20833579.008                    20833585.512
 126188074.407 6  98328469.58143  24012782.117                    24012789.160
 130619143.217 6 101781204.56643  24856003.773                    24856013.281
 110609922.653 8  86189643.19146  21048354.039                    21048360.641
 119022204.815 7  92744709.93344  22649154.234                    22649161.195
 108595718.533 8  84620162.61946  20665055.211                    20665060.461
 11  7 28  2 29 30.0000000  0  7G10G25G12G17G05G04G02
 110851047.985 8  86377545.57846  21094232.266                    21094239.680
 120174018.649 7  93642182.72645  22868361.141                    22868371.023
 109459852.386 8  85293462.51946  20829516.164                    20829522.672
 126255891.442 6  98381314.03343  24025687.156                    24025694.910
 110544468.740 8  86138640.17246  21035898.539                    21035904.828
 119104655.306 7  92808957.06344  22664843.844                    22664851.398
 108612238.799 8  84633035.56846  20668199.367                    20668203.852
 11  7 28  2 30  0.0000000  0  7G10G25G12G17G05G04G02
 110889069.271 8  86407172.57946  21101467.844                    21101474.535
 120094424.490 7  93580161.36145  22853215.070                    22853224.734
 109439064.486 8  85277264.17046  20825560.234                    20825566.977
 126323886.494 6  98434297.19043  24038625.492                    24038633.352
 110479485.134 8  86088003.63046  21023532.227                    21023539.047
 119187144.877 7  92873234.64444  22680540.859                    22680549.000
 108628980.916 7  84646081.38146  20671385.398                    20671389.930
 11  7 28  2 30 30.0000000  0  7G10G25G12G17G05G04G02
 110927682.621 8  86437260.92746  21108815.758                    21108822.742
 120015200.368 7  93518428.35945  22838139.289                    22838148.680
 109418841.112 8  85261505.71446  20821711.977                    20821717.867
 126392059.819 6  98487419.29543  24051598.492                    24051606.914
 110414973.766 8  86037735.07446  21011256.258                    21011263.285
 119269672.360 7  92937541.74544  22696245.352                    22696252.945
 108645944.253 8  84659299.58146  20674613.422                    20674618.020
 11  7 28  2 31  0.0000000  0  7G10G25G12G17G05G04G02
 110966886.479 8  86467809.39546  21116275.969                    21116282.809
 119936348.843 7  93456985.67345  22823134.547                    22823144.023
 109399183.146 8  85246187.83646  20817971.133                    20817977.598
 126460411.410 6  98540680.22043  24064605.813                    24064613.977
 110350936.647 8  85987836.05446  20999070.336                    20999077.219
 119352236.337 7  93001877.31144  22711956.883                    22711964.613
 108663127.393 8  84672689.06346  20677883.523                    20677887.441
 11  7 28  2 31 30.0000000  0  7G10G25G12G17G05G04G02
 111006679.039 8  86498816.60746  21123848.266                    21123855.320
 119857872.361 7  93395835.22945  22808200.625                    22808210.797
 109380091.697 7  85231311.40646  20814338.328                    20814344.723
 126528941.376 6  98594080.21943  24077647.367                    24077654.094
 110287376.108 8  85938308.39146  20986975.313                    20986981.891
 119434835.301 7  93066240.12944  22727674.820                    22727682.695
 108680529.248 8  84686248.95746  20681194.508                    20681199.211
 11  7 28  2 32  0.0000000  0  7G10G25G12G17G05G04G02
 111047058.572 8  86530281.18646  21131532.164                    21131538.762
 119779773.273 7  93334978.87145  22793338.672                    22793348.199
 109361567.401 8  85216876.90946  20810812.906                    20810819.320
 126597649.574 6  98647619.10743  24090722.133                    24090728.949
 110224294.064 8  85889153.59046  20974971.281                    20974978.043
 119517468.040 7  93130629.28544  22743399.047                    22743407.031
 108698148.445 8  84699978.21946  20684547.344                    20684551.965
 11  7 28  2 32 30.0000000  0  7G10G25G12G17G05G04G02
 111088023.718 7  86562202.07946  21139327.500                    21139334.172
 119702054.260 7  93274418.67345  22778549.133                    22778558.785
 109343611.448 8  85202885.27746  20807396.430                    20807402.352
 126666536.105 6  98701296.88843  24103830.453                    24103837.945
 110161692.608 8  85840373.28246  20963058.391                    20963065.410
 119600133.072 7  93195043.57344  22759130.352                    22759137.801
 108715984.064 8  84713876.13346  20687941.281                    20687945.898
 11  7 28  2 33  0.0000000  0  7G10G25G12G17G05G04G02
 111129572.878 7  86594578.06846  21147234.078                    21147241.227
 119624717.874 7  93214156.61145  22763832.664                    22763842.371
 109326224.698 7  85189337.18646  20804087.914                    20804094.035
 126735601.429 6  98755114.02443  24116972.922                    24116980.965
 110099573.661 8  85791968.95346  20951237.422                    20951243.895
 119682829.349 7  93259482.23644  22774867.172                    22774874.254
 108734034.982 8  84727941.81346  20691376.227                    20691380.902
 11  7 28  2 33 30.0000000  0  7G10G25G12G17G05G04G02
 111171704.600 7  86627407.98746  21155251.367                    21155258.305
 119547766.614 7  93154194.63245  22749189.156                    22749198.820
 109309407.882 7  85176233.19646  20800887.438                    20800893.656
 126804845.531 6  98809070.45343  24130149.883                    24130157.039
 110037939.384 8  85743942.26046  20939508.539                    20939515.602
 119765555.411 7  93323944.10744  22790608.453                    22790616.395
 108752299.904 8  84742174.23246  20694851.875                    20694856.418
 11  7 28  2 34  0.0000000  0  7G10G25G12G17G05G04G02
 111214417.131 7  86660690.49245  21163379.109                    21163385.848
 119471202.984 7  93094534.70345  22734619.789                    22734628.551
 109293162.026 8  85163574.10646  20797796.102                    20797802.047
 126874268.458 6  98863166.25343  24143360.469                    24143367.906
 109976791.734 8  85696294.77546  20927872.844                    20927879.641
 119848310.021 7  93388428.24044  22806356.977                    22806363.285
 108770777.860 8  84756572.66646  20698368.102                    20698372.980
 11  7 28  2 34 30.0000000  0  7G10G25G12G17G05G04G02
 111257709.266 7  86694424.62245  21171617.547                    21171624.352
 119395029.897 7  93035179.10045  22720124.281                    22720133.438
 109277488.399 7  85151360.91246  20794813.523                    20794819.723
 126943870.378 7  98917401.50944  24156605.008                    24156613.566
 109916133.216 8  85649028.42546  20916329.633                    20916336.410
 119931092.242 7  93452933.87844  22822109.484                    22822117.199
 108789468.234 8  84771136.61646  20701924.883                    20701929.113
 11  7 28  2 35  0.0000000  0  7G10G25G12G17G05G04G02
 111301578.649 7  86728608.57545  21179965.758                    21179972.191
 119319249.636 7  92976129.58045  22705703.969                    22705713.266
 109262387.625 8  85139594.09146  20791939.797                    20791945.664
 127013650.999 7  98971776.02344  24169884.188                    24169891.906
 109855965.454 8  85602144.49246  20904880.633                    20904887.117
 120013900.810 7  93517460.02444  22837867.766                    22837875.848
 108808369.572 8  84785864.95046  20705521.625                    20705526.395
 11  7 28  2 35 30.0000000  0  7G10G25G12G17G05G04G02
 111346023.184 7  86763240.68745  21188423.047                    21188429.723
 119243864.187 7  92917387.69745  22691358.539                    22691367.957
 109247859.974 7  85128273.86646  20789175.141                    20789181.637
 127083610.459 6  99026289.86844  24183197.289                    24183204.348
 109796289.963 8  85555644.14746  20893524.422                    20893531.395
 120096733.740 7  93582005.15944  22853630.266                    22853637.836
 108827480.220 7  84800756.39146  20709158.523                    20709162.918
 11  7 28  2 36  0.0000000  0  7G10G25G12G17G05G04G02
 111391041.685 7  86798320.04946  21196989.914                    21196996.707
 119168876.668 7  92858955.88345  22677088.742                    22677098.012
 109233906.793 8  85117401.26946  20786520.344                    20786526.105
 127153748.810 7  99080943.12344  24196543.750                    24196551.473
 109737109.108 8  85509529.24146  20882262.492                    20882269.258
 120179590.533 7  93646568.88144  22869397.414                    22869404.977
 108846799.818 8  84815810.65546  20712834.547                    20712839.109
 11  7 28  2 36 30.0000000  0  7G10G25G12G17G05G04G02
 111436632.093 7  86833845.06546  21205664.938                    21205672.086
 119094289.201 7  92800835.80745  22662895.242                    22662904.566
 109220528.533 8  85106976.66846  20783974.766                    20783980.738
 127224065.964 7  99135735.71644  24209924.875                    24209932.469
 109678424.610 8  85463801.09346  20871095.469                    20871101.629
 120262469.715 7  93711150.07144  22885168.719                    22885176.352
 108866326.862 8  84831026.55846  20716550.758                    20716554.973
 11  7 28  2 37  0.0000000  0  7G10G25G12G17G05G04G02
 111482792.873 7  86869814.51545  21214449.406                    21214456.148
 119020104.487 7  92743029.54945  22648778.039                    22648787.250
 109207726.036 7  85097000.70446  20781537.992                    20781544.066
 127294562.141 7  99190667.81444  24223340.055                    24223347.516
 109620238.895 8  85418461.62146  20860022.570                    20860029.430
 120345370.174 7  93775747.82344  22900943.867                    22900951.723
 108886060.543 7  84846403.48446  20720305.664                    20720309.965
 11  7 28  2 37 30.0000000  0  7G10G25G12G17G05G04G02
 111529522.396 7  86906227.13745  21223341.773                    21223348.773
 118946324.929 7  92685539.00345  22634738.375                    22634747.375
 109195500.217 8  85087474.11046  20779211.563                    20779217.398
 127365237.433 7  99245739.45844  24236788.422                    24236796.941
 109562553.525 8  85373512.01946  20849045.672                    20849052.621
 120428290.733 7  93840361.25244  22916723.539                    22916731.391
 108905999.818 7  84861940.59246  20724100.508                    20724104.684
 11  7 28  2 38  0.0000000  0  7G10G25G12G17G05G04G02
 111576818.571 7  86943081.30345  21232342.008                    21232348.395
 118872952.889 7  92628366.00545  22620776.320                    22620785.996
 109183851.362 8  85078397.08646  20776994.898                    20777000.938
 127436091.715 6  99300950.57444  24250271.781                    24250279.930
 109505369.900 8  85328953.38846  20838163.961                    20838170.883
 120511230.089 7  93904989.33044  22932506.125                    22932513.883
 108926143.369 7  84877636.89146  20727933.133                    20727937.496
 11  7 28  2 38 30.0000000  0  8G10G25G12G17G29G05G04G02
 111624679.151 7  86980375.26745  21241449.852                    21241456.113
 118799990.650 7  92571512.35445  22606891.914                    22606901.738
 109172779.853 8  85069769.94746  20774887.953                    20774894.367
 127507124.774 6  99356300.98244  24263789.188                    24263797.137
 129514247.38616 100920242.06252  24645745.891                    24645754.574
 109448690.069 8  85284787.32646  20827378.211                    20827384.688
 120594186.775 7  93969630.88944  22948292.289                    22948300.406
 108946489.794 8  84893491.27446  20731804.969                    20731809.137
 11  7 28  2 39  0.0000000  0  8G10G25G12G17G29G05G04G02
 111673103.018 7  87018108.16446  21250664.328                    21250671.105
 118727440.979 7  92514980.17745  22593086.594                    22593095.625
 109162286.920 7  85061593.64846  20772891.008                    20772897.465
 127578336.844 6  99411790.94443  24277340.805                    24277347.813
 129434017.662 6 100857725.52343  24630477.375                    24630487.500
 109392516.166 8  85241015.49446  20816688.617                    20816695.684
 120677160.054 7  94034285.38644  22964081.852                    22964089.309
 108967038.213 8  84909503.04746  20735715.438                    20735719.766
 11  7 28  2 39 30.0000000  0  8G10G25G12G17G29G05G04G02
 111722087.874 7  87056278.19346  21259985.617                    21259992.668
 118655306.153 7  92458771.27245  22579359.352                    22579368.785
 109152373.200 8  85053868.68246  20771004.727                    20771010.977
 127649727.987 6  99467420.37743  24290925.578                    24290933.660
 129353719.996 6 100795155.90943  24615198.688                    24615207.156
 109336849.642 8  85197639.02746  20806095.672                    20806102.117
 120760148.480 7  94098951.70344  22979874.016                    22979881.121
 108987787.824 8  84925671.59346  20739663.602                    20739668.262
 11  7 28  2 40  0.0000000  0  8G10G25G12G17G29G05G04G02
 111771632.077 7  87094884.06346  21269413.828                    21269420.500
 118583588.754 7  92402887.63545  22565711.742                    22565721.254
 109143039.387 7  85046595.58446  20769228.734                    20769235.113
 127721297.898 6  99523189.13943  24304544.766                    24304552.176
 129273354.828 6 100732533.73443  24599905.336                    24599913.957
 109281693.036 8  85154659.88346  20795599.609                    20795605.910
 120843151.089 7  94163629.05844  22995668.719                    22995676.242
 109008737.630 8  84941996.13146  20743650.109                    20743654.344
 11  7 28  2 40 30.0000000  0  8G10G25G12G17G29G05G04G02
 111821733.264 7  87133923.94545  21278947.586                    21278954.586
 118512290.958 7  92347330.96745  22552144.008                    22552153.316
 109134285.528 8  85039774.40446  20767562.711                    20767569.281
 127793046.695 6  99579097.27743  24318198.539                    24318206.078
 129192922.538 6 100669859.20543  24584599.938                    24584608.672
 109227047.273 8  85112078.81146  20785200.852                    20785207.465
 120926166.750 7  94228316.58244  23011466.234                    23011473.555
 109029886.292 8  84958475.62846  20747674.922                    20747679.367
 11  7 28  2 41  0.0000000  0  8G10G25G12G17G29G05G04G02
 111872389.721 7  87173396.50546  21288587.523                    21288593.941
 118441415.262 7  92292103.20245  22538657.086                    22538667.219
 109126112.328 8  85033405.68146  20766007.359                    20766013.637
 127864974.252 6  99635144.75443  24331885.688                    24331893.559
 129112423.714 6 100607132.83943  24569281.594                    24569289.410
 109172914.356 8  85069897.35046  20774899.984                    20774906.121
 121009194.250 6  94293013.35444  23027265.367                    23027272.500
 109051232.893 8  84975109.35746  20751737.078                    20751741.453
 11  7 28  2 41 30.0000000  0  8G10G25G12G17G29G05G04G02
 111923599.252 7  87213300.03745  21298332.227                    21298339.090
 118370963.937 7  92237206.13945  22525250.953                    22525260.262
 109118520.071 7  85027489.65146  20764562.609                    20764569.055
 127937080.415 6  99691331.36142  24345607.008                    24345614.645
 129031858.869 6 100544355.00044  24553950.398                    24553959.145
 109119295.965 8  85028116.82246  20764696.516                    20764702.949
 121092232.388 6  94357718.38744  23043066.930                    23043073.988
 109072776.290 8  84991896.43746  20755836.523                    20755840.758
 11  7 28  2 42  0.0000000  0  8G10G25G12G17G29G05G04G02
 111975360.052 7  87253633.12845  21308181.656                    21308188.680
 118300939.455 7  92182641.68145  22511925.234                    22511934.852
 109111509.391 8  85022026.79846  20763228.445                    20763234.559
 128009365.371 6  99747657.30043  24359361.820                    24359369.910
 128951228.308 6 100481525.96344  24538606.406                    24538615.645
 109066193.700 8  84986738.48046  20754591.250                    20754597.984
 121175280.119 6  94422430.90144  23058870.563                    23058877.941
 109094515.235 8  85008835.88446  20759973.156                    20759977.887
 11  7 28  2 42 30.0000000  0  8G10G25G12G17G29G05G04G02
 112027669.790 7  87294393.97745  21318136.031                    21318142.781
 118231343.886 7  92128411.44045  22498682.172                    22498691.520
 109105080.545 8  85017017.32646  20762005.063                    20762011.359
 128081828.769 6  99804122.29243  24373151.859                    24373159.758
 128870532.925 6 100418646.38444  24523251.008                    24523259.602
 109013609.164 8  84945763.55646  20744584.805                    20744591.215
 121258336.088 7  94487149.83444  23074675.492                    23074683.469
 109116448.435 7  85025926.69546  20764146.883                    20764151.117
 11  7 28  2 43  0.0000000  0  8G10G25G12G17G29G05G04G02
 112080526.569 7  87335581.06845  21328194.391                    21328201.480
 118162179.918 7  92074517.50745  22485520.352                    22485529.727
 109099234.732 7  85012462.16146  20760892.789                    20760898.992
 128154470.573 6  99860726.30943  24386974.750                    24386982.195
 128789773.163 7 100355716.68344  24507882.656                    24507891.883
 108961544.309 8  84905193.58746  20734676.813                    20734683.555
 121341399.599 6  94551874.62444  23090481.961                    23090489.117
 109138575.418 7  85043168.50846  20768357.461                    20768361.414
 11  7 28  2 43 30.0000000  0  8G10G25G12G17G29G05G04G02
 112133928.257 7  87377192.77745  21338356.508                    21338362.875
 118093449.667 7  92020961.54745  22472441.234                    22472450.398
 109093971.441 8  85008360.90546  20759891.031                    20759897.164
 128227290.727 6  99917469.28943  24400832.719                    24400839.246
 128708949.860 7 100292737.42744  24492502.727                    24492511.254
 108910000.524 8  84865029.64346  20724868.398                    20724875.180
 121424469.222 6  94616604.19544  23106289.273                    23106297.266
 109160894.879 7  85060560.30446  20772604.797                    20772608.977
 11  7 28  2 44  0.0000000  0  8G10G25G12G17G29G05G04G02
 112187872.888 7  87419227.55845  21348621.688                    21348628.414
 118025155.593 7  91967745.44545  22459445.117                    22459454.508
 109089291.520 7  85004714.22946  20759000.555                    20759007.063
 128300289.227 6  99974351.21443  24414723.789                    24414731.023
 128628063.321 7 100229708.92344  24477110.656                    24477119.281
 108858979.492 8  84825273.01346  20715159.547                    20715165.797
 121507544.064 6  94681337.82144  23122098.227                    23122106.418
 109183405.764 7  85078101.25946  20776888.789                    20776892.766
 11  7 28  2 44 30.0000000  0  8G10G25G12G17G29G05G04G02
 112242358.089 7  87461683.56345  21358990.391                    21358996.664
 117957299.851 7  91914870.90445  22446532.836                    22446541.859
 109085195.055 8  85001522.19246  20758220.922                    20758227.332
 128373465.841 7 100031371.94443  24428648.250                    24428656.410
 128547114.139 6 100166631.65744  24461706.898                    24461715.410
 108808482.691 8  84785924.89646  20705550.195                    20705557.125
 121590623.082 6  94746074.71844  23137908.203                    23137915.449
 109206106.847 7  85095790.41946  20781208.414                    20781212.781
 11  7 28  2 45  0.0000000  0  8G10G25G12G17G29G05G04G02
 112297381.879 7  87504559.24945  21369460.719                    21369467.285
 117889884.771 7  91862339.73045  22433704.211                    22433713.328
 109081682.643 8  84998785.25946  20757552.781                    20757558.844
 128446820.578 6 100088531.59343  24442607.977                    24442614.152
 128466103.084 6 100103506.21643  24446291.031                    24446299.629
 108758511.622 8  84746986.42546  20696040.852                    20696047.484
 121673704.818 7  94810813.73144  23153718.383                    23153725.410
 109228997.194 7  85113627.04746  20785564.188                    20785568.563
 11  7 28  2 45 30.0000000  0  8G10G25G12G17G29G05G04G02
 112352942.420 7  87547853.18245  21380033.672                    21380040.301
 117822912.690 7  91810153.74445  22420959.367                    22420968.926
 109078754.168 8  84996503.34846  20756995.422                    20757001.813
 128520353.384 6 100145829.87744  24456600.734                    24456607.852
 128385030.549 6 100040332.86343  24430863.453                    24430871.707
 108709068.185 8  84708459.09646  20686632.516                    20686638.902
 121756788.703 7  94875554.40844  23169528.117                    23169535.789
 109252075.916 8  85131610.48146  20789955.938                    20789960.418
 11  7 28  2 46  0.0000000  0  8G10G25G12G17G29G05G04G02
 112409037.567 7  87591563.69545  21390707.922                    21390714.504
 117756385.928 7  91758314.74145  22408300.047                    22408309.371
 109076410.432 8  84994677.06546  20756549.461                    20756555.695
 128594064.130 6 100203266.81543  24470626.828                    24470634.738
 128303897.340 6  99977112.29543  24415423.586                    24415431.910
 108660153.825 8  84670344.03746  20677324.242                    20677330.926
 121839873.762 7  94940295.99444  23185339.281                    23185346.273
 109275342.038 8  85149739.93446  20794383.336                    20794387.750
 11  7 28  2 46 30.0000000  0  8G10G25G12G17G29G05G04G02
 112465664.913 7  87635688.91445  21401483.539                    21401490.469
 117690306.816 7  91706824.56745  22395725.445                    22395734.066
 109074651.372 8  84993306.38046  20756214.555                    20756220.609
 128667952.596 6 100260842.27643  24484687.000                    24484694.676
 128222704.067 6  99913844.87043  24399972.539                    24399981.797
 108611769.885 8  84632642.28146  20668116.836                    20668123.543
 121922958.663 7  95005037.47244  23201149.336                    23201157.191
 109298794.371 8  85168014.48946  20798846.297                    20798850.594
 11  7 28  2 47  0.0000000  0  8G10G25G12G17G29G05G04G02
 112522822.304 7  87680227.14545  21412360.375                    21412367.301
 117624677.564 7  91655684.91145  22383236.570                    22383245.949
 109073477.455 8  84992391.63746  20755991.531                    20755997.371
 128742018.664 6 100318556.13743  24498781.422                    24498788.969
 128141451.488 6  99850531.25843  24384511.805                    24384519.215
 108563918.050 8  84595355.15446  20659010.750                    20659017.715
 122006042.757 7  95069778.31643  23216960.141                    23216967.301
 109322432.065 8  85186433.47746  20803343.898                    20803348.664
 11  7 28  2 47 30.0000000  0  8G10G25G12G17G29G05G04G02
 112580507.871 7  87725176.94245  21423337.789                    21423344.344
 117559500.755 7  91604897.80645  22370834.086                    22370843.227
 109072888.993 8  84991933.10346  20755879.531                    20755885.633
 128816262.398 6 100376408.45544  24512909.867                    24512917.488
 128060140.378 6  99787172.05043  24369038.078                    24369045.949
 108516599.984 8  84558483.96546  20650006.695                    20650013.098
 122089125.160 7  95134517.87444  23232769.742                    23232777.648
 109346254.259 8  85204996.24146  20807877.664                    20807882.129
 11  7 28  2 48  0.0000000  0  7G10G25G12G29G05G04G02
 112638719.367 7  87770536.55345  21434414.875                    21434421.777
 117494778.580 7  91554464.95745  22358517.539                    22358526.777
 109072886.051 8  84991930.81646  20755878.500                    20755884.695
 127978771.536 6  99723767.83043  24353554.258                    24353562.125
 108469817.267 8  84522029.91746  20641104.195                    20641110.934
 122172204.827 7  95199255.27444  23248578.836                    23248587.016
 109370259.866 8  85223701.92646  20812445.203                    20812450.047
 11  7 28  2 48 30.0000000  0  7G10G25G12G29G05G04G02
 112697454.493 7  87816304.19545  21445591.727                    21445598.727
 117430513.137 7  91504387.99045  22346288.422                    22346297.570
 109073469.013 8  84992385.07146  20755989.719                    20755995.863
 127897345.393 6  99660318.97343  24338058.945                    24338067.410
 108423571.012 8  84485993.89846  20632303.594                    20632310.559
 122255280.710 6  95263989.71144  23264387.750                    23264395.703
 109394447.860 8  85242549.72346  20817048.461                    20817052.852
 11  7 28  2 49  0.0000000  0  7G10G25G12G29G05G04G02
 112756710.528 7  87862477.74745  21456867.930                    21456874.715
 117366706.244 7  91454668.33945  22334146.438                    22334155.340
 109074637.249 8  84993295.39346  20756212.016                    20756217.855
 127815862.264 6  99596825.75543  24322552.945                    24322562.023
 108377862.483 8  84450376.88146  20623605.766                    20623612.285
 122338351.257 6  95328719.99944  23280195.609                    23280203.414
 109418816.815 8  85261538.53146  20821685.289                    20821690.105
 11  7 28  2 49 30.0000000  0  7G10G25G12G29G05G04G02
 112816484.940 7  87909055.20245  21468242.250                    21468249.398
 117303360.003 7  91405307.63845  22322091.711                    22322101.211
 109076390.970 8  84994661.92346  20756545.594                    20756551.684
 127734322.880 6  99533288.68243  24307037.289                    24307045.332
 108332692.649 8  84415179.63146  20615010.250                    20615017.109
 122421415.626 7  95393445.47144  23296002.359                    23296010.387
 109443365.555 8  85280667.43546  20826357.227                    20826361.090
 11  7 28  2 50  0.0000000  0  7G10G25G12G29G05G04G02
 112876776.364 7  87956035.55545  21479715.141                    21479722.320
 117240477.002 7  91356307.89645  22310125.477                    22310134.922
 109078730.552 8  84996484.97846  20756990.703                    20756997.035
 127652728.101 7  99469708.42643  24291510.180                    24291518.211
 108288063.436 8  84380403.65046  20606517.734                    20606523.852
 122504473.179 6  95458165.61944  23311807.570                    23311815.910
 109468093.698 8  85299936.13246  20831062.914                    20831066.695
 11  7 28  2 50 30.0000000  0  7G10G25G12G29G05G04G02
 112937582.540 7  88003417.00445  21491286.563                    21491293.547
 117178059.820 7  91307671.13846  22298247.953                    22298257.316
 109081657.040 8  84998765.36146  20757548.195                    20757554.008
 127571079.113 7  99406085.93344  24275972.391                    24275981.121
 108243976.412 8  84346050.14446  20598128.109                    20598134.668
 122587523.283 6  95522879.98644  23327611.680                    23327619.316
 109493000.744 8  85319344.22446  20835802.609                    20835806.926
 11  7 28  2 51  0.0000000  0  7G10G25G12G29G05G04G02
 112998899.763 7  88051196.67445  21502954.930                    21502961.551
 117116109.415 7  91259398.09545  22286459.094                    22286468.570
 109085167.992 8  85001501.17146  20758215.711                    20758221.965
 127489375.439 6  99342420.81044  24260424.961                    24260433.383
 108200431.742 8  84312119.25946  20589841.383                    20589848.375
 122670564.052 6  95587587.04244  23343414.328                    23343421.035
 109518083.956 8  85338889.61046  20840575.320                    20840580.086
 11  7 28  2 51 30.0000000  0  7G10G25G12G29G05G04G02
 113060726.363 7  88099373.25945  21514720.391                    21514727.367
 117054628.457 7  91211490.87245  22274759.961                    22274769.234
 109089264.796 8  85004693.49246  20758995.578                    20759001.691
 127407618.301 6  99278714.00944  24244866.727                    24244874.770
 108157431.387 8  84278612.51446  20581659.242                    20581665.871
 122753595.069 6  95652286.51944  23359213.711                    23359221.742
 109543343.244 8  85358572.17846  20845382.578                    20845386.590
 11  7 28  2 52  0.0000000  0  7G10G25G12G29G05G04G02
 113123059.811 7  88147944.80245  21526581.898                    21526588.945
 116993619.086 8  91163951.11745  22263150.305                    22263159.246
 109093947.243 8  85008342.15846  20759886.445                    20759892.348
 127325808.519 7  99214966.18344  24229298.875                    24229307.434
 108114976.704 8  84245530.97246  20573580.055                    20573586.809
 122836615.269 7  95716977.57144  23375012.383                    23375019.746
 109568777.612 8  85378391.17646  20850222.148                    20850226.793
 11  7 28  2 52 30.0000000  0  7G10G25G12G29G05G04G02
 113185898.465 7  88196909.99945  21538539.609                    21538546.332
 116933083.654 8  91116780.67546  22251630.875                    22251640.008
 109099215.567 8  85012447.35446  20760888.742                    20760894.742
 127243947.000 6  99151178.05144  24213720.875                    24213729.895
 108073068.805 8  84212875.50046  20565605.430                    20565611.988
 122919624.085 6  95781659.77144  23390808.695                    23390816.316
 109594386.383 8  85398346.08246  20855095.352                    20855099.625
 11  7 28  2 53  0.0000000  0  7G10G25G12G29G05G04G02
 113249239.823 7  88246266.91645  21550592.570                    21550600.020
 116873024.103 8  91069981.06545  22240201.688                    22240211.176
 109105069.625 8  85017008.96346  20762002.945                    20762009.059
 127162034.409 6  99087350.11444  24198132.961                    24198142.012
 108031709.045 8  84180647.14846  20557734.711                    20557741.656
 123002620.405 6  95846332.18844  23406602.070                    23406609.957
 109620168.385 8  85418435.96246  20860001.508                    20860006.129
 11  7 28  2 53 30.0000000  0  7G10G25G12G29G05G04G02
 113313081.073 7  88296013.36645  21562741.469                    21562748.301
 116813442.647 7  91023553.99745  22228863.672                    22228872.969
 109111509.336 8  85022026.93046  20763228.570                    20763234.699
 127080071.514 6  99023482.97444  24182537.094                    24182544.770
 107990898.653 8  84148846.87046  20549969.266                    20549975.305
 123085603.474 6  95910994.28644  23422393.586                    23422400.922
 109646122.750 8  85438660.14746  20864940.227                    20864944.719
 11  7 28  2 54  0.0000000  0  7G10G25G12G29G05G04G02
 113377419.484 7  88346147.21045  21574984.789                    21574991.391
 116754340.905 8  90977500.73646  22217616.680                    22217626.207
 109118533.992 8  85027500.69446  20764565.141                    20764571.391
 126998058.827 6  98959577.03344  24166930.148                    24166938.348
 107950638.340 8  84117475.22746  20542307.547                    20542314.508
 123168572.131 6  95975645.18343  23438181.203                    23438189.398
 109672248.121 8  85459017.59646  20869911.883                    20869916.430
 11  7 28  2 54 30.0000000  0  7G10G25G12G29G05G04G02
 113442253.384 7  88396667.14445  21587322.023                    21587329.172
 116695721.263 8  90931823.13545  22206461.797                    22206471.430
 109126143.791 8  85033430.41446  20766013.109                    20766019.484
 126915997.435 6  98895633.15244  24151314.242                    24151322.410
 107910929.685 8  84086533.44646  20534751.148                    20534757.891
 123251525.731 6  96040284.32544  23453967.086                    23453974.930
 109698543.852 8  85479507.79246  20874915.703                    20874920.000
 11  7 28  2 55  0.0000000  0  7G10G25G12G29G05G04G02
 113507579.994 7  88447571.01845  21599753.648                    21599760.152
 116637585.810 8  90886522.81846  22195398.844                    22195407.984
 109134338.761 8  85039816.10646  20767572.578                    20767578.809
 126833888.062 6  98831651.89043  24135688.320                    24135697.785
 107871773.659 8  84056022.29946  20527299.930                    20527306.363
 123334463.518 6  96104911.16743  23469750.211                    23469756.984
 109725008.983 8  85500129.98646  20879952.242                    20879956.711
 11  7 28  2 55 30.0000000  0  7G10G25G12G29G05G04G02
 113573396.122 7  88498856.33945  21612277.891                    21612284.684
 116579935.850 8  90841600.83146  22184428.555                    22184437.988
 109143117.881 8  85046656.98946  20769243.000                    20769249.137
 126751731.113 6  98767633.57043  24120055.484                    24120063.762
 107833170.945 8  84025942.28746  20519954.250                    20519960.770
 123417383.927 6  96169524.43343  23485528.648                    23485536.313
 109751641.709 8  85520882.77446  20885020.156                    20885024.109
 11  7 28  2 56  0.0000000  0  7G10G25G12G29G05G04G02
 113639700.140 7  88550521.82345  21624894.953                    21624902.066
 116522774.097 8  90797059.24445  22173551.016                    22173560.152
 109152481.465 8  85053953.28146  20771025.141                    20771031.293
 126669528.135 6  98703579.38243  24104412.383                    24104420.988
 107795123.192 8  83996294.71446  20512714.164                    20512720.512
 123500286.687 6  96234123.97343  23501304.359                    23501312.418
 109778442.172 8  85541766.25946  20890119.797                    20890124.523
 11  7 28  2 56 30.0000000  0  7G10G25G12G29G05G04G02
 113706490.159 7  88602566.01345  21637604.141                    21637611.738
 116466102.883 8  90752899.89945  22162766.867                    22162775.961
 109162429.539 8  85061705.04146  20772918.336                    20772924.172
 126587279.901 6  98639489.95144  24088761.422                    24088769.730
 107757631.855 8  83967080.71046  20505579.328                    20505585.750
 123583171.466 7  96298709.53443  23517077.422                    23517084.379
 109805409.953 8  85562780.11946  20895251.891                    20895256.133
 11  7 28  2 57  0.0000000  0  7G10G25G12G29G05G04G02
 113773763.536 7  88654986.83645  21650406.211                    21650413.344
 116409923.993 8  90709124.19045  22152076.180                    22152085.559
 109172961.942 8  85069912.10646  20774922.484                    20774928.598
 126504987.122 6  98575365.80143  24073101.211                    24073109.223
 107720697.439 7  83938300.68346  20498551.188                    20498557.867
 123666037.194 6  96363280.20343  23532845.977                    23532853.230
 109832543.607 8  85583923.24046  20900414.695                    20900419.609
 11  7 28  2 57 30.0000000  0  7G10G25G12G29G05G04G02
 113841516.361 7  88707781.25545  21663299.852                    21663306.523
 116354238.489 8  90665732.92245  22141479.789                    22141489.098
 109184077.378 8  85078573.48746  20777037.727                    20777043.816
 126422649.915 6  98511207.02544  24057433.125                    24057440.969
 107684320.641 7  83909955.15246  20491628.906                    20491635.137
 123748882.222 7  96427834.77143  23548611.344                    23548618.211
 109859841.104 8  85605194.02246  20905609.813                    20905614.195
 11  7 28  2 58  0.0000000  0  7G10G25G12G29G05G04G02
 113909746.815 7  88760947.86245  21676282.836                    21676290.145
 116299048.888 8  90622728.07746  22130977.727                    22130986.945
 109195775.982 8  85087689.28246  20779264.008                    20779269.793
 126340269.646 6  98447014.70344  24041756.211                    24041764.090
 107648502.685 7  83882045.08846  20484813.164                    20484819.000
 123831706.307 6  96492373.01844  23564371.578                    23564379.355
 109887302.277 8  85626592.35146  20910835.406                    20910839.938
 11  7 28  2 58 30.0000000  0  7G10G25G12G29G05G04G02
 113978452.343 7  88814484.65145  21689357.156                    21689363.867
 116244356.894 8  90580110.97745  22120569.445                    22120579.031
 109208057.492 8  85097259.29346  20781600.867                    20781606.715
 126257847.115 6  98382789.41443  24026072.102                    24026079.816
 107613244.121 7  83854570.91446  20478103.234                    20478110.168
 123914508.499 6  96556894.19243  23580129.164                    23580136.172
 109914925.965 8  85648117.31046  20916091.875                    20916095.938
 11  7 28  2 59  0.0000000  0  7G10G25G12G29G05G04G02
 114047630.857 7  88868389.99445  21702521.398                    21702528.121
 116190164.802 8  90537883.39545  22110257.297                    22110266.898
 109220921.421 8  85107283.14546  20784048.633                    20784055.180
 126175383.239 7  98318531.95344  24010380.047                    24010387.965
 107578546.686 8  83827533.97246  20471500.742                    20471507.020
 123997288.297 6  96621397.93143  23595881.875                    23595889.051
 109942711.786 8  85669768.60646  20921379.633                    20921383.953
 11  7 28  2 59 30.0000000  0  7G10G25G12G29G05G04G02
 114117279.470 7  88922661.66345  21715775.297                    21715781.852
 116136474.307 8  90496046.67246  22100040.383                    22100049.453
 109234367.702 8  85117760.76346  20786607.156                    20786613.664
 126092878.963 6  98254242.98044  23994679.844                    23994687.613
 107544410.888 7  83800934.68346  20465005.211                    20465011.117
 124080044.862 6  96685883.54643  23611629.430                    23611636.992
 109970658.664 8  85691545.39446  20926697.266                    20926701.703
 11  7 28  3  0  0.0000000  0  7G10G25G12G29G05G04G02
 114187395.747 7  88977297.73245  21729117.969                    21729124.941
 116083287.525 8  90454602.44445  22089919.234                    22089928.563
 109248395.520 8  85128691.54046  20789276.688                    20789283.031
 126010335.256 7  98189923.29844  23978972.125                    23978979.727
 107510837.839 8  83774773.89846  20458616.117                    20458622.512
 124162777.627 7  96750350.63643  23627371.906                    23627380.871
 109998765.892 8  85713447.13746  20932046.383                    20932050.586
 11  7 28  3  0 30.0000000  0  7G10G25G12G29G05G04G02
 114257976.987 7  89032296.11145  21742549.383                    21742556.117
 116030605.947 8  90413551.88945  22079894.453                    22079903.254
 109263003.906 8  85140074.69846  20792057.008                    20792062.906
 125927752.834 7  98125573.43444  23963256.852                    23963264.484
 107477827.974 7  83749051.96346  20452334.813                    20452340.766
 124245485.518 7  96814798.33143  23643111.477                    23643119.262
 110027032.086 8  85735472.74846  20937424.852                    20937429.250
 11  7 28  3  1  0.0000000  0  7G10G25G12G29G05G04G02
 114329020.775 7  89087654.92145  21756068.203                    21756075.316
 115978431.586 8  90372896.56846  22069965.891                    22069974.855
 109278193.498 8  85151910.74946  20794947.328                    20794953.344
 125845132.581 7  98061194.10544  23947535.063                    23947542.402
 107445382.546 8  83723769.83946  20446160.398                    20446166.336
 124328167.847 6  96879226.11644  23658845.547                    23658853.117
 110055456.653 8  85757621.77246  20942834.344                    20942837.961
 11  7 28  3  1 30.0000000  0  7G10G25G12G29G05G04G02
 114400524.615 7  89143372.19945  21769674.789                    21769681.750
 115926766.285 8  90332637.91145  22060134.398                    22060143.641
 109293962.986 8  85164198.66746  20797947.906                    20797954.418
 125762475.500 6  97996786.06244  23931805.656                    23931813.313
 107413501.933 8  83698927.83946  20440093.375                    20440100.078
 124410823.947 6  96943633.45143  23674574.070                    23674582.152
 110084038.562 8  85779893.39346  20948273.164                    20948277.313
 11  7 28  3  2  0.0000000  0  7G10G25G12G29G05G04G02
 114472485.737 7  89199445.82145  21783368.219                    21783375.172
 115875611.884 8  90292777.36146  22050399.891                    22050408.766
 109310312.071 8  85176938.22446  20801059.336                    20801065.566
 125679782.629 6  97932350.15044  23916069.469                    23916077.199
 107382187.256 8  83674526.82546  20434134.445                    20434141.211
 124493453.236 6  97008019.87043  23690298.578                    23690305.988
 110112777.205 8  85802287.15146  20953742.047                    20953745.398
 11  7 28  3  2 30.0000000  0  7G10G25G12G29G05G04G02
 114544901.129 7  89255873.41045  21797148.695                    21797155.383
 115824969.828 8  90253316.03346  22040763.195                    22040772.367
 109327239.761 8  85190128.63446  20804280.500                    20804286.836
 125597054.361 6  97867886.64944  23900326.969                    23900335.203
 107351439.263 8  83650567.38246  20428283.438                    20428289.688
 124576054.615 7  97072384.53644  23706017.055                    23706024.977
 110141671.192 8  85824801.94846  20959240.297                    20959244.922
 11  7 28  3  3  0.0000000  0  7G10G25G12G29G05G04G02
 114617768.876 7  89312653.46745  21811015.375                    21811021.668
 115774842.558 8  90214255.85146  22031223.992                    22031233.168
 109344745.885 8  85203769.77846  20807611.828                    20807617.840
 125514292.401 6  97803396.87844  23884577.680                    23884585.711
 107321258.832 8  83627050.20146  20422540.102                    20422546.402
 124658627.898 7  97136727.31043  23721730.438                    23721738.105
 110170720.419 8  85847437.71546  20964767.938                    20964771.809
 11  7 28  3  3 30.0000000  0  7G10G25G12G29G05G04G02
 114691086.107 7  89369783.79545  21824967.023                    21824973.957
 115725231.679 8  90175598.03346  22021783.570                    22021792.238
 109362830.115 8  85217861.39046  20811052.859                    20811059.313
 125431497.853 6  97738881.73244  23868821.805                    23868830.383
 107291646.794 8  83603975.91346  20416905.180                    20416911.301
 124741172.500 7  97201047.79843  23737438.063                    23737445.660
 110199924.300 8  85870193.99546  20970325.172                    20970329.492
 11  7 28  3  4  0.0000000  0  7G10G25G12G29G05G04G02
 114764849.283 7  89427261.59845  21839003.164                    21839010.242
 115676137.933 8  90137343.18546  22012441.375                    22012450.359
 109381491.007 8  85232402.35446  20814604.086                    20814610.027
 125348670.609 6  97674341.09844  23853060.328                    23853068.781
 107262602.932 8  83581344.37446  20411378.180                    20411384.637
 124823686.640 6  97265344.49643  23753139.945                    23753147.211
 110229280.300 8  85893068.81146  20975911.820                    20975915.637
 11  7 28  3  4 30.0000000  0  7G10G25G12G29G05G04G02
 114839056.134 7  89485085.13245  21853124.547                    21853131.164
 115627563.630 8  90099493.09146  22003197.945                    22003206.773
 109400727.855 8  85247392.10946  20818264.633                    20818271.027
 125265812.397 6  97609776.35344  23837292.930                    23837301.207
 107234128.276 7  83559156.35946  20405959.922                    20405966.156
 124906170.164 6  97329617.31743  23768835.508                    23768843.434
 110258788.393 8  85916062.13546  20981526.813                    20981530.852
 11  7 28  3  5  0.0000000  0  7G10G25G12G29G05G04G02
 114913704.811 7  89543252.93845  21867329.789                    21867336.602
 115579510.976 8  90062049.48846  21994053.602                    21994062.629
 109420540.525 8  85262830.55446  20822035.023                    20822041.129
 125182924.097 7  97545188.16244  23821519.961                    23821527.992
 107206224.056 7  83537412.84246  20400649.492                    20400655.938
 124988623.012 6  97393866.28243  23784526.211                    23784534.043
 110288448.362 8  85939173.81446  20987171.023                    20987175.070
 11  7 28  3  5 30.0000000  0  7G10G25G12G29G05G04G02
 114988792.038 7  89601762.47945  21881618.094                    21881625.203
 115531981.033 8  90025013.19246  21985009.250                    21985017.973
 109440928.250 8  85278717.10646  20825914.789                    20825921.324
 125100006.418 7  97480577.06744  23805741.078                    23805748.867
 107178890.338 7  83516113.86946  20395448.172                    20395454.867
 125071043.878 6  97458090.27643  23800210.930                    23800218.508
 110318258.687 8  85962402.64446  20992843.406                    20992847.867
 11  7 28  3  6  0.0000000  0  7G10G25G12G29G05G04G02
 115064314.747 7  89660611.34145  21895989.891                    21895996.789
 115484975.289 8  89988385.35946  21976063.984                    21976072.906
 109461889.715 8  85295050.72346  20829903.359                    20829909.676
 125017060.492 7  97415943.95944  23789956.953                    23789965.238
 107152127.346 7  83495259.61546  20390355.461                    20390361.570
 125153431.933 7  97522288.72143  23815888.820                    23815896.246
 110348218.243 8  85985747.76346  20998544.273                    20998549.148
 11  7 28  3  6 30.0000000  0  7G10G25G12G29G05G04G02
 115140270.809 7  89719797.89145  21910443.922                    21910450.188
 115438495.878 8  89952167.65146  21967219.453                    21967228.363
 109483424.375 8  85311830.98646  20834001.430                    20834007.480
 124934087.662 7  97351289.90744  23774167.766                    23774175.430
 107125936.184 8  83474850.94846  20385371.117                    20385377.664
 125235787.126 7  97586461.59943  23831559.672                    23831566.996
 110378326.972 8  86009209.12346  21004274.031                    21004278.371
 11  7 28  3  7  0.0000000  0  7G10G25G12G29G05G04G02
 115216657.529 7  89779320.01145  21924979.898                    21924986.691
 115392544.584 8  89916361.46246  21958475.102                    21958483.844
 109505531.828 8  85329057.57646  20838208.086                    20838214.680
 124851088.902 7  97286615.64144  23758373.695                    23758381.742
 107100317.808 8  83454888.60447  20380496.289                    20380502.797
 125318108.751 7  97650608.28543  23847225.313                    23847232.348
 110408584.228 8  86032786.21646  21010031.836                    21010036.066
 11  7 28  3  7 30.0000000  0  7G10G25G12G29G05G04G02
 115293471.624 7  89839175.16345  21939597.063                    21939603.648
 115347122.159 8  89880967.37946  21949831.313                    21949840.223
 109528210.578 8  85346729.34146  20842523.719                    20842529.895
 124768064.880 7  97221921.68644  23742575.266                    23742582.750
 107075271.812 8  83435372.26147  20375730.141                    20375736.988
 125400395.557 7  97714727.84643  23862884.070                    23862891.559
 110438988.115 8  86056477.56546  21015817.359                    21015821.684
 11  7 28  3  8  0.0000000  0  7G10G25G12G29G05G04G02
 115370710.564 7  89899361.35745  21954294.961                    21954302.254
 115302230.752 8  89845987.09346  21941289.023                    21941298.133
 109551460.214 8  85364845.94546  20846948.188                    20846954.133
 124685016.824 7  97157209.00944  23726771.063                    23726778.621
 107050799.069 8  83416302.61346  20371073.000                    20371079.570
 125482647.637 6  97778820.35943  23878536.172                    23878543.699
 110469538.679 8  86080283.20846  21021631.117                    21021635.184
 11  7 28  3  8 30.0000000  0  7G10G25G12G29G05G04G02
 115448371.803 7  89959876.60745  21969073.688                    21969080.418
 115257871.882 8  89811421.74746  21932847.961                    21932856.652
 109575279.721 8  85383406.60646  20851480.883                    20851486.871
 124601945.789 7  97092478.42144  23710963.117                    23710970.957
 107026900.304 8  83397680.22547  20366525.391                    20366531.129
 125564864.171 6  97842885.15643  23894181.320                    23894189.059
 110500234.923 8  86104202.37046  21027472.531                    21027476.328
 11  7 28  3  9  0.0000000  0  7G10G25G12G29G05G04G02
 115526452.752 7  90020718.90945  21983932.148                    21983938.594
 115214046.957 8  89777272.48346  21924508.055                    21924517.570
 109599667.984 8  85402410.45046  20856121.914                    20856128.137
 124518852.703 7  97027730.66544  23695151.281                    23695158.449
 107003575.719 8  83379505.25347  20362086.547                    20362093.230
 125647044.446 6  97906921.69843  23909819.430                    23909827.371
 110531075.845 8  86128234.27446  21033341.211                    21033345.547
 11  7 28  3  9 30.0000000  0  7G10G25G12G29G05G04G02
 115604950.510 7  90081886.01045  21998869.820                    21998876.258
 115170757.479 8  89743540.43846  21916270.164                    21916279.496
 109624624.071 8  85421856.75846  20860870.719                    20860876.457
 124435738.733 7  96962966.63044  23679335.047                    23679342.160
 106980825.494 8  83361777.82647  20357757.641                    20357763.961
 125729188.010 6  97970929.62843  23925451.922                    23925458.801
 110562060.719 8  86152378.35046  21039237.203                    21039241.555
 11  7 28  3 10  0.0000000  0  7G10G25G12G29G05G04G02
 115683862.622 7  90143375.97845  22013885.914                    22013892.609
 115128005.418 8  89710227.16346  21908135.063                    21908143.914
 109650147.668 8  85441745.27746  20865727.797                    20865733.922
 124352605.222 7  96898187.34244  23663515.086                    23663522.305
 106958650.431 8  83344498.57447  20353537.852                    20353544.117
 125811294.511 6  98034908.69043  23941075.508                    23941082.945
 110593189.380 8  86176634.46746  21045160.867                    21045164.941
 11  7 28  3 10 30.0000000  0  7G10G25G12G29G05G04G02
 115763185.865 7  90205186.31445  22028980.602                    22028987.496
 115085791.507 8  89677333.23246  21900101.805                    21900110.293
 109676237.279 8  85462074.85046  20870692.203                    20870698.402
 124269452.662 7  96833393.21844  23647691.742                    23647698.297
 106937050.756 8  83327667.68347  20349427.469                    20349433.801
 125893362.849 6  98098857.99743  23956692.406                    23956700.172
 110624460.216 8  86201001.36746  21051111.609                    21051116.016
 11  7 28  3 11  0.0000000  0  7G10G25G12G29G05G04G02
 115842917.878 7  90267315.16145  22044153.438                    22044159.676
 115044117.871 7  89644860.29746  21892171.430                    21892180.891
 109702891.961 7  85482844.73046  20875764.539                    20875770.742
 124186282.961 6  96768585.75544  23631864.219                    23631872.020
 106916026.954 8  83311285.51947  20345426.750                    20345433.352
 125975392.986 6  98162777.54343  23972302.688                    23972310.148
 110655873.131 7  86225478.96846  21057089.141                    21057093.215
 11  7 28  3 11 30.0000000  0  7G10G25G12G29G05G04G02
 115923055.396 7  90329759.97245  22059402.578                    22059409.629
 115002985.595 8  89612809.19246  21884344.586                    21884353.387
 109730110.553 8  85504054.03246  20880944.195                    20880950.492
 124103096.779 6  96703765.44644  23616034.969                    23616042.414
 106895579.149 8  83295352.18747  20341535.797                    20341541.992
 126057384.196 6  98226666.77443  23987905.352                    23987912.590
 110687427.053 8  86250066.45946  21063093.813                    21063097.684
 11  7 28  3 12  0.0000000  0  7G10G25G12G29G05G04G02
 116003595.223 7  90392518.28645  22074729.484                    22074735.816
 114962395.534 8  89581180.59946  21876620.344                    21876629.281
 109757891.494 8  85525701.51346  20886231.000                    20886237.039
 124019894.954 6  96638932.92644  23600201.836                    23600209.391
 106875707.194 8  83279867.57047  20337754.180                    20337760.152
 126139335.298 6  98290524.72343  24003500.031                    24003507.574
 110719120.348 7  86274762.55246  21069124.727                    21069128.992
 11  7 28  3 12 30.0000000  0  7G10G25G12G29G05G04G02
 116084535.629 7  90455588.74545  22090131.359                    22090138.090
 114922349.947 8  89549976.27646  21868999.867                    21869008.766
 109786234.552 8  85547787.00946  20891624.023                    20891630.219
 123936679.160 6  96574089.52444  23584366.234                    23584373.621
 106856411.989 8  83264832.36147  20334082.375                    20334088.836
 126221246.468 6  98354351.58243  24019087.313                    24019094.586
 110750953.428 7  86299567.56346  21075182.773                    21075187.082
 11  7 28  3 13  0.0000000  0  7G10G25G12G29G05G04G02
 116165873.630 7  90518969.00145  22105609.883                    22105615.980
 114882850.040 8  89519197.15546  21861483.336                    21861492.426
 109815138.346 8  85570309.44546  20897124.234                    20897130.215
 123853450.386 6  96509235.99844  23568529.469                    23568536.293
 106837693.680 8  83250246.69047  20330520.352                    20330526.797
 126303117.273 6  98418146.99043  24034666.672                    24034673.961
 110782925.454 8  86324480.83646  21081266.258                    21081270.664
 11  7 28  3 13 30.0000000  0  7G10G25G12G29G05G04G02
 116247606.172 7  90582656.70545  22121162.742                    22121169.527
 114843897.123 8  89488844.25746  21854070.703                    21854079.594
 109844602.025 8  85593268.15846  20902731.203                    20902737.273
 123770209.996 7  96444373.44244  23552688.016                    23552695.574
 106819552.506 8  83236110.73947  20327068.273                    20327074.754
 126384946.910 6  98481910.28943  24050238.195                    24050246.059
 110815035.731 7  86349501.84146  21087376.930                    21087381.066
 11  7 28  3 14  0.0000000  0  7G10G25G12G29G05G04G02
 116329730.678 7  90646649.83945  22136790.750                    22136797.125
 114805492.440 8  89458918.56346  21846762.438                    21846771.637
 109874623.951 8  85616661.86946  20908444.148                    20908450.199
 123686958.931 7  96379502.53344  23536846.242                    23536853.848
 106801988.578 8  83222424.58947  20323725.836                    20323732.195
 126466735.116 6  98545641.29643  24065802.133                    24065809.867
 110847283.362 7  86374629.88146  21093513.414                    21093517.492
 11  7 28  3 14 30.0000000  0  7G10G25G12G29G05G04G02
 116412243.579 7  90710945.59645  22152492.148                    22152499.246
 114767636.991 8  89429420.83346  21839559.125                    21839568.188
 109905203.254 7  85640489.89246  20914262.930                    20914269.035
 123603697.922 6  96314623.87244  23521002.383                    23521009.348
 106785001.884 8  83209188.23447  20320493.320                    20320499.633
 126548480.805 7  98609339.18843  24081357.508                    24081365.941
 110879667.145 7  86399864.00646  21099675.836                    21099679.840
 11  7 28  3 15  0.0000000  0  7G10G25G12G29G05G04G02
 116495142.337 7  90775542.03845  22168267.719                    22168274.223
 114730332.007 8  89400352.03946  21832459.977                    21832468.828
 109936338.438 8  85664751.07446  20920187.898                    20920194.402
 123520428.159 6  96249738.39144  23505156.555                    23505164.121
 106768592.216 8  83196401.50447  20317371.141                    20317377.098
 126630183.698 6  98673003.77343  24096905.359                    24096912.645
 110912186.364 7  86425203.68146  21105863.828                    21105868.469
 11  7 28  3 15 30.0000000  0  7G10G25G12G29G05G04G02
 116578424.343 7  90840437.09745  22184115.617                    22184122.148
 114693578.994 8  89371713.35146  21825466.063                    21825474.996
 109968027.919 8  85689444.17546  20926218.352                    20926224.398
 123437151.175 6  96184847.27144  23489309.094                    23489316.441
 106752759.762 8  83184064.54647  20314357.992                    20314364.031
 126711843.463 6  98736634.75643  24112444.961                    24112451.922
 110944840.481 8  86450648.44846  21112077.852                    21112082.059
 11  7 28  3 16  0.0000000  0  7G10G25G12G29G05G04G02
 116662086.510 7  90905628.38945  22200036.289                    22200042.848
 114657379.288 8  89343505.79746  21818577.602                    21818586.281
 110000271.033 8  85714568.68446  20932354.242                    20932360.168
 123353868.534 6  96119951.74844  23473461.516                    23473468.184
 106737505.254 8  83172177.94347  20311455.031                    20311461.375
 126793459.592 6  98800231.73943  24127975.469                    24127983.297
 110977629.121 8  86476198.05146  21118317.313                    21118321.762
 11  7 28  3 16 30.0000000  0  7G10G25G12G29G05G04G02
 116746126.314 7  90971113.93945  22216028.164                    22216034.668
 114621734.086 8  89315730.33146  21811794.406                    21811803.379
 110033066.632 8  85740123.69746  20938594.539                    20938600.895
 123270581.057 6  96055052.46844  23457611.914                    23457619.551
 106722828.407 8  83160741.45547  20308662.414                    20308668.383
 126875031.553 6  98863794.25643  24143498.914                    24143506.668
 111010551.447 8  86501851.82046  21124582.461                    21124586.656
 11  7 28  3 17  0.0000000  0  7G10G25G12G29G05G04G02
 116830541.182 7  91036891.76245  22232091.609                    22232098.379
 114586644.856 8  89288388.08846  21805116.977                    21805125.863
 110066413.127 8  85766107.98046  20944940.547                    20944946.883
 123187290.573 6  95990150.82344  23441761.797                    23441769.676
 106708729.920 8  83149755.65747  20305979.305                    20305985.430
 126956559.413 6  98927322.48543  24159012.625                    24159020.582
 111043607.284 7  86527609.62746  21130872.398                    21130876.539
 11  7 28  3 17 30.0000000  0  7G10G25G12G29G05G04G02
 116915327.513 7  91102959.04145  22248226.117                    22248232.383
 114552111.999 8  89261479.38846  21798545.797                    21798554.832
 110100308.826 8  85792520.21546  20951390.891                    20951396.867
 123103997.289 6  95925246.99644  23425911.867                    23425919.801
 106695208.636 8  83139219.62047  20303406.250                    20303412.305
 127038042.054 6  98990815.46643  24174518.742                    24174526.031
 111076794.762 8  86553470.00646  21137187.938                    21137191.938
 11  7 28  3 18  0.0000000  0  7G10G25G12G29G05G04G02
 117000483.305 7  91169314.20445  22264430.430                    22264437.098
 114518137.486 8  89235005.74846  21792080.484                    21792089.891
 110134752.991 8  85819359.82446  20957944.813                    20957951.211
 123020703.228 6  95860342.59344  23410061.836                    23410068.906
 106682265.457 8  83129134.05247  20300943.445                    20300950.102
 127119479.431 6  99054273.10643  24190015.563                    24190022.984
 111110114.271 8  86579433.26946  21143528.570                    21143532.613
 11  7 28  3 18 30.0000000  0  7G10G25G12G29G05G04G02
 117086004.986 7  91235954.46945  22280704.602                    22280711.340
 114484721.901 8  89208967.63546  21785722.016                    21785730.777
 110169744.027 8  85846625.56146  20964603.820                    20964610.184
 122937409.283 7  95795438.27644  23394211.102                    23394218.660
 106669899.877 8  83119498.55447  20298590.211                    20298596.465
 127200870.930 6  99117695.03543  24205503.539                    24205511.164
 111143564.640 7  86605498.50946  21149893.773                    21149898.160
 11  7 28  3 19  0.0000000  0  7G10G25G12G29G05G04G02
 117171889.565 7  91302877.51845  22297048.492                    22297054.910
 114451866.181 8  89183365.78446  21779469.586                    21779478.578
 110205280.250 8  85874316.13246  20971365.750                    20971372.078
 122854116.850 7  95730535.13144  23378361.320                    23378368.633
 106658111.297 8  83110312.67747  20296346.594                    20296353.367
 127282215.799 6  99181080.61043  24220983.258                    24220990.711
 111177144.999 8  86631665.02846  21156283.969                    21156288.117
 11  7 28  3 19 30.0000000  0  7G10G25G12G29G05G04G02
 117258135.445 7  91370082.08744  22313460.086                    22313466.996
 114419572.254 8  89158201.69446  21773324.313                    21773333.070
 110241360.921 8  85902430.94046  20978232.094                    20978237.875
 122770827.621 6  95665634.49544  23362512.219                    23362518.930
 106646900.963 8  83101577.36947  20294213.766                    20294220.008
 127363514.383 6  99244430.16743  24236453.672                    24236461.723
 111210855.591 7  86657933.03746  21162698.766                    21162702.957
 11  7 28  3 20  0.0000000  0  7G10G25G12G29G05G04G02
 117344738.575 7  91437565.05644  22329940.141                    22329946.434
 114387840.196 8  89133475.43246  21767285.875                    21767294.438
 110277983.771 8  85930968.23746  20985200.750                    20985207.133
 122687542.081 6  95600736.73344  23346662.859                    23346670.398
 106636267.593 8  83093291.65547  20292189.836                    20292196.406
 127444765.639 6  99307742.84643  24251915.016                    24251922.949
 111244694.636 8  86684301.13546  21169138.086                    21169142.402
 11  7 28  3 20 30.0000000  0  7G10G25G12G29G05G04G02
 117431696.544 7  91505324.50344  22346487.656                    22346494.617
 114356671.503 8  89109188.15546  21761354.766                    21761363.680
 110315147.822 8  85959927.23846  20992272.984                    20992279.266
 122604261.906 6  95535843.16744  23330815.617                    23330822.219
 106626211.561 8  83085455.79947  20290276.500                    20290282.715
 127525969.361 6  99371018.40643  24267368.375                    24267375.734
 111278662.064 7  86710769.26546  21175601.844                    21175606.250
 11  7 28  3 21  0.0000000  0  7G10G25G12G29G05G04G02
 117519006.257 7  91573358.03244  22363102.359                    22363108.375
 114326067.178 8  89085340.64346  21755530.930                    21755539.559
 110352851.677 8  85989306.86246  20999448.078                    20999454.125
 122520988.247 6  95470954.66544  23314968.742                    23314976.090
 106616732.697 8  83078069.69347  20288472.320                    20288478.828
 127607125.152 6  99434256.63943  24282811.320                    24282819.000
 111312757.180 7  86737336.88646  21182089.977                    21182094.098
 11  7 28  3 21 30.0000000  0  7G10G25G12G29G05G04G02
 117606664.705 7  91641663.30844  22379783.242                    22379789.781
 114296027.937 8  89061933.46846  21749814.422                    21749823.246
 110391093.459 8  86019105.65746  21006724.961                    21006731.375
 122437722.369 6  95406072.21944  23299123.828                    23299131.180
 106607830.453 8  83071132.89547  20286778.727                    20286784.672
 127688232.565 6  99497457.20543  24298245.930                    24298253.789
 111346979.117 8  86764003.33746  21188602.305                    21188606.801
 11  7 28  3 22  0.0000000  0  7G10G25G12G29G05G04G02
 117694669.088 7  91710238.13144  22396529.539                    22396536.375
 114266554.653 8  89038967.29446  21744205.984                    21744214.645
 110429871.681 8  86049322.45446  21014104.391                    21014110.621
 122354465.662 6  95341196.92644  23283280.281                    23283287.848
 106599504.181 8  83064644.90847  20285194.398                    20285200.922
 127769290.986 6  99560619.61143  24313670.547                    24313678.676
 111381327.238 7  86790768.11546  21195138.289                    21195142.840
 11  7 28  3 22 30.0000000  0  7G10G25G12G29G05G04G02
 117783016.692 7  91779080.42444  22413341.852                    22413348.625
 114237648.673 8  89016443.17746  21738705.391                    21738713.684
 110469184.613 7  86079955.90746  21021585.297                    21021591.527
 122271219.720 6  95276330.03044  23267439.234                    23267446.328
 106591754.636 8  83058606.31747  20283719.578                    20283725.730
 127850300.476 6  99623743.88843  24329085.953                    24329093.617
 111415800.919 8  86817630.73446  21201698.516                    21201702.727
 11  7 28  3 23  0.0000000  0  7G10G25G12G29G05G04G02
 117871704.987 7  91848188.17644  22430218.641                    22430225.336
 114209311.123 8  88994361.99546  21733312.734                    21733321.469
 110509031.147 8  86111005.14646  21029167.445                    21029173.875
 122187986.043 7  95211472.66044  23251601.063                    23251607.566
 106584581.785 8  83053017.09747  20282354.625                    20282360.867
 127931260.913 6  99686830.02343  24344492.430                    24344499.793
 111450400.318 7  86844591.30446  21208282.242                    21208286.602
 11  7 28  3 23 30.0000000  0  8G10G25G12G26G29G05G04G02
 117960730.832 7  91917558.96744  22447159.781                    22447166.082
 114181542.704 8  88972724.29046  21728028.625                    21728036.957
 110549409.563 8  86142468.84746  21036851.555                    21036857.676
 130252867.29716 101495755.87152  24786294.336                    24786302.160
 122104765.821 7  95146625.78544  23235764.578                    23235771.414
 106577984.788 8  83047876.60347  20281099.453                    20281105.164
 128012171.810 6  99749877.54743  24359888.797                    24359896.742
 111485124.483 7  86871649.09746  21214890.602                    21214894.781
 11  7 28  3 24  0.0000000  0  8G10G25G12G26G29G05G04G02
 118050091.358 7  91987190.54544  22464164.508                    22464170.789
 114154344.225 8  88951530.68746  21722852.883                    21722861.648
 110590318.536 8  86174345.96946  21044636.414                    21044642.387
 130157645.095 6 101421556.79542  24768173.297                    24768181.883
 122021560.658 7  95081790.64544  23219931.078                    23219937.723
 106571963.450 8  83043184.66447  20279953.227                    20279959.109
 128093032.794 6  99812886.20743  24375276.430                    24375283.820
 111519972.607 7  86898803.48346  21221521.719                    21221525.582
 11  7 28  3 24 30.0000000  0  8G10G25G12G26G29G05G04G02
 118139783.797 7  92057080.75844  22481232.508                    22481238.738
 114127716.559 8  88930781.87846  21717785.828                    21717794.594
 110631756.074 8  86206634.95146  21052521.602                    21052527.586
 130062307.377 6 101347267.69242  24750031.258                    24750039.809
 121938371.672 7  95016968.09844  23204100.508                    23204107.324
 106566517.706 8  83038941.24147  20278916.938                    20278922.629
 128173843.406 6  99875855.55543  24390654.078                    24390661.797
 111554944.399 8  86926054.22746  21228176.836                    21228180.469
 11  7 28  3 25  0.0000000  0  8G10G25G12G26G29G05G04G02
 118229804.971 7  92127227.12944  22498362.500                    22498369.332
 114101660.468 8  88910478.44846  21712827.320                    21712836.223
 110673720.427 8  86239334.45246  21060506.938                    21060513.313
 129966856.963 6 101272890.79242  24731867.703                    24731875.992
 121855199.918 7  94952158.98144  23188273.516                    23188280.691
 106561646.824 8  83035145.76847  20277990.281                    20277995.852
 128254603.408 6  99938785.45243  24406021.734                    24406029.727
 111590039.037 8  86953400.69746  21234854.609                    21234859.188
 11  7 28  3 25 30.0000000  0  8G10G25G12G26G29G05G04G02
 118320151.924 7  92197627.33544  22515555.063                    22515561.703
 114076176.570 8  88890620.88646  21707978.055                    21707987.016
 110716210.058 8  86272443.25446  21068592.656                    21068599.055
 129871296.758 6 101198428.40742  24713683.609                    24713691.172
 121772047.107 7  94887364.63344  23172449.938                    23172456.727
 106557350.249 8  83031797.79747  20277172.445                    20277178.629
 128335312.165 6 100001675.47143  24421379.805                    24421388.117
 111625255.915 8  86980842.41646  21241556.391                    21241560.844
 11  7 28  3 26  0.0000000  0  8G10G25G12G26G29G05G04G02
 118410822.009 7  92268279.37544  22532809.336                    22532815.301
 114051265.551 8  88871209.71746  21703238.164                    21703246.582
 110759222.655 8  86305959.55646  21076777.672                    21076783.926
 129775629.733 6 101123882.76343  24695478.219                    24695486.121
 121688914.415 7  94822585.94745  23156629.906                    23156637.039
 106553627.471 8  83028896.95447  20276464.398                    20276470.137
 128415969.272 6 100064525.17343  24436728.797                    24436737.055
 111660594.313 7  87008378.83146  21248280.945                    21248285.195
 11  7 28  3 26 30.0000000  0  8G10G25G12G26G29G05G04G02
 118501811.995 7  92339180.65844  22550123.773                    22550130.902
 114026928.189 8  88852245.55446  21698606.508                    21698615.391
 110802757.176 8  86339882.55446  21085062.188                    21085068.180
 129679858.725 6 101049256.11943  24677254.250                    24677261.949
 121605803.394 7  94757824.15944  23140814.523                    23140821.633
 106550478.208 8  83026442.99747  20275864.734                    20275871.086
 128496574.561 6 100127334.49243  24452067.828                    24452075.266
 111696053.498 8  87036009.36246  21255028.891                    21255033.051
 11  7 28  3 27  0.0000000  0  8G10G25G12G26G29G05G04G02
 118593119.244 7  92410329.15644  22567499.750                    22567505.441
 114003165.329 8  88833729.05046  21694084.461                    21694093.273
 110846811.631 8  86374210.69046  21093445.188                    21093451.383
 129583986.844 6 100974550.83143  24659010.141                    24659018.293
 121522715.354 7  94693080.28244  23125003.016                    23125010.363
 106547902.053 8  83024435.61947  20275374.820                    20275380.762
 128577127.886 6 100190103.24743  24467396.992                    24467404.262
 111731633.263 7  87063733.86446  21261799.336                    21261803.340
 11  7 28  3 27 30.0000000  0  8G10G25G12G26G29G05G04G02
 118684740.670 7  92481722.48144  22584934.531                    22584940.270
 113979977.721 8  88815660.79346  21689672.086                    21689680.781
 110891384.138 8  86408942.51546  21101927.117                    21101933.352
 129488017.064 6 100899769.26743  24640747.617                    24640756.457
 121439652.041 6  94628355.65844  23109196.445                    23109204.195
 106545898.685 8  83022874.56847  20274993.281                    20274999.723
 128657629.019 6 100252831.41742  24482714.539                    24482723.215
 111767333.258 7  87091552.03446  21268593.016                    21268597.168
 11  7 28  3 28  0.0000000  0  8G10G25G12G26G29G05G04G02
 118776673.444 7  92553358.41044  22602428.352                    22602435.074
 113957365.757 8  88798041.10146  21685369.328                    21685377.555
 110936472.833 8  86444076.55746  21110507.438                    21110513.344
 129391952.105 6 100824913.61343  24622466.383                    24622475.016
 121356614.773 6  94563651.33644  23093394.500                    23093402.547
 106544467.144 8  83021759.09947  20274720.961                    20274727.309
 128738077.522 6 100315518.62642  24498024.766                    24498031.762
 111803152.580 7  87119463.19746  21275408.977                    21275413.309
 11  7 28  3 28 30.0000000  0  8G10G25G12G26G29G05G04G02
 118868915.138 7  92625235.05944  22619981.180                    22619988.039
 113935330.551 8  88780870.81546  21681175.773                    21681184.883
 110982076.508 8  86479611.88346  21119185.383                    21119191.348
 129295795.492 6 100749986.48943  24604168.594                    24604176.652
 121273605.061 7  94498968.48444  23077599.281                    23077606.207
 106543607.736 8  83021089.43847  20274557.102                    20274563.117
 128818473.372 6 100378164.82642  24513323.078                    24513331.047
 111839091.172 7  87147467.29946  21282248.320                    21282252.160
 11  7 28  3 29  0.0000000  0  8G10G25G12G26G29G05G04G02
 118961462.456 7  92697349.84844  22637592.258                    22637599.453
 113913872.174 8  88764150.01646  21677092.367                    21677101.094
 111028192.575 8  86515546.47946  21127961.055                    21127967.273
 129199549.805 6 100674989.99343  24585853.414                    24585861.688
 121190624.019 6  94434307.99144  23061808.227                    23061815.543
 106543319.052 8  83020864.51047  20274502.445                    20274508.660
 128898815.997 6 100440769.49742  24528611.039                    24528619.461
 111875147.804 8  87175563.37846  21289109.828                    21289113.891
 11  7 28  3 29 30.0000000  0  8G10G25G12G26G29G05G04G02
 119054312.652 7  92769700.64944  22655261.477                    22655268.117
 113892991.562 8  88747879.41946  21673118.734                    21673127.453
 111074819.516 8  86551879.15346  21136833.680                    21136840.098
 129103218.154 6 100599926.50443  24567521.938                    24567530.566
 121107673.709 7  94369671.41844  23046022.945                    23046030.156
 106543600.998 8  83021084.22747  20274555.891                    20274561.973
 128979105.171 6 100503332.55542  24543891.023                    24543898.125
 111911322.242 8  87203751.24446  21295993.086                    21295997.227
 11  7 28  3 30  0.0000000  0  8G10G25G12G26G29G05G04G02
 119147462.668 7  92842285.07844  22672987.617                    22672994.215
 113872689.105 8  88732059.32846  21669255.805                    21669264.277
 111121955.335 8  86588608.35646  21145803.602                    21145809.414
 129006803.527 6 100524798.31343  24549174.727                    24549183.406
 121024755.098 7  94305059.58244  23030244.156                    23030250.996
 106544452.655 8  83021747.87547  20274718.023                    20274724.406
 129059340.716 6 100565853.82842  24559158.805                    24559165.805
 111947613.895 8  87232030.46246  21302899.281                    21302903.148
 11  7 28  3 30 30.0000000  0  8G10G25G12G26G29G05G04G02
 119240909.674 7  92915100.92544  22690769.273                    22690776.375
 113852965.355 8  88716690.19046  21665502.367                    21665511.031
 111169598.205 8  86625732.67646  21154869.305                    21154875.648
 128910309.140 6 100449607.95643  24530812.852                    24530820.957
 120941869.816 7  94240473.69044  23014471.438                    23014479.051
 106545873.337 8  83022854.92047  20274988.602                    20274994.645
 129139522.125 6 100628332.94342  24574415.906                    24574424.008
 111984022.324 7  87260400.65146  21309827.594                    21309831.391
 11  7 28  3 31  0.0000000  0  8G10G25G12G26G29G05G04G02
 119334650.833 6  92988145.96444  22708607.766                    22708615.059
 113833820.842 8  88701772.40046  21661859.422                    21661868.168
 111217746.354 8  86663250.70246  21164032.031                    21164038.410
 128813737.745 6 100374357.57243  24512435.563                    24512443.391
 120859019.418 7  94175914.99145  22998705.680                    22998712.426
 106547862.411 8  83024404.86547  20275366.836                    20275372.680
 129219649.612 6 100690770.07342  24589663.938                    24589671.738
 112020547.177 8  87288861.58246  21316777.852                    21316781.867
 11  7 28  3 31 30.0000000  0  8G10G25G12G26G29G05G04G02
 119428683.213 6  93061417.94644  22726501.508                    22726508.125
 113815256.269 8  88687306.51346  21658326.367                    21658335.523
 111266397.767 8  86701160.89146  21173289.750                    21173295.859
 128717092.694 6 100299049.72343  24494044.367                    24494052.621
 120776205.554 7  94111384.76745  22982946.961                    22982953.969
 106550419.490 8  83026397.40247  20275853.367                    20275859.379
 129299722.743 6 100753164.77542  24604901.594                    24604908.871
 112057188.066 7  87317412.91446  21323750.375                    21323754.781
 11  7 28  3 32  0.0000000  0  8G10G25G12G26G29G05G04G02
 119523003.796 7  93134914.50544  22744450.281                    22744456.660
 113797271.816 8  88673292.67646  21654903.867                    21654912.883
 111315550.361 8  86739461.61146  21182643.688                    21182649.477
 128620376.765 6 100223686.63643  24475640.602                    24475647.883
 120693429.800 7  94046884.25845  22967194.891                    22967201.844
 106553543.709 8  83028831.87847  20276447.797                    20276454.008
 129379741.032 6 100815516.70443  24620128.625                    24620136.402
 112093944.099 7  87346053.97546  21330745.023                    21330749.285
